<?xml version="1.0" encoding="UTF-8" standalone="no" ?>
<gpx xmlns="http://www.topografix.com/GPX/1/1" xmlns:xsi="http://www.w3.org/2001/XMLSchema-instance" xsi:schemaLocation="http://www.topografix.com/GPX/1/1 http://www.topografix.com/GPX/1/1/gpx.xsd" version="1.1" creator="VisuGPX - https://www.visugpx.com">
  <metadata>
    <name>Villemervry (Tronqueux)</name>
  </metadata>
  <trk>
    <name><![CDATA[Randonnée du matin 3]]></name>
    <trkseg>
      <trkpt lat="47.67913" lon="5.0654">
        <ele>361.43</ele>
        <time>2022-06-09T06:58:58Z</time>
      </trkpt>
      <trkpt lat="47.6791" lon="5.0654">
        <ele>361</ele>
        <time>2022-06-09T06:59:03Z</time>
      </trkpt>
      <trkpt lat="47.67912" lon="5.06537">
        <ele>360.32</ele>
        <time>2022-06-09T07:08:36Z</time>
      </trkpt>
      <trkpt lat="47.67914" lon="5.06537">
        <ele>360.6</ele>
        <time>2022-06-09T07:14:19Z</time>
      </trkpt>
      <trkpt lat="47.67915" lon="5.06533">
        <ele>359.45</ele>
        <time>2022-06-09T07:14:38Z</time>
      </trkpt>
      <trkpt lat="47.67914" lon="5.06536">
        <ele>360.28</ele>
        <time>2022-06-09T07:15:03Z</time>
      </trkpt>
      <trkpt lat="47.67912" lon="5.06534">
        <ele>359.34</ele>
        <time>2022-06-09T07:16:00Z</time>
      </trkpt>
      <trkpt lat="47.6791" lon="5.06531">
        <ele>358.08</ele>
        <time>2022-06-09T07:16:02Z</time>
      </trkpt>
      <trkpt lat="47.67908" lon="5.06528">
        <ele>356.82</ele>
        <time>2022-06-09T07:16:06Z</time>
      </trkpt>
      <trkpt lat="47.67905" lon="5.06526">
        <ele>355.99</ele>
        <time>2022-06-09T07:16:13Z</time>
      </trkpt>
      <trkpt lat="47.67902" lon="5.06525">
        <ele>355.39</ele>
        <time>2022-06-09T07:16:17Z</time>
      </trkpt>
      <trkpt lat="47.67899" lon="5.06526">
        <ele>355.15</ele>
        <time>2022-06-09T07:16:23Z</time>
      </trkpt>
      <trkpt lat="47.67896" lon="5.06527">
        <ele>354.9</ele>
        <time>2022-06-09T07:16:26Z</time>
      </trkpt>
      <trkpt lat="47.67893" lon="5.06527">
        <ele>354.47</ele>
        <time>2022-06-09T07:16:28Z</time>
      </trkpt>
      <trkpt lat="47.6789" lon="5.06527">
        <ele>354.05</ele>
        <time>2022-06-09T07:16:31Z</time>
      </trkpt>
      <trkpt lat="47.67888" lon="5.06527">
        <ele>353.89</ele>
        <time>2022-06-09T07:16:34Z</time>
      </trkpt>
      <trkpt lat="47.67885" lon="5.06528">
        <ele>354.07</ele>
        <time>2022-06-09T07:16:37Z</time>
      </trkpt>
      <trkpt lat="47.67882" lon="5.06528">
        <ele>354.06</ele>
        <time>2022-06-09T07:16:40Z</time>
      </trkpt>
      <trkpt lat="47.67879" lon="5.06528">
        <ele>354.06</ele>
        <time>2022-06-09T07:16:43Z</time>
      </trkpt>
      <trkpt lat="47.67876" lon="5.06529">
        <ele>354.31</ele>
        <time>2022-06-09T07:16:45Z</time>
      </trkpt>
      <trkpt lat="47.67873" lon="5.06529">
        <ele>354.3</ele>
        <time>2022-06-09T07:16:49Z</time>
      </trkpt>
      <trkpt lat="47.6787" lon="5.06529">
        <ele>354.28</ele>
        <time>2022-06-09T07:16:54Z</time>
      </trkpt>
      <trkpt lat="47.67867" lon="5.0653">
        <ele>354.47</ele>
        <time>2022-06-09T07:16:58Z</time>
      </trkpt>
      <trkpt lat="47.67864" lon="5.0653">
        <ele>354.43</ele>
        <time>2022-06-09T07:17:01Z</time>
      </trkpt>
      <trkpt lat="47.67861" lon="5.06529">
        <ele>354.2</ele>
        <time>2022-06-09T07:17:04Z</time>
      </trkpt>
      <trkpt lat="47.67859" lon="5.06527">
        <ele>353.52</ele>
        <time>2022-06-09T07:17:06Z</time>
      </trkpt>
      <trkpt lat="47.67856" lon="5.06525">
        <ele>352.71</ele>
        <time>2022-06-09T07:17:10Z</time>
      </trkpt>
      <trkpt lat="47.67853" lon="5.06524">
        <ele>352.2</ele>
        <time>2022-06-09T07:17:11Z</time>
      </trkpt>
      <trkpt lat="47.6785" lon="5.06524">
        <ele>351.88</ele>
        <time>2022-06-09T07:17:13Z</time>
      </trkpt>
      <trkpt lat="47.67847" lon="5.06523">
        <ele>351.46</ele>
        <time>2022-06-09T07:17:15Z</time>
      </trkpt>
      <trkpt lat="47.67844" lon="5.06523">
        <ele>351.18</ele>
        <time>2022-06-09T07:17:19Z</time>
      </trkpt>
      <trkpt lat="47.67841" lon="5.06522">
        <ele>350.85</ele>
        <time>2022-06-09T07:17:22Z</time>
      </trkpt>
      <trkpt lat="47.67838" lon="5.06522">
        <ele>350.6</ele>
        <time>2022-06-09T07:17:25Z</time>
      </trkpt>
      <trkpt lat="47.67834" lon="5.06522">
        <ele>350.26</ele>
        <time>2022-06-09T07:17:28Z</time>
      </trkpt>
      <trkpt lat="47.67831" lon="5.06522">
        <ele>350.36</ele>
        <time>2022-06-09T07:17:31Z</time>
      </trkpt>
      <trkpt lat="47.67828" lon="5.06521">
        <ele>350.58</ele>
        <time>2022-06-09T07:17:32Z</time>
      </trkpt>
      <trkpt lat="47.67825" lon="5.06521">
        <ele>350.77</ele>
        <time>2022-06-09T07:17:34Z</time>
      </trkpt>
      <trkpt lat="47.67822" lon="5.0652">
        <ele>350.98</ele>
        <time>2022-06-09T07:17:37Z</time>
      </trkpt>
      <trkpt lat="47.67819" lon="5.06519">
        <ele>351.18</ele>
        <time>2022-06-09T07:17:39Z</time>
      </trkpt>
      <trkpt lat="47.67816" lon="5.06518">
        <ele>351.38</ele>
        <time>2022-06-09T07:17:42Z</time>
      </trkpt>
      <trkpt lat="47.67813" lon="5.06518">
        <ele>351.56</ele>
        <time>2022-06-09T07:17:45Z</time>
      </trkpt>
      <trkpt lat="47.67809" lon="5.06518">
        <ele>351.8</ele>
        <time>2022-06-09T07:17:47Z</time>
      </trkpt>
      <trkpt lat="47.67807" lon="5.06517">
        <ele>351.92</ele>
        <time>2022-06-09T07:17:49Z</time>
      </trkpt>
      <trkpt lat="47.67804" lon="5.06516">
        <ele>351.98</ele>
        <time>2022-06-09T07:17:52Z</time>
      </trkpt>
      <trkpt lat="47.67801" lon="5.06516">
        <ele>351.94</ele>
        <time>2022-06-09T07:17:55Z</time>
      </trkpt>
      <trkpt lat="47.67797" lon="5.06516">
        <ele>351.88</ele>
        <time>2022-06-09T07:17:59Z</time>
      </trkpt>
      <trkpt lat="47.67794" lon="5.06516">
        <ele>351.84</ele>
        <time>2022-06-09T07:18:00Z</time>
      </trkpt>
      <trkpt lat="47.67791" lon="5.06516">
        <ele>351.79</ele>
        <time>2022-06-09T07:18:02Z</time>
      </trkpt>
      <trkpt lat="47.67788" lon="5.06516">
        <ele>351.75</ele>
        <time>2022-06-09T07:18:05Z</time>
      </trkpt>
      <trkpt lat="47.67784" lon="5.06516">
        <ele>351.7</ele>
        <time>2022-06-09T07:18:09Z</time>
      </trkpt>
      <trkpt lat="47.67781" lon="5.06516">
        <ele>351.65</ele>
        <time>2022-06-09T07:18:11Z</time>
      </trkpt>
      <trkpt lat="47.67778" lon="5.06517">
        <ele>351.9</ele>
        <time>2022-06-09T07:18:14Z</time>
      </trkpt>
      <trkpt lat="47.67775" lon="5.06518">
        <ele>352.39</ele>
        <time>2022-06-09T07:18:16Z</time>
      </trkpt>
      <trkpt lat="47.67772" lon="5.06519">
        <ele>352.88</ele>
        <time>2022-06-09T07:18:19Z</time>
      </trkpt>
      <trkpt lat="47.67769" lon="5.0652">
        <ele>353.34</ele>
        <time>2022-06-09T07:18:21Z</time>
      </trkpt>
      <trkpt lat="47.67766" lon="5.0652">
        <ele>353.54</ele>
        <time>2022-06-09T07:18:24Z</time>
      </trkpt>
      <trkpt lat="47.67763" lon="5.0652">
        <ele>353.74</ele>
        <time>2022-06-09T07:18:26Z</time>
      </trkpt>
      <trkpt lat="47.6776" lon="5.0652">
        <ele>353.94</ele>
        <time>2022-06-09T07:18:28Z</time>
      </trkpt>
      <trkpt lat="47.67756" lon="5.06519">
        <ele>354</ele>
        <time>2022-06-09T07:18:30Z</time>
      </trkpt>
      <trkpt lat="47.67753" lon="5.06518">
        <ele>354.02</ele>
        <time>2022-06-09T07:18:32Z</time>
      </trkpt>
      <trkpt lat="47.6775" lon="5.06519">
        <ele>354.42</ele>
        <time>2022-06-09T07:18:33Z</time>
      </trkpt>
      <trkpt lat="47.67746" lon="5.0652">
        <ele>354.31</ele>
        <time>2022-06-09T07:18:36Z</time>
      </trkpt>
      <trkpt lat="47.67744" lon="5.0652">
        <ele>354.17</ele>
        <time>2022-06-09T07:18:38Z</time>
      </trkpt>
      <trkpt lat="47.67741" lon="5.06521">
        <ele>354.13</ele>
        <time>2022-06-09T07:18:40Z</time>
      </trkpt>
      <trkpt lat="47.67738" lon="5.06521">
        <ele>353.92</ele>
        <time>2022-06-09T07:18:42Z</time>
      </trkpt>
      <trkpt lat="47.67735" lon="5.06522">
        <ele>353.88</ele>
        <time>2022-06-09T07:18:44Z</time>
      </trkpt>
      <trkpt lat="47.67732" lon="5.06522">
        <ele>353.66</ele>
        <time>2022-06-09T07:18:46Z</time>
      </trkpt>
      <trkpt lat="47.67729" lon="5.06522">
        <ele>353.45</ele>
        <time>2022-06-09T07:18:49Z</time>
      </trkpt>
      <trkpt lat="47.67726" lon="5.06523">
        <ele>353.41</ele>
        <time>2022-06-09T07:18:51Z</time>
      </trkpt>
      <trkpt lat="47.67722" lon="5.06524">
        <ele>353.41</ele>
        <time>2022-06-09T07:18:56Z</time>
      </trkpt>
      <trkpt lat="47.67719" lon="5.06524">
        <ele>354.61</ele>
        <time>2022-06-09T07:18:58Z</time>
      </trkpt>
      <trkpt lat="47.67716" lon="5.06524">
        <ele>355.81</ele>
        <time>2022-06-09T07:19:00Z</time>
      </trkpt>
      <trkpt lat="47.67713" lon="5.06524">
        <ele>357</ele>
        <time>2022-06-09T07:19:03Z</time>
      </trkpt>
      <trkpt lat="47.6771" lon="5.06523">
        <ele>357.8</ele>
        <time>2022-06-09T07:19:05Z</time>
      </trkpt>
      <trkpt lat="47.67706" lon="5.06523">
        <ele>359.33</ele>
        <time>2022-06-09T07:19:08Z</time>
      </trkpt>
      <trkpt lat="47.67702" lon="5.06522">
        <ele>360.3</ele>
        <time>2022-06-09T07:19:10Z</time>
      </trkpt>
      <trkpt lat="47.67699" lon="5.06522">
        <ele>361.39</ele>
        <time>2022-06-09T07:19:12Z</time>
      </trkpt>
      <trkpt lat="47.67695" lon="5.06521">
        <ele>362.17</ele>
        <time>2022-06-09T07:19:15Z</time>
      </trkpt>
      <trkpt lat="47.67692" lon="5.06521">
        <ele>362.05</ele>
        <time>2022-06-09T07:19:18Z</time>
      </trkpt>
      <trkpt lat="47.67689" lon="5.06522">
        <ele>362.35</ele>
        <time>2022-06-09T07:19:21Z</time>
      </trkpt>
      <trkpt lat="47.67686" lon="5.06522">
        <ele>361.96</ele>
        <time>2022-06-09T07:19:22Z</time>
      </trkpt>
      <trkpt lat="47.67683" lon="5.06522">
        <ele>361.57</ele>
        <time>2022-06-09T07:19:23Z</time>
      </trkpt>
      <trkpt lat="47.6768" lon="5.06522">
        <ele>361.18</ele>
        <time>2022-06-09T07:19:25Z</time>
      </trkpt>
      <trkpt lat="47.67677" lon="5.06522">
        <ele>360.8</ele>
        <time>2022-06-09T07:19:28Z</time>
      </trkpt>
      <trkpt lat="47.67674" lon="5.06522">
        <ele>360.41</ele>
        <time>2022-06-09T07:19:30Z</time>
      </trkpt>
      <trkpt lat="47.67671" lon="5.06522">
        <ele>360.02</ele>
        <time>2022-06-09T07:19:33Z</time>
      </trkpt>
      <trkpt lat="47.67668" lon="5.06523">
        <ele>360.25</ele>
        <time>2022-06-09T07:19:36Z</time>
      </trkpt>
      <trkpt lat="47.67664" lon="5.06524">
        <ele>360.36</ele>
        <time>2022-06-09T07:19:40Z</time>
      </trkpt>
      <trkpt lat="47.67661" lon="5.06525">
        <ele>360.57</ele>
        <time>2022-06-09T07:19:42Z</time>
      </trkpt>
      <trkpt lat="47.67658" lon="5.06525">
        <ele>360.18</ele>
        <time>2022-06-09T07:19:44Z</time>
      </trkpt>
      <trkpt lat="47.67655" lon="5.06526">
        <ele>360.34</ele>
        <time>2022-06-09T07:19:46Z</time>
      </trkpt>
      <trkpt lat="47.67652" lon="5.06526">
        <ele>359.94</ele>
        <time>2022-06-09T07:19:50Z</time>
      </trkpt>
      <trkpt lat="47.67649" lon="5.06526">
        <ele>359.53</ele>
        <time>2022-06-09T07:19:52Z</time>
      </trkpt>
      <trkpt lat="47.67646" lon="5.06527">
        <ele>359.63</ele>
        <time>2022-06-09T07:19:53Z</time>
      </trkpt>
      <trkpt lat="47.67642" lon="5.06527">
        <ele>359.07</ele>
        <time>2022-06-09T07:19:55Z</time>
      </trkpt>
      <trkpt lat="47.67639" lon="5.06528">
        <ele>359.1</ele>
        <time>2022-06-09T07:19:58Z</time>
      </trkpt>
      <trkpt lat="47.67635" lon="5.06529">
        <ele>359.22</ele>
        <time>2022-06-09T07:19:59Z</time>
      </trkpt>
      <trkpt lat="47.67632" lon="5.06529">
        <ele>359.01</ele>
        <time>2022-06-09T07:20:01Z</time>
      </trkpt>
      <trkpt lat="47.67628" lon="5.06529">
        <ele>358.73</ele>
        <time>2022-06-09T07:20:03Z</time>
      </trkpt>
      <trkpt lat="47.67626" lon="5.06529">
        <ele>358.6</ele>
        <time>2022-06-09T07:20:04Z</time>
      </trkpt>
      <trkpt lat="47.67623" lon="5.06529">
        <ele>358.39</ele>
        <time>2022-06-09T07:20:06Z</time>
      </trkpt>
      <trkpt lat="47.6762" lon="5.06529">
        <ele>358.18</ele>
        <time>2022-06-09T07:20:08Z</time>
      </trkpt>
      <trkpt lat="47.67617" lon="5.06529">
        <ele>357.98</ele>
        <time>2022-06-09T07:20:10Z</time>
      </trkpt>
      <trkpt lat="47.67613" lon="5.06529">
        <ele>357.7</ele>
        <time>2022-06-09T07:20:11Z</time>
      </trkpt>
      <trkpt lat="47.6761" lon="5.0653">
        <ele>357.82</ele>
        <time>2022-06-09T07:20:13Z</time>
      </trkpt>
      <trkpt lat="47.67607" lon="5.0653">
        <ele>357.22</ele>
        <time>2022-06-09T07:20:15Z</time>
      </trkpt>
      <trkpt lat="47.67604" lon="5.0653">
        <ele>356.63</ele>
        <time>2022-06-09T07:20:17Z</time>
      </trkpt>
      <trkpt lat="47.67601" lon="5.06529">
        <ele>355.48</ele>
        <time>2022-06-09T07:20:20Z</time>
      </trkpt>
      <trkpt lat="47.67598" lon="5.06529">
        <ele>354.86</ele>
        <time>2022-06-09T07:20:24Z</time>
      </trkpt>
      <trkpt lat="47.67595" lon="5.06529">
        <ele>354.25</ele>
        <time>2022-06-09T07:20:28Z</time>
      </trkpt>
      <trkpt lat="47.67592" lon="5.06529">
        <ele>353.63</ele>
        <time>2022-06-09T07:20:31Z</time>
      </trkpt>
      <trkpt lat="47.6759" lon="5.0653">
        <ele>353.84</ele>
        <time>2022-06-09T07:20:34Z</time>
      </trkpt>
      <trkpt lat="47.67586" lon="5.0653">
        <ele>353.05</ele>
        <time>2022-06-09T07:20:35Z</time>
      </trkpt>
      <trkpt lat="47.67582" lon="5.0653">
        <ele>352.83</ele>
        <time>2022-06-09T07:20:37Z</time>
      </trkpt>
      <trkpt lat="47.67579" lon="5.0653">
        <ele>353.51</ele>
        <time>2022-06-09T07:20:38Z</time>
      </trkpt>
      <trkpt lat="47.67576" lon="5.06529">
        <ele>353.59</ele>
        <time>2022-06-09T07:20:40Z</time>
      </trkpt>
      <trkpt lat="47.67573" lon="5.06527">
        <ele>353.43</ele>
        <time>2022-06-09T07:20:44Z</time>
      </trkpt>
      <trkpt lat="47.6757" lon="5.06526">
        <ele>353.97</ele>
        <time>2022-06-09T07:20:47Z</time>
      </trkpt>
      <trkpt lat="47.67568" lon="5.06525">
        <ele>354.27</ele>
        <time>2022-06-09T07:20:48Z</time>
      </trkpt>
      <trkpt lat="47.67565" lon="5.06524">
        <ele>354.85</ele>
        <time>2022-06-09T07:20:50Z</time>
      </trkpt>
      <trkpt lat="47.67562" lon="5.06524">
        <ele>355.63</ele>
        <time>2022-06-09T07:20:53Z</time>
      </trkpt>
      <trkpt lat="47.67559" lon="5.06524">
        <ele>356.42</ele>
        <time>2022-06-09T07:20:56Z</time>
      </trkpt>
      <trkpt lat="47.67556" lon="5.06525">
        <ele>357.38</ele>
        <time>2022-06-09T07:20:57Z</time>
      </trkpt>
      <trkpt lat="47.67553" lon="5.06524">
        <ele>357.32</ele>
        <time>2022-06-09T07:20:59Z</time>
      </trkpt>
      <trkpt lat="47.6755" lon="5.06524">
        <ele>357.32</ele>
        <time>2022-06-09T07:21:01Z</time>
      </trkpt>
      <trkpt lat="47.67547" lon="5.06523">
        <ele>357.14</ele>
        <time>2022-06-09T07:21:03Z</time>
      </trkpt>
      <trkpt lat="47.67544" lon="5.06523">
        <ele>357.14</ele>
        <time>2022-06-09T07:21:05Z</time>
      </trkpt>
      <trkpt lat="47.67541" lon="5.06523">
        <ele>357.14</ele>
        <time>2022-06-09T07:21:08Z</time>
      </trkpt>
      <trkpt lat="47.67536" lon="5.06522">
        <ele>356.96</ele>
        <time>2022-06-09T07:21:11Z</time>
      </trkpt>
      <trkpt lat="47.67533" lon="5.06521">
        <ele>356.78</ele>
        <time>2022-06-09T07:21:12Z</time>
      </trkpt>
      <trkpt lat="47.6753" lon="5.06522">
        <ele>356.96</ele>
        <time>2022-06-09T07:21:14Z</time>
      </trkpt>
      <trkpt lat="47.67527" lon="5.06523">
        <ele>357.15</ele>
        <time>2022-06-09T07:21:17Z</time>
      </trkpt>
      <trkpt lat="47.67524" lon="5.06523">
        <ele>357.2</ele>
        <time>2022-06-09T07:21:19Z</time>
      </trkpt>
      <trkpt lat="47.67521" lon="5.06523">
        <ele>357.25</ele>
        <time>2022-06-09T07:21:21Z</time>
      </trkpt>
      <trkpt lat="47.67518" lon="5.06523">
        <ele>357.3</ele>
        <time>2022-06-09T07:21:24Z</time>
      </trkpt>
      <trkpt lat="47.67514" lon="5.06524">
        <ele>357.7</ele>
        <time>2022-06-09T07:21:27Z</time>
      </trkpt>
      <trkpt lat="47.6751" lon="5.06525">
        <ele>358.2</ele>
        <time>2022-06-09T07:21:29Z</time>
      </trkpt>
      <trkpt lat="47.67507" lon="5.06525">
        <ele>358.32</ele>
        <time>2022-06-09T07:21:30Z</time>
      </trkpt>
      <trkpt lat="47.67504" lon="5.06525">
        <ele>358.44</ele>
        <time>2022-06-09T07:21:32Z</time>
      </trkpt>
      <trkpt lat="47.67501" lon="5.06526">
        <ele>359.05</ele>
        <time>2022-06-09T07:21:34Z</time>
      </trkpt>
      <trkpt lat="47.67498" lon="5.06527">
        <ele>359.55</ele>
        <time>2022-06-09T07:21:38Z</time>
      </trkpt>
      <trkpt lat="47.67495" lon="5.06528">
        <ele>359.91</ele>
        <time>2022-06-09T07:21:41Z</time>
      </trkpt>
      <trkpt lat="47.67491" lon="5.06529">
        <ele>360.15</ele>
        <time>2022-06-09T07:21:43Z</time>
      </trkpt>
      <trkpt lat="47.67488" lon="5.0653">
        <ele>360.41</ele>
        <time>2022-06-09T07:21:46Z</time>
      </trkpt>
      <trkpt lat="47.67485" lon="5.0653">
        <ele>360.3</ele>
        <time>2022-06-09T07:21:48Z</time>
      </trkpt>
      <trkpt lat="47.67482" lon="5.0653">
        <ele>360.18</ele>
        <time>2022-06-09T07:21:51Z</time>
      </trkpt>
      <trkpt lat="47.67479" lon="5.06531">
        <ele>360.43</ele>
        <time>2022-06-09T07:21:53Z</time>
      </trkpt>
      <trkpt lat="47.67476" lon="5.06532">
        <ele>360.68</ele>
        <time>2022-06-09T07:21:55Z</time>
      </trkpt>
      <trkpt lat="47.67473" lon="5.06533">
        <ele>360.91</ele>
        <time>2022-06-09T07:21:57Z</time>
      </trkpt>
      <trkpt lat="47.67471" lon="5.06534">
        <ele>360.95</ele>
        <time>2022-06-09T07:22:01Z</time>
      </trkpt>
      <trkpt lat="47.67468" lon="5.06535">
        <ele>360.62</ele>
        <time>2022-06-09T07:22:03Z</time>
      </trkpt>
      <trkpt lat="47.67465" lon="5.06536">
        <ele>360.34</ele>
        <time>2022-06-09T07:22:06Z</time>
      </trkpt>
      <trkpt lat="47.67462" lon="5.06537">
        <ele>360.11</ele>
        <time>2022-06-09T07:22:08Z</time>
      </trkpt>
      <trkpt lat="47.67459" lon="5.06537">
        <ele>359.46</ele>
        <time>2022-06-09T07:22:11Z</time>
      </trkpt>
      <trkpt lat="47.67456" lon="5.06538">
        <ele>359.3</ele>
        <time>2022-06-09T07:22:13Z</time>
      </trkpt>
      <trkpt lat="47.67454" lon="5.06538">
        <ele>358.88</ele>
        <time>2022-06-09T07:22:16Z</time>
      </trkpt>
      <trkpt lat="47.67451" lon="5.06538">
        <ele>358.25</ele>
        <time>2022-06-09T07:22:18Z</time>
      </trkpt>
      <trkpt lat="47.67447" lon="5.06539">
        <ele>357.98</ele>
        <time>2022-06-09T07:22:19Z</time>
      </trkpt>
      <trkpt lat="47.67445" lon="5.06539">
        <ele>357.58</ele>
        <time>2022-06-09T07:22:22Z</time>
      </trkpt>
      <trkpt lat="47.67442" lon="5.06539">
        <ele>357.52</ele>
        <time>2022-06-09T07:22:23Z</time>
      </trkpt>
      <trkpt lat="47.67439" lon="5.0654">
        <ele>358.15</ele>
        <time>2022-06-09T07:22:27Z</time>
      </trkpt>
      <trkpt lat="47.67436" lon="5.0654">
        <ele>358.21</ele>
        <time>2022-06-09T07:22:28Z</time>
      </trkpt>
      <trkpt lat="47.67433" lon="5.0654">
        <ele>358.27</ele>
        <time>2022-06-09T07:22:31Z</time>
      </trkpt>
      <trkpt lat="47.6743" lon="5.06541">
        <ele>358.89</ele>
        <time>2022-06-09T07:22:33Z</time>
      </trkpt>
      <trkpt lat="47.67426" lon="5.06541">
        <ele>358.96</ele>
        <time>2022-06-09T07:22:36Z</time>
      </trkpt>
      <trkpt lat="47.67424" lon="5.06542">
        <ele>359.55</ele>
        <time>2022-06-09T07:22:38Z</time>
      </trkpt>
      <trkpt lat="47.67421" lon="5.06543">
        <ele>360.15</ele>
        <time>2022-06-09T07:22:40Z</time>
      </trkpt>
      <trkpt lat="47.67418" lon="5.06543">
        <ele>360.2</ele>
        <time>2022-06-09T07:22:41Z</time>
      </trkpt>
      <trkpt lat="47.67415" lon="5.06544">
        <ele>360.38</ele>
        <time>2022-06-09T07:22:44Z</time>
      </trkpt>
      <trkpt lat="47.67412" lon="5.06546">
        <ele>360.73</ele>
        <time>2022-06-09T07:22:45Z</time>
      </trkpt>
      <trkpt lat="47.67409" lon="5.06548">
        <ele>361.01</ele>
        <time>2022-06-09T07:22:47Z</time>
      </trkpt>
      <trkpt lat="47.67406" lon="5.0655">
        <ele>361.24</ele>
        <time>2022-06-09T07:22:50Z</time>
      </trkpt>
      <trkpt lat="47.67404" lon="5.06552">
        <ele>361.67</ele>
        <time>2022-06-09T07:22:53Z</time>
      </trkpt>
      <trkpt lat="47.67401" lon="5.06554">
        <ele>361.77</ele>
        <time>2022-06-09T07:22:55Z</time>
      </trkpt>
      <trkpt lat="47.67398" lon="5.06556">
        <ele>361.79</ele>
        <time>2022-06-09T07:22:58Z</time>
      </trkpt>
      <trkpt lat="47.67396" lon="5.06558">
        <ele>361.97</ele>
        <time>2022-06-09T07:23:00Z</time>
      </trkpt>
      <trkpt lat="47.67393" lon="5.0656">
        <ele>361.9</ele>
        <time>2022-06-09T07:23:01Z</time>
      </trkpt>
      <trkpt lat="47.6739" lon="5.06561">
        <ele>361.46</ele>
        <time>2022-06-09T07:23:05Z</time>
      </trkpt>
      <trkpt lat="47.67387" lon="5.06563">
        <ele>361.52</ele>
        <time>2022-06-09T07:23:06Z</time>
      </trkpt>
      <trkpt lat="47.67384" lon="5.06564">
        <ele>361.23</ele>
        <time>2022-06-09T07:23:09Z</time>
      </trkpt>
      <trkpt lat="47.6738" lon="5.06566">
        <ele>361.1</ele>
        <time>2022-06-09T07:23:11Z</time>
      </trkpt>
      <trkpt lat="47.67378" lon="5.06567">
        <ele>361.02</ele>
        <time>2022-06-09T07:23:15Z</time>
      </trkpt>
      <trkpt lat="47.67375" lon="5.06568">
        <ele>360.7</ele>
        <time>2022-06-09T07:23:18Z</time>
      </trkpt>
      <trkpt lat="47.67372" lon="5.06569">
        <ele>360.38</ele>
        <time>2022-06-09T07:23:19Z</time>
      </trkpt>
      <trkpt lat="47.67369" lon="5.0657">
        <ele>360.05</ele>
        <time>2022-06-09T07:23:21Z</time>
      </trkpt>
      <trkpt lat="47.67366" lon="5.0657">
        <ele>359.35</ele>
        <time>2022-06-09T07:23:25Z</time>
      </trkpt>
      <trkpt lat="47.67363" lon="5.06571">
        <ele>359.01</ele>
        <time>2022-06-09T07:23:27Z</time>
      </trkpt>
      <trkpt lat="47.67359" lon="5.06571">
        <ele>357.92</ele>
        <time>2022-06-09T07:23:29Z</time>
      </trkpt>
      <trkpt lat="47.67356" lon="5.06571">
        <ele>357.01</ele>
        <time>2022-06-09T07:23:31Z</time>
      </trkpt>
      <trkpt lat="47.67352" lon="5.06571">
        <ele>355.79</ele>
        <time>2022-06-09T07:23:34Z</time>
      </trkpt>
      <trkpt lat="47.67348" lon="5.06573">
        <ele>355.33</ele>
        <time>2022-06-09T07:23:36Z</time>
      </trkpt>
      <trkpt lat="47.67345" lon="5.06575">
        <ele>355.19</ele>
        <time>2022-06-09T07:23:39Z</time>
      </trkpt>
      <trkpt lat="47.67343" lon="5.06576">
        <ele>354.97</ele>
        <time>2022-06-09T07:23:41Z</time>
      </trkpt>
      <trkpt lat="47.6734" lon="5.06578">
        <ele>354.85</ele>
        <time>2022-06-09T07:23:43Z</time>
      </trkpt>
      <trkpt lat="47.67337" lon="5.06579">
        <ele>354.36</ele>
        <time>2022-06-09T07:23:46Z</time>
      </trkpt>
      <trkpt lat="47.67334" lon="5.06581">
        <ele>354.27</ele>
        <time>2022-06-09T07:23:49Z</time>
      </trkpt>
      <trkpt lat="47.67331" lon="5.06582">
        <ele>353.82</ele>
        <time>2022-06-09T07:23:52Z</time>
      </trkpt>
      <trkpt lat="47.67328" lon="5.06583">
        <ele>353.34</ele>
        <time>2022-06-09T07:23:54Z</time>
      </trkpt>
      <trkpt lat="47.67325" lon="5.06584">
        <ele>352.81</ele>
        <time>2022-06-09T07:23:56Z</time>
      </trkpt>
      <trkpt lat="47.67322" lon="5.06585">
        <ele>352.26</ele>
        <time>2022-06-09T07:23:59Z</time>
      </trkpt>
      <trkpt lat="47.67318" lon="5.06587">
        <ele>351.79</ele>
        <time>2022-06-09T07:24:01Z</time>
      </trkpt>
      <trkpt lat="47.67316" lon="5.06589">
        <ele>351.89</ele>
        <time>2022-06-09T07:24:04Z</time>
      </trkpt>
      <trkpt lat="47.67313" lon="5.06591">
        <ele>351.76</ele>
        <time>2022-06-09T07:24:06Z</time>
      </trkpt>
      <trkpt lat="47.67311" lon="5.06593">
        <ele>351.91</ele>
        <time>2022-06-09T07:24:07Z</time>
      </trkpt>
      <trkpt lat="47.67308" lon="5.06596">
        <ele>352.18</ele>
        <time>2022-06-09T07:24:10Z</time>
      </trkpt>
      <trkpt lat="47.67306" lon="5.06598">
        <ele>352.39</ele>
        <time>2022-06-09T07:24:12Z</time>
      </trkpt>
      <trkpt lat="47.67303" lon="5.06602">
        <ele>352.83</ele>
        <time>2022-06-09T07:24:15Z</time>
      </trkpt>
      <trkpt lat="47.67301" lon="5.06604">
        <ele>352.8</ele>
        <time>2022-06-09T07:24:16Z</time>
      </trkpt>
      <trkpt lat="47.67298" lon="5.06607">
        <ele>352.69</ele>
        <time>2022-06-09T07:24:17Z</time>
      </trkpt>
      <trkpt lat="47.67296" lon="5.0661">
        <ele>352.87</ele>
        <time>2022-06-09T07:24:20Z</time>
      </trkpt>
      <trkpt lat="47.67293" lon="5.06612">
        <ele>352.29</ele>
        <time>2022-06-09T07:24:22Z</time>
      </trkpt>
      <trkpt lat="47.6729" lon="5.06614">
        <ele>351.76</ele>
        <time>2022-06-09T07:24:26Z</time>
      </trkpt>
      <trkpt lat="47.67288" lon="5.06617">
        <ele>351.99</ele>
        <time>2022-06-09T07:24:27Z</time>
      </trkpt>
      <trkpt lat="47.67285" lon="5.06619">
        <ele>351.61</ele>
        <time>2022-06-09T07:24:29Z</time>
      </trkpt>
      <trkpt lat="47.67283" lon="5.06622">
        <ele>352.01</ele>
        <time>2022-06-09T07:24:33Z</time>
      </trkpt>
      <trkpt lat="47.6728" lon="5.06624">
        <ele>351.8</ele>
        <time>2022-06-09T07:24:35Z</time>
      </trkpt>
      <trkpt lat="47.67278" lon="5.06626">
        <ele>351.96</ele>
        <time>2022-06-09T07:24:38Z</time>
      </trkpt>
      <trkpt lat="47.67275" lon="5.06629">
        <ele>352.3</ele>
        <time>2022-06-09T07:24:40Z</time>
      </trkpt>
      <trkpt lat="47.67273" lon="5.06632">
        <ele>352.81</ele>
        <time>2022-06-09T07:24:42Z</time>
      </trkpt>
      <trkpt lat="47.6727" lon="5.06634">
        <ele>352.56</ele>
        <time>2022-06-09T07:24:45Z</time>
      </trkpt>
      <trkpt lat="47.67268" lon="5.06637">
        <ele>352.88</ele>
        <time>2022-06-09T07:24:47Z</time>
      </trkpt>
      <trkpt lat="47.67265" lon="5.06639">
        <ele>352.44</ele>
        <time>2022-06-09T07:24:48Z</time>
      </trkpt>
      <trkpt lat="47.67263" lon="5.06642">
        <ele>352.86</ele>
        <time>2022-06-09T07:24:50Z</time>
      </trkpt>
      <trkpt lat="47.67261" lon="5.06645">
        <ele>353.29</ele>
        <time>2022-06-09T07:24:52Z</time>
      </trkpt>
      <trkpt lat="47.67258" lon="5.06649">
        <ele>353.78</ele>
        <time>2022-06-09T07:24:54Z</time>
      </trkpt>
      <trkpt lat="47.67256" lon="5.06652">
        <ele>354.25</ele>
        <time>2022-06-09T07:24:56Z</time>
      </trkpt>
      <trkpt lat="47.67253" lon="5.06655">
        <ele>354.4</ele>
        <time>2022-06-09T07:25:00Z</time>
      </trkpt>
      <trkpt lat="47.67251" lon="5.06657">
        <ele>354.51</ele>
        <time>2022-06-09T07:25:02Z</time>
      </trkpt>
      <trkpt lat="47.67248" lon="5.06659">
        <ele>354.54</ele>
        <time>2022-06-09T07:25:05Z</time>
      </trkpt>
      <trkpt lat="47.67244" lon="5.06661">
        <ele>354.42</ele>
        <time>2022-06-09T07:25:07Z</time>
      </trkpt>
      <trkpt lat="47.67241" lon="5.06664">
        <ele>354.8</ele>
        <time>2022-06-09T07:25:08Z</time>
      </trkpt>
      <trkpt lat="47.67238" lon="5.06666">
        <ele>354.75</ele>
        <time>2022-06-09T07:25:10Z</time>
      </trkpt>
      <trkpt lat="47.67236" lon="5.06668">
        <ele>354.78</ele>
        <time>2022-06-09T07:25:14Z</time>
      </trkpt>
      <trkpt lat="47.67233" lon="5.0667">
        <ele>354.43</ele>
        <time>2022-06-09T07:25:16Z</time>
      </trkpt>
      <trkpt lat="47.6723" lon="5.06673">
        <ele>354.19</ele>
        <time>2022-06-09T07:25:18Z</time>
      </trkpt>
      <trkpt lat="47.67227" lon="5.06675">
        <ele>353.66</ele>
        <time>2022-06-09T07:25:20Z</time>
      </trkpt>
      <trkpt lat="47.67225" lon="5.06676">
        <ele>353.21</ele>
        <time>2022-06-09T07:25:22Z</time>
      </trkpt>
      <trkpt lat="47.67221" lon="5.06677">
        <ele>352.4</ele>
        <time>2022-06-09T07:25:24Z</time>
      </trkpt>
      <trkpt lat="47.67218" lon="5.06678">
        <ele>352.33</ele>
        <time>2022-06-09T07:25:26Z</time>
      </trkpt>
      <trkpt lat="47.67216" lon="5.06679">
        <ele>352.33</ele>
        <time>2022-06-09T07:25:28Z</time>
      </trkpt>
      <trkpt lat="47.67212" lon="5.06681">
        <ele>352.33</ele>
        <time>2022-06-09T07:25:30Z</time>
      </trkpt>
      <trkpt lat="47.6721" lon="5.06682">
        <ele>352.33</ele>
        <time>2022-06-09T07:25:32Z</time>
      </trkpt>
      <trkpt lat="47.67207" lon="5.06683">
        <ele>352.26</ele>
        <time>2022-06-09T07:25:34Z</time>
      </trkpt>
      <trkpt lat="47.67204" lon="5.06684">
        <ele>352.18</ele>
        <time>2022-06-09T07:25:37Z</time>
      </trkpt>
      <trkpt lat="47.67201" lon="5.06686">
        <ele>352.26</ele>
        <time>2022-06-09T07:25:39Z</time>
      </trkpt>
      <trkpt lat="47.67198" lon="5.06687">
        <ele>352.18</ele>
        <time>2022-06-09T07:25:41Z</time>
      </trkpt>
      <trkpt lat="47.67195" lon="5.06689">
        <ele>352.26</ele>
        <time>2022-06-09T07:25:43Z</time>
      </trkpt>
      <trkpt lat="47.67192" lon="5.0669">
        <ele>351.93</ele>
        <time>2022-06-09T07:25:45Z</time>
      </trkpt>
      <trkpt lat="47.67189" lon="5.06691">
        <ele>351.55</ele>
        <time>2022-06-09T07:25:47Z</time>
      </trkpt>
      <trkpt lat="47.67186" lon="5.06693">
        <ele>351.29</ele>
        <time>2022-06-09T07:25:50Z</time>
      </trkpt>
      <trkpt lat="47.67182" lon="5.06694">
        <ele>350.7</ele>
        <time>2022-06-09T07:25:53Z</time>
      </trkpt>
      <trkpt lat="47.67178" lon="5.06696">
        <ele>350.23</ele>
        <time>2022-06-09T07:25:55Z</time>
      </trkpt>
      <trkpt lat="47.67175" lon="5.06697">
        <ele>349.8</ele>
        <time>2022-06-09T07:25:56Z</time>
      </trkpt>
      <trkpt lat="47.67172" lon="5.06698">
        <ele>349.37</ele>
        <time>2022-06-09T07:25:57Z</time>
      </trkpt>
      <trkpt lat="47.67169" lon="5.06699">
        <ele>348.93</ele>
        <time>2022-06-09T07:25:59Z</time>
      </trkpt>
      <trkpt lat="47.67166" lon="5.06701">
        <ele>348.62</ele>
        <time>2022-06-09T07:26:02Z</time>
      </trkpt>
      <trkpt lat="47.67163" lon="5.06702">
        <ele>348.31</ele>
        <time>2022-06-09T07:26:05Z</time>
      </trkpt>
      <trkpt lat="47.67159" lon="5.06705">
        <ele>348</ele>
        <time>2022-06-09T07:26:07Z</time>
      </trkpt>
      <trkpt lat="47.67156" lon="5.06706">
        <ele>347.62</ele>
        <time>2022-06-09T07:26:08Z</time>
      </trkpt>
      <trkpt lat="47.67152" lon="5.06707">
        <ele>347.06</ele>
        <time>2022-06-09T07:26:11Z</time>
      </trkpt>
      <trkpt lat="47.67149" lon="5.06707">
        <ele>346.59</ele>
        <time>2022-06-09T07:26:12Z</time>
      </trkpt>
      <trkpt lat="47.67146" lon="5.06708">
        <ele>346.14</ele>
        <time>2022-06-09T07:26:13Z</time>
      </trkpt>
      <trkpt lat="47.67142" lon="5.06709">
        <ele>345.51</ele>
        <time>2022-06-09T07:26:17Z</time>
      </trkpt>
      <trkpt lat="47.67138" lon="5.06711">
        <ele>344.91</ele>
        <time>2022-06-09T07:26:17Z</time>
      </trkpt>
      <trkpt lat="47.67135" lon="5.06713">
        <ele>344.63</ele>
        <time>2022-06-09T07:26:19Z</time>
      </trkpt>
      <trkpt lat="47.67132" lon="5.06714">
        <ele>344.36</ele>
        <time>2022-06-09T07:26:21Z</time>
      </trkpt>
      <trkpt lat="47.67129" lon="5.06716">
        <ele>344.13</ele>
        <time>2022-06-09T07:26:22Z</time>
      </trkpt>
      <trkpt lat="47.67127" lon="5.06719">
        <ele>344.04</ele>
        <time>2022-06-09T07:26:23Z</time>
      </trkpt>
      <trkpt lat="47.67124" lon="5.06721">
        <ele>343.88</ele>
        <time>2022-06-09T07:26:25Z</time>
      </trkpt>
      <trkpt lat="47.67122" lon="5.06724">
        <ele>343.96</ele>
        <time>2022-06-09T07:26:28Z</time>
      </trkpt>
      <trkpt lat="47.6712" lon="5.06727">
        <ele>344.09</ele>
        <time>2022-06-09T07:26:31Z</time>
      </trkpt>
      <trkpt lat="47.67118" lon="5.0673">
        <ele>344.19</ele>
        <time>2022-06-09T07:26:33Z</time>
      </trkpt>
      <trkpt lat="47.67116" lon="5.06733">
        <ele>344.26</ele>
        <time>2022-06-09T07:26:36Z</time>
      </trkpt>
      <trkpt lat="47.67114" lon="5.06737">
        <ele>344.38</ele>
        <time>2022-06-09T07:26:40Z</time>
      </trkpt>
      <trkpt lat="47.67112" lon="5.0674">
        <ele>344.38</ele>
        <time>2022-06-09T07:26:42Z</time>
      </trkpt>
      <trkpt lat="47.6711" lon="5.06743">
        <ele>344.44</ele>
        <time>2022-06-09T07:26:45Z</time>
      </trkpt>
      <trkpt lat="47.67107" lon="5.06745">
        <ele>344.44</ele>
        <time>2022-06-09T07:26:47Z</time>
      </trkpt>
      <trkpt lat="47.67104" lon="5.06748">
        <ele>344.56</ele>
        <time>2022-06-09T07:26:49Z</time>
      </trkpt>
      <trkpt lat="47.67102" lon="5.0675">
        <ele>344.67</ele>
        <time>2022-06-09T07:26:52Z</time>
      </trkpt>
      <trkpt lat="47.67099" lon="5.06751">
        <ele>344.75</ele>
        <time>2022-06-09T07:26:53Z</time>
      </trkpt>
      <trkpt lat="47.67096" lon="5.06753">
        <ele>344.99</ele>
        <time>2022-06-09T07:26:55Z</time>
      </trkpt>
      <trkpt lat="47.67094" lon="5.06755">
        <ele>345.24</ele>
        <time>2022-06-09T07:26:57Z</time>
      </trkpt>
      <trkpt lat="47.67091" lon="5.06758">
        <ele>345.59</ele>
        <time>2022-06-09T07:26:59Z</time>
      </trkpt>
      <trkpt lat="47.67089" lon="5.0676">
        <ele>345.79</ele>
        <time>2022-06-09T07:27:02Z</time>
      </trkpt>
      <trkpt lat="47.67086" lon="5.06764">
        <ele>346.21</ele>
        <time>2022-06-09T07:27:07Z</time>
      </trkpt>
      <trkpt lat="47.67084" lon="5.06767">
        <ele>346.5</ele>
        <time>2022-06-09T07:27:09Z</time>
      </trkpt>
      <trkpt lat="47.67082" lon="5.06769">
        <ele>346.4</ele>
        <time>2022-06-09T07:27:10Z</time>
      </trkpt>
      <trkpt lat="47.67079" lon="5.06772">
        <ele>346.02</ele>
        <time>2022-06-09T07:27:14Z</time>
      </trkpt>
      <trkpt lat="47.67077" lon="5.06775">
        <ele>345.84</ele>
        <time>2022-06-09T07:27:15Z</time>
      </trkpt>
      <trkpt lat="47.67074" lon="5.06777">
        <ele>345.23</ele>
        <time>2022-06-09T07:27:17Z</time>
      </trkpt>
      <trkpt lat="47.67071" lon="5.06779">
        <ele>344.62</ele>
        <time>2022-06-09T07:27:19Z</time>
      </trkpt>
      <trkpt lat="47.67068" lon="5.0678">
        <ele>343.9</ele>
        <time>2022-06-09T07:27:20Z</time>
      </trkpt>
      <trkpt lat="47.67066" lon="5.06782">
        <ele>343.62</ele>
        <time>2022-06-09T07:27:23Z</time>
      </trkpt>
      <trkpt lat="47.67063" lon="5.06784">
        <ele>343.04</ele>
        <time>2022-06-09T07:27:26Z</time>
      </trkpt>
      <trkpt lat="47.6706" lon="5.06786">
        <ele>342.46</ele>
        <time>2022-06-09T07:27:28Z</time>
      </trkpt>
      <trkpt lat="47.67058" lon="5.06789">
        <ele>342.32</ele>
        <time>2022-06-09T07:27:31Z</time>
      </trkpt>
      <trkpt lat="47.67056" lon="5.06792">
        <ele>342.18</ele>
        <time>2022-06-09T07:27:35Z</time>
      </trkpt>
      <trkpt lat="47.67053" lon="5.06795">
        <ele>342</ele>
        <time>2022-06-09T07:27:37Z</time>
      </trkpt>
      <trkpt lat="47.6705" lon="5.06797">
        <ele>341.69</ele>
        <time>2022-06-09T07:27:39Z</time>
      </trkpt>
      <trkpt lat="47.67047" lon="5.068">
        <ele>341.48</ele>
        <time>2022-06-09T07:27:41Z</time>
      </trkpt>
      <trkpt lat="47.67045" lon="5.06802">
        <ele>341.31</ele>
        <time>2022-06-09T07:27:44Z</time>
      </trkpt>
      <trkpt lat="47.67043" lon="5.06805">
        <ele>341.23</ele>
        <time>2022-06-09T07:27:46Z</time>
      </trkpt>
      <trkpt lat="47.6704" lon="5.06807">
        <ele>340.95</ele>
        <time>2022-06-09T07:27:49Z</time>
      </trkpt>
      <trkpt lat="47.67038" lon="5.06809">
        <ele>340.92</ele>
        <time>2022-06-09T07:27:52Z</time>
      </trkpt>
      <trkpt lat="47.67035" lon="5.06812">
        <ele>340.84</ele>
        <time>2022-06-09T07:27:54Z</time>
      </trkpt>
      <trkpt lat="47.67032" lon="5.06816">
        <ele>340.91</ele>
        <time>2022-06-09T07:28:00Z</time>
      </trkpt>
      <trkpt lat="47.6703" lon="5.06818">
        <ele>340.79</ele>
        <time>2022-06-09T07:28:01Z</time>
      </trkpt>
      <trkpt lat="47.67027" lon="5.0682">
        <ele>340.45</ele>
        <time>2022-06-09T07:28:06Z</time>
      </trkpt>
      <trkpt lat="47.67024" lon="5.06821">
        <ele>340.02</ele>
        <time>2022-06-09T07:28:11Z</time>
      </trkpt>
      <trkpt lat="47.67021" lon="5.06822">
        <ele>339.6</ele>
        <time>2022-06-09T07:28:15Z</time>
      </trkpt>
      <trkpt lat="47.67019" lon="5.06824">
        <ele>339.53</ele>
        <time>2022-06-09T07:28:20Z</time>
      </trkpt>
      <trkpt lat="47.67016" lon="5.06826">
        <ele>339.25</ele>
        <time>2022-06-09T07:30:18Z</time>
      </trkpt>
      <trkpt lat="47.67013" lon="5.06828">
        <ele>338.95</ele>
        <time>2022-06-09T07:30:31Z</time>
      </trkpt>
      <trkpt lat="47.67012" lon="5.06832">
        <ele>339.38</ele>
        <time>2022-06-09T07:30:37Z</time>
      </trkpt>
      <trkpt lat="47.6701" lon="5.06835">
        <ele>339.42</ele>
        <time>2022-06-09T07:30:43Z</time>
      </trkpt>
      <trkpt lat="47.67008" lon="5.06839">
        <ele>339.6</ele>
        <time>2022-06-09T07:30:46Z</time>
      </trkpt>
      <trkpt lat="47.67007" lon="5.06842">
        <ele>339.84</ele>
        <time>2022-06-09T07:30:50Z</time>
      </trkpt>
      <trkpt lat="47.67004" lon="5.06845">
        <ele>339.6</ele>
        <time>2022-06-09T07:30:55Z</time>
      </trkpt>
      <trkpt lat="47.67002" lon="5.06848">
        <ele>339.58</ele>
        <time>2022-06-09T07:30:58Z</time>
      </trkpt>
      <trkpt lat="47.66999" lon="5.06849">
        <ele>339.26</ele>
        <time>2022-06-09T07:31:02Z</time>
      </trkpt>
      <trkpt lat="47.66996" lon="5.06851">
        <ele>339.54</ele>
        <time>2022-06-09T07:31:05Z</time>
      </trkpt>
      <trkpt lat="47.66994" lon="5.06855">
        <ele>340.12</ele>
        <time>2022-06-09T07:31:08Z</time>
      </trkpt>
      <trkpt lat="47.66991" lon="5.06857">
        <ele>340.41</ele>
        <time>2022-06-09T07:31:10Z</time>
      </trkpt>
      <trkpt lat="47.66989" lon="5.0686">
        <ele>340.84</ele>
        <time>2022-06-09T07:31:15Z</time>
      </trkpt>
      <trkpt lat="47.66986" lon="5.06862">
        <ele>341.08</ele>
        <time>2022-06-09T07:31:18Z</time>
      </trkpt>
      <trkpt lat="47.66984" lon="5.06864">
        <ele>341.27</ele>
        <time>2022-06-09T07:31:19Z</time>
      </trkpt>
      <trkpt lat="47.66981" lon="5.06866">
        <ele>341.47</ele>
        <time>2022-06-09T07:31:22Z</time>
      </trkpt>
      <trkpt lat="47.66979" lon="5.06868">
        <ele>341.68</ele>
        <time>2022-06-09T07:31:26Z</time>
      </trkpt>
      <trkpt lat="47.66976" lon="5.06871">
        <ele>342.02</ele>
        <time>2022-06-09T07:31:29Z</time>
      </trkpt>
      <trkpt lat="47.66973" lon="5.06874">
        <ele>342.38</ele>
        <time>2022-06-09T07:31:33Z</time>
      </trkpt>
      <trkpt lat="47.6697" lon="5.06876">
        <ele>342.53</ele>
        <time>2022-06-09T07:31:35Z</time>
      </trkpt>
      <trkpt lat="47.66967" lon="5.06879">
        <ele>342.74</ele>
        <time>2022-06-09T07:31:37Z</time>
      </trkpt>
      <trkpt lat="47.66965" lon="5.0688">
        <ele>342.78</ele>
        <time>2022-06-09T07:31:40Z</time>
      </trkpt>
      <trkpt lat="47.66962" lon="5.06881">
        <ele>342.78</ele>
        <time>2022-06-09T07:31:44Z</time>
      </trkpt>
      <trkpt lat="47.66959" lon="5.06883">
        <ele>342.89</ele>
        <time>2022-06-09T07:31:46Z</time>
      </trkpt>
      <trkpt lat="47.66957" lon="5.06885">
        <ele>343.03</ele>
        <time>2022-06-09T07:31:48Z</time>
      </trkpt>
      <trkpt lat="47.66954" lon="5.06888">
        <ele>343.25</ele>
        <time>2022-06-09T07:31:50Z</time>
      </trkpt>
      <trkpt lat="47.66951" lon="5.06891">
        <ele>343.37</ele>
        <time>2022-06-09T07:31:52Z</time>
      </trkpt>
      <trkpt lat="47.66948" lon="5.06893">
        <ele>343.41</ele>
        <time>2022-06-09T07:31:55Z</time>
      </trkpt>
      <trkpt lat="47.66946" lon="5.06896">
        <ele>343.55</ele>
        <time>2022-06-09T07:31:58Z</time>
      </trkpt>
      <trkpt lat="47.66943" lon="5.06898">
        <ele>343.52</ele>
        <time>2022-06-09T07:32:02Z</time>
      </trkpt>
      <trkpt lat="47.6694" lon="5.069">
        <ele>343.38</ele>
        <time>2022-06-09T07:32:05Z</time>
      </trkpt>
      <trkpt lat="47.66938" lon="5.06902">
        <ele>343.36</ele>
        <time>2022-06-09T07:32:08Z</time>
      </trkpt>
      <trkpt lat="47.66936" lon="5.06905">
        <ele>343.42</ele>
        <time>2022-06-09T07:32:11Z</time>
      </trkpt>
      <trkpt lat="47.66933" lon="5.06907">
        <ele>343.34</ele>
        <time>2022-06-09T07:32:13Z</time>
      </trkpt>
      <trkpt lat="47.66931" lon="5.0691">
        <ele>343.44</ele>
        <time>2022-06-09T07:32:14Z</time>
      </trkpt>
      <trkpt lat="47.66929" lon="5.06912">
        <ele>343.46</ele>
        <time>2022-06-09T07:32:18Z</time>
      </trkpt>
      <trkpt lat="47.66926" lon="5.06915">
        <ele>343.51</ele>
        <time>2022-06-09T07:32:20Z</time>
      </trkpt>
      <trkpt lat="47.66923" lon="5.06917">
        <ele>343.49</ele>
        <time>2022-06-09T07:32:23Z</time>
      </trkpt>
      <trkpt lat="47.6692" lon="5.06919">
        <ele>343.48</ele>
        <time>2022-06-09T07:32:26Z</time>
      </trkpt>
      <trkpt lat="47.66918" lon="5.06922">
        <ele>343.66</ele>
        <time>2022-06-09T07:32:28Z</time>
      </trkpt>
      <trkpt lat="47.66915" lon="5.06925">
        <ele>343.62</ele>
        <time>2022-06-09T07:32:30Z</time>
      </trkpt>
      <trkpt lat="47.66913" lon="5.06927">
        <ele>343.51</ele>
        <time>2022-06-09T07:32:34Z</time>
      </trkpt>
      <trkpt lat="47.66911" lon="5.0693">
        <ele>343.52</ele>
        <time>2022-06-09T07:32:36Z</time>
      </trkpt>
      <trkpt lat="47.66908" lon="5.06932">
        <ele>343.27</ele>
        <time>2022-06-09T07:32:41Z</time>
      </trkpt>
      <trkpt lat="47.66906" lon="5.06935">
        <ele>343.31</ele>
        <time>2022-06-09T07:32:44Z</time>
      </trkpt>
      <trkpt lat="47.66903" lon="5.06938">
        <ele>343.22</ele>
        <time>2022-06-09T07:32:51Z</time>
      </trkpt>
      <trkpt lat="47.669" lon="5.0694">
        <ele>343.02</ele>
        <time>2022-06-09T07:32:54Z</time>
      </trkpt>
      <trkpt lat="47.66898" lon="5.06942">
        <ele>342.99</ele>
        <time>2022-06-09T07:32:58Z</time>
      </trkpt>
      <trkpt lat="47.66895" lon="5.06943">
        <ele>342.68</ele>
        <time>2022-06-09T07:33:01Z</time>
      </trkpt>
      <trkpt lat="47.66893" lon="5.06945">
        <ele>342.67</ele>
        <time>2022-06-09T07:33:04Z</time>
      </trkpt>
      <trkpt lat="47.6689" lon="5.06947">
        <ele>342.52</ele>
        <time>2022-06-09T07:33:08Z</time>
      </trkpt>
      <trkpt lat="47.66888" lon="5.06949">
        <ele>342.54</ele>
        <time>2022-06-09T07:33:11Z</time>
      </trkpt>
      <trkpt lat="47.66885" lon="5.06952">
        <ele>342.64</ele>
        <time>2022-06-09T07:33:15Z</time>
      </trkpt>
      <trkpt lat="47.66882" lon="5.06954">
        <ele>342.64</ele>
        <time>2022-06-09T07:33:17Z</time>
      </trkpt>
      <trkpt lat="47.66879" lon="5.06958">
        <ele>343.05</ele>
        <time>2022-06-09T07:33:21Z</time>
      </trkpt>
      <trkpt lat="47.66877" lon="5.0696">
        <ele>343.25</ele>
        <time>2022-06-09T07:33:24Z</time>
      </trkpt>
      <trkpt lat="47.66875" lon="5.06963">
        <ele>343.67</ele>
        <time>2022-06-09T07:33:29Z</time>
      </trkpt>
      <trkpt lat="47.66872" lon="5.06965">
        <ele>343.88</ele>
        <time>2022-06-09T07:33:33Z</time>
      </trkpt>
      <trkpt lat="47.66869" lon="5.06966">
        <ele>343.91</ele>
        <time>2022-06-09T07:33:36Z</time>
      </trkpt>
      <trkpt lat="47.66866" lon="5.06968">
        <ele>344.19</ele>
        <time>2022-06-09T07:33:39Z</time>
      </trkpt>
      <trkpt lat="47.66864" lon="5.0697">
        <ele>344.57</ele>
        <time>2022-06-09T07:33:42Z</time>
      </trkpt>
      <trkpt lat="47.66861" lon="5.06973">
        <ele>345.17</ele>
        <time>2022-06-09T07:33:44Z</time>
      </trkpt>
      <trkpt lat="47.66858" lon="5.06975">
        <ele>345.66</ele>
        <time>2022-06-09T07:33:47Z</time>
      </trkpt>
      <trkpt lat="47.66855" lon="5.06977">
        <ele>346.06</ele>
        <time>2022-06-09T07:33:51Z</time>
      </trkpt>
      <trkpt lat="47.66852" lon="5.06978">
        <ele>346.23</ele>
        <time>2022-06-09T07:33:52Z</time>
      </trkpt>
      <trkpt lat="47.66849" lon="5.0698">
        <ele>346.51</ele>
        <time>2022-06-09T07:33:55Z</time>
      </trkpt>
      <trkpt lat="47.66846" lon="5.06982">
        <ele>346.7</ele>
        <time>2022-06-09T07:33:59Z</time>
      </trkpt>
      <trkpt lat="47.66843" lon="5.06984">
        <ele>346.81</ele>
        <time>2022-06-09T07:34:02Z</time>
      </trkpt>
      <trkpt lat="47.6684" lon="5.06985">
        <ele>346.77</ele>
        <time>2022-06-09T07:34:04Z</time>
      </trkpt>
      <trkpt lat="47.66837" lon="5.06987">
        <ele>346.75</ele>
        <time>2022-06-09T07:34:07Z</time>
      </trkpt>
      <trkpt lat="47.66834" lon="5.06989">
        <ele>346.65</ele>
        <time>2022-06-09T07:34:09Z</time>
      </trkpt>
      <trkpt lat="47.66832" lon="5.0699">
        <ele>346.52</ele>
        <time>2022-06-09T07:34:10Z</time>
      </trkpt>
      <trkpt lat="47.66829" lon="5.06992">
        <ele>346.4</ele>
        <time>2022-06-09T07:34:11Z</time>
      </trkpt>
      <trkpt lat="47.66826" lon="5.06994">
        <ele>346.38</ele>
        <time>2022-06-09T07:34:14Z</time>
      </trkpt>
      <trkpt lat="47.66823" lon="5.06996">
        <ele>346.48</ele>
        <time>2022-06-09T07:34:18Z</time>
      </trkpt>
      <trkpt lat="47.6682" lon="5.06997">
        <ele>346.53</ele>
        <time>2022-06-09T07:34:20Z</time>
      </trkpt>
      <trkpt lat="47.66817" lon="5.06998">
        <ele>346.63</ele>
        <time>2022-06-09T07:34:23Z</time>
      </trkpt>
      <trkpt lat="47.66815" lon="5.06998">
        <ele>346.6</ele>
        <time>2022-06-09T07:34:25Z</time>
      </trkpt>
      <trkpt lat="47.66812" lon="5.06999">
        <ele>346.77</ele>
        <time>2022-06-09T07:34:28Z</time>
      </trkpt>
      <trkpt lat="47.66808" lon="5.07">
        <ele>347</ele>
        <time>2022-06-09T07:34:29Z</time>
      </trkpt>
      <trkpt lat="47.66806" lon="5.07002">
        <ele>347.36</ele>
        <time>2022-06-09T07:34:31Z</time>
      </trkpt>
      <trkpt lat="47.66804" lon="5.07005">
        <ele>347.81</ele>
        <time>2022-06-09T07:34:34Z</time>
      </trkpt>
      <trkpt lat="47.66802" lon="5.07009">
        <ele>348.37</ele>
        <time>2022-06-09T07:34:38Z</time>
      </trkpt>
      <trkpt lat="47.66799" lon="5.07011">
        <ele>348.46</ele>
        <time>2022-06-09T07:34:39Z</time>
      </trkpt>
      <trkpt lat="47.66797" lon="5.07012">
        <ele>348.45</ele>
        <time>2022-06-09T07:34:43Z</time>
      </trkpt>
      <trkpt lat="47.66794" lon="5.07013">
        <ele>348.34</ele>
        <time>2022-06-09T07:34:45Z</time>
      </trkpt>
      <trkpt lat="47.66791" lon="5.07015">
        <ele>348.33</ele>
        <time>2022-06-09T07:34:48Z</time>
      </trkpt>
      <trkpt lat="47.66788" lon="5.07017">
        <ele>348.27</ele>
        <time>2022-06-09T07:34:51Z</time>
      </trkpt>
      <trkpt lat="47.66785" lon="5.07019">
        <ele>348.16</ele>
        <time>2022-06-09T07:34:54Z</time>
      </trkpt>
      <trkpt lat="47.66782" lon="5.07022">
        <ele>348.1</ele>
        <time>2022-06-09T07:34:56Z</time>
      </trkpt>
      <trkpt lat="47.6678" lon="5.07024">
        <ele>348.02</ele>
        <time>2022-06-09T07:34:57Z</time>
      </trkpt>
      <trkpt lat="47.66778" lon="5.07026">
        <ele>347.9</ele>
        <time>2022-06-09T07:35:00Z</time>
      </trkpt>
      <trkpt lat="47.66775" lon="5.07029">
        <ele>347.66</ele>
        <time>2022-06-09T07:35:03Z</time>
      </trkpt>
      <trkpt lat="47.66773" lon="5.07031">
        <ele>347.66</ele>
        <time>2022-06-09T07:35:07Z</time>
      </trkpt>
      <trkpt lat="47.6677" lon="5.07034">
        <ele>347.66</ele>
        <time>2022-06-09T07:35:09Z</time>
      </trkpt>
      <trkpt lat="47.66767" lon="5.07036">
        <ele>347.45</ele>
        <time>2022-06-09T07:35:12Z</time>
      </trkpt>
      <trkpt lat="47.66765" lon="5.07037">
        <ele>347.23</ele>
        <time>2022-06-09T07:35:16Z</time>
      </trkpt>
      <trkpt lat="47.66762" lon="5.07038">
        <ele>346.8</ele>
        <time>2022-06-09T07:35:18Z</time>
      </trkpt>
      <trkpt lat="47.66759" lon="5.07039">
        <ele>346.37</ele>
        <time>2022-06-09T07:35:21Z</time>
      </trkpt>
      <trkpt lat="47.66756" lon="5.07041">
        <ele>346.15</ele>
        <time>2022-06-09T07:35:22Z</time>
      </trkpt>
      <trkpt lat="47.66753" lon="5.07042">
        <ele>345.72</ele>
        <time>2022-06-09T07:35:26Z</time>
      </trkpt>
      <trkpt lat="47.66749" lon="5.07044">
        <ele>345.32</ele>
        <time>2022-06-09T07:35:29Z</time>
      </trkpt>
      <trkpt lat="47.66745" lon="5.07044">
        <ele>344.6</ele>
        <time>2022-06-09T07:35:31Z</time>
      </trkpt>
      <trkpt lat="47.66742" lon="5.07045">
        <ele>344.28</ele>
        <time>2022-06-09T07:35:34Z</time>
      </trkpt>
      <trkpt lat="47.66739" lon="5.07045">
        <ele>343.74</ele>
        <time>2022-06-09T07:35:36Z</time>
      </trkpt>
      <trkpt lat="47.66736" lon="5.07046">
        <ele>343.42</ele>
        <time>2022-06-09T07:35:37Z</time>
      </trkpt>
      <trkpt lat="47.66733" lon="5.07047">
        <ele>343.09</ele>
        <time>2022-06-09T07:35:41Z</time>
      </trkpt>
      <trkpt lat="47.6673" lon="5.07047">
        <ele>342.55</ele>
        <time>2022-06-09T07:35:41Z</time>
      </trkpt>
      <trkpt lat="47.66727" lon="5.07048">
        <ele>342.23</ele>
        <time>2022-06-09T07:35:44Z</time>
      </trkpt>
      <trkpt lat="47.66724" lon="5.07049">
        <ele>341.9</ele>
        <time>2022-06-09T07:35:46Z</time>
      </trkpt>
      <trkpt lat="47.66721" lon="5.0705">
        <ele>341.62</ele>
        <time>2022-06-09T07:35:50Z</time>
      </trkpt>
      <trkpt lat="47.66718" lon="5.07052">
        <ele>341.55</ele>
        <time>2022-06-09T07:35:54Z</time>
      </trkpt>
      <trkpt lat="47.66714" lon="5.07053">
        <ele>341.08</ele>
        <time>2022-06-09T07:35:57Z</time>
      </trkpt>
      <trkpt lat="47.66711" lon="5.07053">
        <ele>340.58</ele>
        <time>2022-06-09T07:35:59Z</time>
      </trkpt>
      <trkpt lat="47.66709" lon="5.07053">
        <ele>340.24</ele>
        <time>2022-06-09T07:36:03Z</time>
      </trkpt>
      <trkpt lat="47.66705" lon="5.07055">
        <ele>339.83</ele>
        <time>2022-06-09T07:36:04Z</time>
      </trkpt>
      <trkpt lat="47.66702" lon="5.07057">
        <ele>339.62</ele>
        <time>2022-06-09T07:36:06Z</time>
      </trkpt>
      <trkpt lat="47.66698" lon="5.07058">
        <ele>338.98</ele>
        <time>2022-06-09T07:36:11Z</time>
      </trkpt>
      <trkpt lat="47.66695" lon="5.07058">
        <ele>338.38</ele>
        <time>2022-06-09T07:36:14Z</time>
      </trkpt>
      <trkpt lat="47.66692" lon="5.07059">
        <ele>338.5</ele>
        <time>2022-06-09T07:36:17Z</time>
      </trkpt>
      <trkpt lat="47.66689" lon="5.0706">
        <ele>338.75</ele>
        <time>2022-06-09T07:36:20Z</time>
      </trkpt>
      <trkpt lat="47.66686" lon="5.07061">
        <ele>338.96</ele>
        <time>2022-06-09T07:36:24Z</time>
      </trkpt>
      <trkpt lat="47.66683" lon="5.07062">
        <ele>339.14</ele>
        <time>2022-06-09T07:36:27Z</time>
      </trkpt>
      <trkpt lat="47.6668" lon="5.07064">
        <ele>339.32</ele>
        <time>2022-06-09T07:36:30Z</time>
      </trkpt>
      <trkpt lat="47.66677" lon="5.07066">
        <ele>339.44</ele>
        <time>2022-06-09T07:36:33Z</time>
      </trkpt>
      <trkpt lat="47.66674" lon="5.07068">
        <ele>339.5</ele>
        <time>2022-06-09T07:36:36Z</time>
      </trkpt>
      <trkpt lat="47.66672" lon="5.07069">
        <ele>339.5</ele>
        <time>2022-06-09T07:36:39Z</time>
      </trkpt>
      <trkpt lat="47.66669" lon="5.0707">
        <ele>339.49</ele>
        <time>2022-06-09T07:36:41Z</time>
      </trkpt>
      <trkpt lat="47.66666" lon="5.07072">
        <ele>339.38</ele>
        <time>2022-06-09T07:36:44Z</time>
      </trkpt>
      <trkpt lat="47.66664" lon="5.07075">
        <ele>339.2</ele>
        <time>2022-06-09T07:36:49Z</time>
      </trkpt>
      <trkpt lat="47.6666" lon="5.07078">
        <ele>338.95</ele>
        <time>2022-06-09T07:36:53Z</time>
      </trkpt>
      <trkpt lat="47.66658" lon="5.07079">
        <ele>338.84</ele>
        <time>2022-06-09T07:36:54Z</time>
      </trkpt>
      <trkpt lat="47.66655" lon="5.07081">
        <ele>338.66</ele>
        <time>2022-06-09T07:36:58Z</time>
      </trkpt>
      <trkpt lat="47.66652" lon="5.07082">
        <ele>338.52</ele>
        <time>2022-06-09T07:37:00Z</time>
      </trkpt>
      <trkpt lat="47.6665" lon="5.07084">
        <ele>338.51</ele>
        <time>2022-06-09T07:37:03Z</time>
      </trkpt>
      <trkpt lat="47.66647" lon="5.07087">
        <ele>338.91</ele>
        <time>2022-06-09T07:37:08Z</time>
      </trkpt>
      <trkpt lat="47.66645" lon="5.07089">
        <ele>339.2</ele>
        <time>2022-06-09T07:37:13Z</time>
      </trkpt>
      <trkpt lat="47.66642" lon="5.07092">
        <ele>339.64</ele>
        <time>2022-06-09T07:37:15Z</time>
      </trkpt>
      <trkpt lat="47.66639" lon="5.07094">
        <ele>339.92</ele>
        <time>2022-06-09T07:37:18Z</time>
      </trkpt>
      <trkpt lat="47.66637" lon="5.07095">
        <ele>340.37</ele>
        <time>2022-06-09T07:37:19Z</time>
      </trkpt>
      <trkpt lat="47.66633" lon="5.07097">
        <ele>341.31</ele>
        <time>2022-06-09T07:37:24Z</time>
      </trkpt>
      <trkpt lat="47.6663" lon="5.07099">
        <ele>342.1</ele>
        <time>2022-06-09T07:37:27Z</time>
      </trkpt>
      <trkpt lat="47.66627" lon="5.071">
        <ele>342.71</ele>
        <time>2022-06-09T07:37:30Z</time>
      </trkpt>
      <trkpt lat="47.66624" lon="5.07101">
        <ele>343.32</ele>
        <time>2022-06-09T07:37:33Z</time>
      </trkpt>
      <trkpt lat="47.66621" lon="5.07103">
        <ele>344.12</ele>
        <time>2022-06-09T07:37:36Z</time>
      </trkpt>
      <trkpt lat="47.66618" lon="5.07104">
        <ele>344.73</ele>
        <time>2022-06-09T07:37:38Z</time>
      </trkpt>
      <trkpt lat="47.66616" lon="5.07105">
        <ele>345.2</ele>
        <time>2022-06-09T07:37:41Z</time>
      </trkpt>
      <trkpt lat="47.66613" lon="5.07107">
        <ele>345.99</ele>
        <time>2022-06-09T07:37:42Z</time>
      </trkpt>
      <trkpt lat="47.6661" lon="5.07109">
        <ele>346.39</ele>
        <time>2022-06-09T07:37:47Z</time>
      </trkpt>
      <trkpt lat="47.66608" lon="5.07111">
        <ele>346.31</ele>
        <time>2022-06-09T07:37:49Z</time>
      </trkpt>
      <trkpt lat="47.66605" lon="5.07112">
        <ele>345.81</ele>
        <time>2022-06-09T07:37:50Z</time>
      </trkpt>
      <trkpt lat="47.66603" lon="5.07114">
        <ele>345.66</ele>
        <time>2022-06-09T07:37:53Z</time>
      </trkpt>
      <trkpt lat="47.666" lon="5.07116">
        <ele>345.3</ele>
        <time>2022-06-09T07:37:56Z</time>
      </trkpt>
      <trkpt lat="47.66597" lon="5.07118">
        <ele>344.94</ele>
        <time>2022-06-09T07:37:58Z</time>
      </trkpt>
      <trkpt lat="47.66594" lon="5.0712">
        <ele>344.58</ele>
        <time>2022-06-09T07:38:00Z</time>
      </trkpt>
      <trkpt lat="47.66591" lon="5.07122">
        <ele>344.22</ele>
        <time>2022-06-09T07:38:04Z</time>
      </trkpt>
      <trkpt lat="47.66589" lon="5.07125">
        <ele>344.22</ele>
        <time>2022-06-09T07:38:07Z</time>
      </trkpt>
      <trkpt lat="47.66586" lon="5.07127">
        <ele>343.86</ele>
        <time>2022-06-09T07:38:10Z</time>
      </trkpt>
      <trkpt lat="47.66584" lon="5.07129">
        <ele>343.72</ele>
        <time>2022-06-09T07:38:13Z</time>
      </trkpt>
      <trkpt lat="47.66581" lon="5.07132">
        <ele>343.63</ele>
        <time>2022-06-09T07:38:17Z</time>
      </trkpt>
      <trkpt lat="47.66579" lon="5.07134">
        <ele>343.62</ele>
        <time>2022-06-09T07:38:20Z</time>
      </trkpt>
      <trkpt lat="47.66576" lon="5.07135">
        <ele>343.31</ele>
        <time>2022-06-09T07:38:21Z</time>
      </trkpt>
      <trkpt lat="47.66574" lon="5.07137">
        <ele>343.34</ele>
        <time>2022-06-09T07:38:25Z</time>
      </trkpt>
      <trkpt lat="47.66571" lon="5.07139">
        <ele>343.24</ele>
        <time>2022-06-09T07:38:29Z</time>
      </trkpt>
      <trkpt lat="47.66568" lon="5.0714">
        <ele>342.99</ele>
        <time>2022-06-09T07:38:32Z</time>
      </trkpt>
      <trkpt lat="47.66565" lon="5.07142">
        <ele>342.92</ele>
        <time>2022-06-09T07:38:33Z</time>
      </trkpt>
      <trkpt lat="47.66563" lon="5.07144">
        <ele>342.99</ele>
        <time>2022-06-09T07:38:35Z</time>
      </trkpt>
      <trkpt lat="47.6656" lon="5.07147">
        <ele>343.1</ele>
        <time>2022-06-09T07:38:38Z</time>
      </trkpt>
      <trkpt lat="47.66557" lon="5.07149">
        <ele>343.03</ele>
        <time>2022-06-09T07:38:39Z</time>
      </trkpt>
      <trkpt lat="47.66555" lon="5.07151">
        <ele>343.13</ele>
        <time>2022-06-09T07:38:42Z</time>
      </trkpt>
      <trkpt lat="47.66551" lon="5.07153">
        <ele>343.13</ele>
        <time>2022-06-09T07:38:46Z</time>
      </trkpt>
      <trkpt lat="47.66548" lon="5.07153">
        <ele>342.86</ele>
        <time>2022-06-09T07:38:50Z</time>
      </trkpt>
      <trkpt lat="47.66545" lon="5.07154">
        <ele>342.75</ele>
        <time>2022-06-09T07:38:54Z</time>
      </trkpt>
      <trkpt lat="47.66543" lon="5.07155">
        <ele>342.73</ele>
        <time>2022-06-09T07:38:58Z</time>
      </trkpt>
      <trkpt lat="47.6654" lon="5.07155">
        <ele>342.46</ele>
        <time>2022-06-09T07:39:00Z</time>
      </trkpt>
      <trkpt lat="47.66537" lon="5.07155">
        <ele>342.18</ele>
        <time>2022-06-09T07:39:02Z</time>
      </trkpt>
      <trkpt lat="47.66534" lon="5.07156">
        <ele>342.05</ele>
        <time>2022-06-09T07:39:05Z</time>
      </trkpt>
      <trkpt lat="47.66531" lon="5.07157">
        <ele>341.92</ele>
        <time>2022-06-09T07:39:07Z</time>
      </trkpt>
      <trkpt lat="47.66528" lon="5.07158">
        <ele>341.77</ele>
        <time>2022-06-09T07:39:10Z</time>
      </trkpt>
      <trkpt lat="47.66525" lon="5.07158">
        <ele>342.18</ele>
        <time>2022-06-09T07:39:11Z</time>
      </trkpt>
      <trkpt lat="47.66522" lon="5.07158">
        <ele>342.65</ele>
        <time>2022-06-09T07:39:14Z</time>
      </trkpt>
      <trkpt lat="47.66518" lon="5.07159">
        <ele>343.4</ele>
        <time>2022-06-09T07:39:17Z</time>
      </trkpt>
      <trkpt lat="47.66515" lon="5.07159">
        <ele>343.86</ele>
        <time>2022-06-09T07:39:19Z</time>
      </trkpt>
      <trkpt lat="47.66511" lon="5.07159">
        <ele>344.48</ele>
        <time>2022-06-09T07:39:21Z</time>
      </trkpt>
      <trkpt lat="47.66508" lon="5.07159">
        <ele>344.94</ele>
        <time>2022-06-09T07:39:22Z</time>
      </trkpt>
      <trkpt lat="47.66505" lon="5.07159">
        <ele>345.4</ele>
        <time>2022-06-09T07:39:24Z</time>
      </trkpt>
      <trkpt lat="47.66502" lon="5.07159">
        <ele>345.86</ele>
        <time>2022-06-09T07:39:27Z</time>
      </trkpt>
      <trkpt lat="47.66498" lon="5.07159">
        <ele>346.05</ele>
        <time>2022-06-09T07:39:29Z</time>
      </trkpt>
      <trkpt lat="47.66495" lon="5.07159">
        <ele>345.86</ele>
        <time>2022-06-09T07:39:30Z</time>
      </trkpt>
      <trkpt lat="47.66492" lon="5.07159">
        <ele>345.68</ele>
        <time>2022-06-09T07:39:33Z</time>
      </trkpt>
      <trkpt lat="47.66489" lon="5.07159">
        <ele>345.49</ele>
        <time>2022-06-09T07:39:36Z</time>
      </trkpt>
      <trkpt lat="47.66485" lon="5.07159">
        <ele>345.24</ele>
        <time>2022-06-09T07:39:38Z</time>
      </trkpt>
      <trkpt lat="47.66482" lon="5.07159">
        <ele>345.05</ele>
        <time>2022-06-09T07:39:41Z</time>
      </trkpt>
      <trkpt lat="47.66479" lon="5.0716">
        <ele>344.95</ele>
        <time>2022-06-09T07:39:44Z</time>
      </trkpt>
      <trkpt lat="47.66476" lon="5.0716">
        <ele>344.76</ele>
        <time>2022-06-09T07:39:47Z</time>
      </trkpt>
      <trkpt lat="47.66473" lon="5.0716">
        <ele>344.57</ele>
        <time>2022-06-09T07:39:50Z</time>
      </trkpt>
      <trkpt lat="47.6647" lon="5.07161">
        <ele>344.75</ele>
        <time>2022-06-09T07:39:56Z</time>
      </trkpt>
      <trkpt lat="47.66467" lon="5.07162">
        <ele>345.04</ele>
        <time>2022-06-09T07:40:00Z</time>
      </trkpt>
      <trkpt lat="47.66464" lon="5.07163">
        <ele>345.33</ele>
        <time>2022-06-09T07:40:02Z</time>
      </trkpt>
      <trkpt lat="47.66461" lon="5.07165">
        <ele>345.69</ele>
        <time>2022-06-09T07:40:05Z</time>
      </trkpt>
      <trkpt lat="47.66458" lon="5.07165">
        <ele>345.9</ele>
        <time>2022-06-09T07:40:08Z</time>
      </trkpt>
      <trkpt lat="47.66455" lon="5.07166">
        <ele>346.19</ele>
        <time>2022-06-09T07:40:12Z</time>
      </trkpt>
      <trkpt lat="47.66453" lon="5.07166">
        <ele>346.34</ele>
        <time>2022-06-09T07:40:16Z</time>
      </trkpt>
      <trkpt lat="47.6645" lon="5.07169">
        <ele>347</ele>
        <time>2022-06-09T07:40:20Z</time>
      </trkpt>
      <trkpt lat="47.66447" lon="5.07173">
        <ele>347.94</ele>
        <time>2022-06-09T07:40:22Z</time>
      </trkpt>
      <trkpt lat="47.66445" lon="5.07175">
        <ele>348.45</ele>
        <time>2022-06-09T07:40:25Z</time>
      </trkpt>
      <trkpt lat="47.66442" lon="5.07177">
        <ele>349.22</ele>
        <time>2022-06-09T07:40:28Z</time>
      </trkpt>
      <trkpt lat="47.66439" lon="5.07179">
        <ele>349.96</ele>
        <time>2022-06-09T07:40:31Z</time>
      </trkpt>
      <trkpt lat="47.66436" lon="5.07181">
        <ele>350.62</ele>
        <time>2022-06-09T07:40:33Z</time>
      </trkpt>
      <trkpt lat="47.66433" lon="5.07183">
        <ele>351.2</ele>
        <time>2022-06-09T07:40:36Z</time>
      </trkpt>
      <trkpt lat="47.66429" lon="5.07184">
        <ele>351.72</ele>
        <time>2022-06-09T07:40:38Z</time>
      </trkpt>
      <trkpt lat="47.66426" lon="5.07184">
        <ele>352.03</ele>
        <time>2022-06-09T07:40:39Z</time>
      </trkpt>
      <trkpt lat="47.66423" lon="5.07185">
        <ele>352.38</ele>
        <time>2022-06-09T07:40:41Z</time>
      </trkpt>
      <trkpt lat="47.6642" lon="5.07186">
        <ele>352.7</ele>
        <time>2022-06-09T07:40:44Z</time>
      </trkpt>
      <trkpt lat="47.66417" lon="5.07185">
        <ele>352.97</ele>
        <time>2022-06-09T07:40:46Z</time>
      </trkpt>
      <trkpt lat="47.66414" lon="5.07184">
        <ele>352.77</ele>
        <time>2022-06-09T07:40:50Z</time>
      </trkpt>
      <trkpt lat="47.66411" lon="5.07184">
        <ele>352.52</ele>
        <time>2022-06-09T07:41:51Z</time>
      </trkpt>
      <trkpt lat="47.66414" lon="5.07186">
        <ele>352.78</ele>
        <time>2022-06-09T07:42:04Z</time>
      </trkpt>
      <trkpt lat="47.66417" lon="5.07186">
        <ele>352.97</ele>
        <time>2022-06-09T07:42:08Z</time>
      </trkpt>
      <trkpt lat="47.6642" lon="5.07186">
        <ele>352.7</ele>
        <time>2022-06-09T07:42:10Z</time>
      </trkpt>
      <trkpt lat="47.66423" lon="5.07187">
        <ele>352.47</ele>
        <time>2022-06-09T07:42:13Z</time>
      </trkpt>
      <trkpt lat="47.66425" lon="5.07188">
        <ele>352.35</ele>
        <time>2022-06-09T07:42:16Z</time>
      </trkpt>
      <trkpt lat="47.66428" lon="5.07189">
        <ele>352.19</ele>
        <time>2022-06-09T07:42:19Z</time>
      </trkpt>
      <trkpt lat="47.66431" lon="5.07187">
        <ele>351.79</ele>
        <time>2022-06-09T07:42:22Z</time>
      </trkpt>
      <trkpt lat="47.66432" lon="5.07183">
        <ele>351.31</ele>
        <time>2022-06-09T07:42:26Z</time>
      </trkpt>
      <trkpt lat="47.66432" lon="5.07179">
        <ele>350.91</ele>
        <time>2022-06-09T07:42:32Z</time>
      </trkpt>
      <trkpt lat="47.66433" lon="5.07175">
        <ele>350.35</ele>
        <time>2022-06-09T07:42:55Z</time>
      </trkpt>
      <trkpt lat="47.66435" lon="5.07171">
        <ele>349.55</ele>
        <time>2022-06-09T07:43:00Z</time>
      </trkpt>
      <trkpt lat="47.66437" lon="5.07169">
        <ele>348.92</ele>
        <time>2022-06-09T07:43:07Z</time>
      </trkpt>
      <trkpt lat="47.66439" lon="5.07166">
        <ele>348.12</ele>
        <time>2022-06-09T07:45:01Z</time>
      </trkpt>
      <trkpt lat="47.66439" lon="5.0717">
        <ele>348.66</ele>
        <time>2022-06-09T07:45:18Z</time>
      </trkpt>
      <trkpt lat="47.66437" lon="5.07172">
        <ele>349.31</ele>
        <time>2022-06-09T07:46:01Z</time>
      </trkpt>
      <trkpt lat="47.66434" lon="5.07173">
        <ele>349.97</ele>
        <time>2022-06-09T07:46:13Z</time>
      </trkpt>
      <trkpt lat="47.66432" lon="5.07167">
        <ele>349.72</ele>
        <time>2022-06-09T07:46:17Z</time>
      </trkpt>
      <trkpt lat="47.66431" lon="5.07163">
        <ele>349.58</ele>
        <time>2022-06-09T07:46:20Z</time>
      </trkpt>
      <trkpt lat="47.6643" lon="5.07159">
        <ele>349.42</ele>
        <time>2022-06-09T07:46:24Z</time>
      </trkpt>
      <trkpt lat="47.6643" lon="5.07154">
        <ele>348.97</ele>
        <time>2022-06-09T07:46:26Z</time>
      </trkpt>
      <trkpt lat="47.6643" lon="5.0715">
        <ele>348.61</ele>
        <time>2022-06-09T07:46:29Z</time>
      </trkpt>
      <trkpt lat="47.66429" lon="5.07146">
        <ele>348.43</ele>
        <time>2022-06-09T07:46:32Z</time>
      </trkpt>
      <trkpt lat="47.66428" lon="5.07142">
        <ele>348.25</ele>
        <time>2022-06-09T07:46:34Z</time>
      </trkpt>
      <trkpt lat="47.66428" lon="5.07137">
        <ele>347.8</ele>
        <time>2022-06-09T07:46:37Z</time>
      </trkpt>
      <trkpt lat="47.66428" lon="5.07132">
        <ele>347.37</ele>
        <time>2022-06-09T07:46:40Z</time>
      </trkpt>
      <trkpt lat="47.66428" lon="5.07128">
        <ele>347.03</ele>
        <time>2022-06-09T07:46:42Z</time>
      </trkpt>
      <trkpt lat="47.66428" lon="5.07123">
        <ele>346.61</ele>
        <time>2022-06-09T07:46:45Z</time>
      </trkpt>
      <trkpt lat="47.66428" lon="5.07119">
        <ele>346.26</ele>
        <time>2022-06-09T07:46:48Z</time>
      </trkpt>
      <trkpt lat="47.66426" lon="5.07114">
        <ele>345.94</ele>
        <time>2022-06-09T07:46:50Z</time>
      </trkpt>
      <trkpt lat="47.66426" lon="5.07109">
        <ele>345.39</ele>
        <time>2022-06-09T07:46:53Z</time>
      </trkpt>
      <trkpt lat="47.66426" lon="5.07105">
        <ele>344.86</ele>
        <time>2022-06-09T07:46:56Z</time>
      </trkpt>
      <trkpt lat="47.66426" lon="5.071">
        <ele>344.2</ele>
        <time>2022-06-09T07:46:59Z</time>
      </trkpt>
      <trkpt lat="47.66426" lon="5.07095">
        <ele>343.54</ele>
        <time>2022-06-09T07:47:01Z</time>
      </trkpt>
      <trkpt lat="47.66425" lon="5.07091">
        <ele>343.02</ele>
        <time>2022-06-09T07:47:03Z</time>
      </trkpt>
      <trkpt lat="47.66425" lon="5.07086">
        <ele>342.36</ele>
        <time>2022-06-09T07:47:06Z</time>
      </trkpt>
      <trkpt lat="47.66424" lon="5.07081">
        <ele>341.83</ele>
        <time>2022-06-09T07:47:08Z</time>
      </trkpt>
      <trkpt lat="47.66424" lon="5.07077">
        <ele>341.54</ele>
        <time>2022-06-09T07:47:12Z</time>
      </trkpt>
      <trkpt lat="47.66423" lon="5.07073">
        <ele>341.26</ele>
        <time>2022-06-09T07:47:16Z</time>
      </trkpt>
      <trkpt lat="47.66423" lon="5.07069">
        <ele>340.97</ele>
        <time>2022-06-09T07:47:18Z</time>
      </trkpt>
      <trkpt lat="47.66422" lon="5.07064">
        <ele>340.61</ele>
        <time>2022-06-09T07:47:20Z</time>
      </trkpt>
      <trkpt lat="47.66422" lon="5.07059">
        <ele>340.25</ele>
        <time>2022-06-09T07:47:24Z</time>
      </trkpt>
      <trkpt lat="47.66421" lon="5.07054">
        <ele>339.94</ele>
        <time>2022-06-09T07:47:26Z</time>
      </trkpt>
      <trkpt lat="47.66421" lon="5.0705">
        <ele>339.77</ele>
        <time>2022-06-09T07:47:30Z</time>
      </trkpt>
      <trkpt lat="47.6642" lon="5.07046">
        <ele>339.61</ele>
        <time>2022-06-09T07:47:33Z</time>
      </trkpt>
      <trkpt lat="47.66419" lon="5.07042">
        <ele>339.47</ele>
        <time>2022-06-09T07:47:36Z</time>
      </trkpt>
      <trkpt lat="47.66418" lon="5.07038">
        <ele>339.34</ele>
        <time>2022-06-09T07:47:39Z</time>
      </trkpt>
      <trkpt lat="47.66418" lon="5.07034">
        <ele>339.19</ele>
        <time>2022-06-09T07:47:41Z</time>
      </trkpt>
      <trkpt lat="47.66417" lon="5.0703">
        <ele>339.07</ele>
        <time>2022-06-09T07:47:44Z</time>
      </trkpt>
      <trkpt lat="47.66416" lon="5.07026">
        <ele>338.83</ele>
        <time>2022-06-09T07:47:47Z</time>
      </trkpt>
      <trkpt lat="47.66415" lon="5.07021">
        <ele>338.57</ele>
        <time>2022-06-09T07:47:50Z</time>
      </trkpt>
      <trkpt lat="47.66414" lon="5.07016">
        <ele>338.29</ele>
        <time>2022-06-09T07:47:52Z</time>
      </trkpt>
      <trkpt lat="47.66413" lon="5.07012">
        <ele>338</ele>
        <time>2022-06-09T07:47:55Z</time>
      </trkpt>
      <trkpt lat="47.66411" lon="5.07009">
        <ele>337.43</ele>
        <time>2022-06-09T07:47:58Z</time>
      </trkpt>
      <trkpt lat="47.6641" lon="5.07005">
        <ele>337.12</ele>
        <time>2022-06-09T07:48:01Z</time>
      </trkpt>
      <trkpt lat="47.66409" lon="5.07001">
        <ele>336.8</ele>
        <time>2022-06-09T07:48:04Z</time>
      </trkpt>
      <trkpt lat="47.66407" lon="5.06997">
        <ele>335.97</ele>
        <time>2022-06-09T07:48:07Z</time>
      </trkpt>
      <trkpt lat="47.66405" lon="5.06993">
        <ele>335.1</ele>
        <time>2022-06-09T07:48:11Z</time>
      </trkpt>
      <trkpt lat="47.66404" lon="5.0699">
        <ele>334.6</ele>
        <time>2022-06-09T07:48:13Z</time>
      </trkpt>
      <trkpt lat="47.66402" lon="5.06986">
        <ele>333.8</ele>
        <time>2022-06-09T07:48:15Z</time>
      </trkpt>
      <trkpt lat="47.66401" lon="5.06983">
        <ele>333.34</ele>
        <time>2022-06-09T07:48:18Z</time>
      </trkpt>
      <trkpt lat="47.66399" lon="5.06979">
        <ele>332.61</ele>
        <time>2022-06-09T07:48:20Z</time>
      </trkpt>
      <trkpt lat="47.66397" lon="5.06976">
        <ele>331.97</ele>
        <time>2022-06-09T07:48:23Z</time>
      </trkpt>
      <trkpt lat="47.66395" lon="5.06972">
        <ele>331.34</ele>
        <time>2022-06-09T07:48:28Z</time>
      </trkpt>
      <trkpt lat="47.66394" lon="5.06969">
        <ele>331.46</ele>
        <time>2022-06-09T07:48:31Z</time>
      </trkpt>
      <trkpt lat="47.66391" lon="5.06965">
        <ele>331.4</ele>
        <time>2022-06-09T07:48:34Z</time>
      </trkpt>
      <trkpt lat="47.6639" lon="5.06961">
        <ele>331.78</ele>
        <time>2022-06-09T07:48:36Z</time>
      </trkpt>
      <trkpt lat="47.66388" lon="5.06957">
        <ele>332.09</ele>
        <time>2022-06-09T07:48:40Z</time>
      </trkpt>
      <trkpt lat="47.66388" lon="5.06953">
        <ele>332.66</ele>
        <time>2022-06-09T07:48:43Z</time>
      </trkpt>
      <trkpt lat="47.66387" lon="5.06949">
        <ele>333.09</ele>
        <time>2022-06-09T07:48:46Z</time>
      </trkpt>
      <trkpt lat="47.66385" lon="5.06946">
        <ele>333.23</ele>
        <time>2022-06-09T07:48:49Z</time>
      </trkpt>
      <trkpt lat="47.66383" lon="5.06942">
        <ele>333.13</ele>
        <time>2022-06-09T07:48:52Z</time>
      </trkpt>
      <trkpt lat="47.66381" lon="5.06938">
        <ele>332.8</ele>
        <time>2022-06-09T07:48:54Z</time>
      </trkpt>
      <trkpt lat="47.6638" lon="5.06935">
        <ele>332.61</ele>
        <time>2022-06-09T07:48:57Z</time>
      </trkpt>
      <trkpt lat="47.66378" lon="5.06932">
        <ele>332.26</ele>
        <time>2022-06-09T07:48:59Z</time>
      </trkpt>
      <trkpt lat="47.66377" lon="5.06928">
        <ele>332.03</ele>
        <time>2022-06-09T07:49:02Z</time>
      </trkpt>
      <trkpt lat="47.66375" lon="5.06924">
        <ele>331.63</ele>
        <time>2022-06-09T07:49:05Z</time>
      </trkpt>
      <trkpt lat="47.66374" lon="5.0692">
        <ele>331.38</ele>
        <time>2022-06-09T07:49:07Z</time>
      </trkpt>
      <trkpt lat="47.66372" lon="5.06917">
        <ele>330.97</ele>
        <time>2022-06-09T07:49:09Z</time>
      </trkpt>
      <trkpt lat="47.66371" lon="5.06912">
        <ele>330.43</ele>
        <time>2022-06-09T07:49:13Z</time>
      </trkpt>
      <trkpt lat="47.66369" lon="5.06908">
        <ele>329.84</ele>
        <time>2022-06-09T07:49:17Z</time>
      </trkpt>
      <trkpt lat="47.66368" lon="5.06903">
        <ele>329.38</ele>
        <time>2022-06-09T07:49:19Z</time>
      </trkpt>
      <trkpt lat="47.66367" lon="5.06899">
        <ele>329.02</ele>
        <time>2022-06-09T07:49:22Z</time>
      </trkpt>
      <trkpt lat="47.66366" lon="5.06895">
        <ele>328.69</ele>
        <time>2022-06-09T07:49:26Z</time>
      </trkpt>
      <trkpt lat="47.66366" lon="5.0689">
        <ele>328.41</ele>
        <time>2022-06-09T07:49:28Z</time>
      </trkpt>
      <trkpt lat="47.66366" lon="5.06886">
        <ele>328.16</ele>
        <time>2022-06-09T07:49:35Z</time>
      </trkpt>
      <trkpt lat="47.66367" lon="5.06882">
        <ele>327.98</ele>
        <time>2022-06-09T07:49:38Z</time>
      </trkpt>
      <trkpt lat="47.66369" lon="5.06879">
        <ele>327.96</ele>
        <time>2022-06-09T07:49:40Z</time>
      </trkpt>
      <trkpt lat="47.66372" lon="5.06879">
        <ele>328.21</ele>
        <time>2022-06-09T07:49:43Z</time>
      </trkpt>
      <trkpt lat="47.66373" lon="5.06875">
        <ele>328.07</ele>
        <time>2022-06-09T07:49:58Z</time>
      </trkpt>
      <trkpt lat="47.66372" lon="5.06871">
        <ele>327.75</ele>
        <time>2022-06-09T07:50:06Z</time>
      </trkpt>
      <trkpt lat="47.66372" lon="5.06867">
        <ele>327.52</ele>
        <time>2022-06-09T07:50:08Z</time>
      </trkpt>
      <trkpt lat="47.66371" lon="5.06863">
        <ele>327.18</ele>
        <time>2022-06-09T07:50:11Z</time>
      </trkpt>
      <trkpt lat="47.66369" lon="5.06859">
        <ele>326.71</ele>
        <time>2022-06-09T07:50:24Z</time>
      </trkpt>
      <trkpt lat="47.6637" lon="5.06854">
        <ele>326.46</ele>
        <time>2022-06-09T07:50:33Z</time>
      </trkpt>
      <trkpt lat="47.66369" lon="5.0685">
        <ele>326.11</ele>
        <time>2022-06-09T07:50:36Z</time>
      </trkpt>
      <trkpt lat="47.6637" lon="5.06846">
        <ele>325.89</ele>
        <time>2022-06-09T07:50:42Z</time>
      </trkpt>
      <trkpt lat="47.66371" lon="5.06842">
        <ele>325.65</ele>
        <time>2022-06-09T07:50:48Z</time>
      </trkpt>
      <trkpt lat="47.66371" lon="5.06837">
        <ele>325.27</ele>
        <time>2022-06-09T07:50:52Z</time>
      </trkpt>
      <trkpt lat="47.66372" lon="5.06834">
        <ele>325.05</ele>
        <time>2022-06-09T07:50:58Z</time>
      </trkpt>
      <trkpt lat="47.66372" lon="5.06829">
        <ele>325</ele>
        <time>2022-06-09T07:51:05Z</time>
      </trkpt>
      <trkpt lat="47.66371" lon="5.06825">
        <ele>325</ele>
        <time>2022-06-09T07:51:08Z</time>
      </trkpt>
      <trkpt lat="47.66369" lon="5.06822">
        <ele>325</ele>
        <time>2022-06-09T07:51:10Z</time>
      </trkpt>
      <trkpt lat="47.66368" lon="5.06818">
        <ele>325</ele>
        <time>2022-06-09T07:51:12Z</time>
      </trkpt>
      <trkpt lat="47.66367" lon="5.06814">
        <ele>325</ele>
        <time>2022-06-09T07:51:15Z</time>
      </trkpt>
      <trkpt lat="47.66367" lon="5.06809">
        <ele>325</ele>
        <time>2022-06-09T07:51:19Z</time>
      </trkpt>
      <trkpt lat="47.66366" lon="5.06804">
        <ele>325.04</ele>
        <time>2022-06-09T07:51:22Z</time>
      </trkpt>
      <trkpt lat="47.66366" lon="5.068">
        <ele>325.13</ele>
        <time>2022-06-09T07:51:24Z</time>
      </trkpt>
      <trkpt lat="47.66366" lon="5.06796">
        <ele>325.22</ele>
        <time>2022-06-09T07:51:26Z</time>
      </trkpt>
      <trkpt lat="47.66366" lon="5.06792">
        <ele>325.32</ele>
        <time>2022-06-09T07:51:29Z</time>
      </trkpt>
      <trkpt lat="47.66365" lon="5.06787">
        <ele>325.48</ele>
        <time>2022-06-09T07:51:33Z</time>
      </trkpt>
      <trkpt lat="47.66364" lon="5.06783">
        <ele>325.64</ele>
        <time>2022-06-09T07:51:36Z</time>
      </trkpt>
      <trkpt lat="47.66363" lon="5.0678">
        <ele>325.79</ele>
        <time>2022-06-09T07:51:39Z</time>
      </trkpt>
      <trkpt lat="47.66361" lon="5.06774">
        <ele>326.4</ele>
        <time>2022-06-09T07:51:42Z</time>
      </trkpt>
      <trkpt lat="47.6636" lon="5.06769">
        <ele>326.83</ele>
        <time>2022-06-09T07:51:45Z</time>
      </trkpt>
      <trkpt lat="47.66358" lon="5.06765">
        <ele>327.04</ele>
        <time>2022-06-09T07:51:46Z</time>
      </trkpt>
      <trkpt lat="47.66357" lon="5.06762">
        <ele>327.26</ele>
        <time>2022-06-09T07:51:48Z</time>
      </trkpt>
      <trkpt lat="47.66356" lon="5.06758">
        <ele>327.58</ele>
        <time>2022-06-09T07:51:51Z</time>
      </trkpt>
      <trkpt lat="47.66354" lon="5.06754">
        <ele>327.8</ele>
        <time>2022-06-09T07:51:52Z</time>
      </trkpt>
      <trkpt lat="47.66352" lon="5.06751">
        <ele>327.91</ele>
        <time>2022-06-09T07:51:55Z</time>
      </trkpt>
      <trkpt lat="47.6635" lon="5.06748">
        <ele>328.04</ele>
        <time>2022-06-09T07:51:57Z</time>
      </trkpt>
      <trkpt lat="47.66348" lon="5.06744">
        <ele>328.33</ele>
        <time>2022-06-09T07:52:00Z</time>
      </trkpt>
      <trkpt lat="47.66347" lon="5.06739">
        <ele>328.87</ele>
        <time>2022-06-09T07:52:03Z</time>
      </trkpt>
      <trkpt lat="47.66347" lon="5.06734">
        <ele>329.5</ele>
        <time>2022-06-09T07:52:06Z</time>
      </trkpt>
      <trkpt lat="47.66346" lon="5.0673">
        <ele>329.92</ele>
        <time>2022-06-09T07:52:08Z</time>
      </trkpt>
      <trkpt lat="47.66346" lon="5.06726">
        <ele>330.43</ele>
        <time>2022-06-09T07:52:13Z</time>
      </trkpt>
      <trkpt lat="47.66346" lon="5.06721">
        <ele>331.09</ele>
        <time>2022-06-09T07:52:19Z</time>
      </trkpt>
      <trkpt lat="47.66347" lon="5.06716">
        <ele>331.88</ele>
        <time>2022-06-09T07:52:22Z</time>
      </trkpt>
      <trkpt lat="47.66346" lon="5.06712">
        <ele>332.42</ele>
        <time>2022-06-09T07:52:25Z</time>
      </trkpt>
      <trkpt lat="47.66346" lon="5.06708">
        <ele>333.01</ele>
        <time>2022-06-09T07:52:29Z</time>
      </trkpt>
      <trkpt lat="47.66346" lon="5.06704">
        <ele>333.59</ele>
        <time>2022-06-09T07:52:32Z</time>
      </trkpt>
      <trkpt lat="47.66347" lon="5.06698">
        <ele>334.49</ele>
        <time>2022-06-09T07:52:35Z</time>
      </trkpt>
      <trkpt lat="47.66348" lon="5.06694">
        <ele>335.07</ele>
        <time>2022-06-09T07:52:37Z</time>
      </trkpt>
      <trkpt lat="47.66349" lon="5.0669">
        <ele>335.69</ele>
        <time>2022-06-09T07:52:41Z</time>
      </trkpt>
      <trkpt lat="47.6635" lon="5.06685">
        <ele>336.43</ele>
        <time>2022-06-09T07:52:43Z</time>
      </trkpt>
      <trkpt lat="47.66351" lon="5.06681">
        <ele>336.98</ele>
        <time>2022-06-09T07:52:47Z</time>
      </trkpt>
      <trkpt lat="47.66352" lon="5.06677">
        <ele>337.5</ele>
        <time>2022-06-09T07:52:52Z</time>
      </trkpt>
      <trkpt lat="47.66353" lon="5.06673">
        <ele>337.99</ele>
        <time>2022-06-09T07:52:55Z</time>
      </trkpt>
      <trkpt lat="47.66353" lon="5.06668">
        <ele>338.69</ele>
        <time>2022-06-09T07:53:00Z</time>
      </trkpt>
      <trkpt lat="47.66355" lon="5.06663">
        <ele>339.25</ele>
        <time>2022-06-09T07:53:03Z</time>
      </trkpt>
      <trkpt lat="47.66356" lon="5.06659">
        <ele>339.76</ele>
        <time>2022-06-09T07:53:05Z</time>
      </trkpt>
      <trkpt lat="47.66356" lon="5.06654">
        <ele>340.54</ele>
        <time>2022-06-09T07:53:10Z</time>
      </trkpt>
      <trkpt lat="47.66357" lon="5.06651">
        <ele>340.87</ele>
        <time>2022-06-09T07:53:13Z</time>
      </trkpt>
      <trkpt lat="47.66358" lon="5.06646">
        <ele>341.48</ele>
        <time>2022-06-09T07:53:15Z</time>
      </trkpt>
      <trkpt lat="47.6636" lon="5.06642">
        <ele>341.74</ele>
        <time>2022-06-09T07:53:17Z</time>
      </trkpt>
      <trkpt lat="47.6636" lon="5.06637">
        <ele>342.54</ele>
        <time>2022-06-09T07:53:21Z</time>
      </trkpt>
      <trkpt lat="47.66361" lon="5.06632">
        <ele>343.26</ele>
        <time>2022-06-09T07:53:24Z</time>
      </trkpt>
      <trkpt lat="47.66362" lon="5.06628">
        <ele>343.88</ele>
        <time>2022-06-09T07:53:26Z</time>
      </trkpt>
      <trkpt lat="47.66362" lon="5.06624">
        <ele>344.58</ele>
        <time>2022-06-09T07:53:31Z</time>
      </trkpt>
      <trkpt lat="47.66363" lon="5.0662">
        <ele>345.15</ele>
        <time>2022-06-09T07:53:34Z</time>
      </trkpt>
      <trkpt lat="47.66365" lon="5.06616">
        <ele>345.52</ele>
        <time>2022-06-09T07:53:38Z</time>
      </trkpt>
      <trkpt lat="47.66366" lon="5.06612">
        <ele>345.98</ele>
        <time>2022-06-09T07:53:40Z</time>
      </trkpt>
      <trkpt lat="47.66368" lon="5.06606">
        <ele>346.27</ele>
        <time>2022-06-09T07:53:44Z</time>
      </trkpt>
      <trkpt lat="47.66368" lon="5.06602">
        <ele>346.66</ele>
        <time>2022-06-09T07:53:47Z</time>
      </trkpt>
      <trkpt lat="47.66369" lon="5.06598">
        <ele>346.86</ele>
        <time>2022-06-09T07:53:50Z</time>
      </trkpt>
      <trkpt lat="47.6637" lon="5.06594">
        <ele>347.05</ele>
        <time>2022-06-09T07:53:55Z</time>
      </trkpt>
      <trkpt lat="47.66371" lon="5.0659">
        <ele>347.23</ele>
        <time>2022-06-09T07:54:00Z</time>
      </trkpt>
      <trkpt lat="47.66372" lon="5.06586">
        <ele>347.4</ele>
        <time>2022-06-09T07:54:02Z</time>
      </trkpt>
      <trkpt lat="47.66372" lon="5.06581">
        <ele>347.9</ele>
        <time>2022-06-09T07:54:06Z</time>
      </trkpt>
      <trkpt lat="47.66372" lon="5.06576">
        <ele>348.44</ele>
        <time>2022-06-09T07:54:10Z</time>
      </trkpt>
      <trkpt lat="47.66373" lon="5.06571">
        <ele>348.76</ele>
        <time>2022-06-09T07:54:12Z</time>
      </trkpt>
      <trkpt lat="47.66375" lon="5.06566">
        <ele>348.87</ele>
        <time>2022-06-09T07:54:17Z</time>
      </trkpt>
      <trkpt lat="47.66376" lon="5.06563">
        <ele>348.98</ele>
        <time>2022-06-09T07:54:21Z</time>
      </trkpt>
      <trkpt lat="47.66378" lon="5.06558">
        <ele>349.09</ele>
        <time>2022-06-09T07:54:25Z</time>
      </trkpt>
      <trkpt lat="47.66379" lon="5.06554">
        <ele>349.34</ele>
        <time>2022-06-09T07:54:27Z</time>
      </trkpt>
      <trkpt lat="47.6638" lon="5.0655">
        <ele>349.66</ele>
        <time>2022-06-09T07:54:30Z</time>
      </trkpt>
      <trkpt lat="47.66381" lon="5.06546">
        <ele>349.98</ele>
        <time>2022-06-09T07:54:35Z</time>
      </trkpt>
      <trkpt lat="47.66382" lon="5.0654">
        <ele>350.59</ele>
        <time>2022-06-09T07:54:39Z</time>
      </trkpt>
      <trkpt lat="47.66383" lon="5.06536">
        <ele>350.94</ele>
        <time>2022-06-09T07:54:43Z</time>
      </trkpt>
      <trkpt lat="47.66383" lon="5.06531">
        <ele>351.62</ele>
        <time>2022-06-09T07:54:47Z</time>
      </trkpt>
      <trkpt lat="47.66383" lon="5.06526">
        <ele>352.5</ele>
        <time>2022-06-09T07:54:52Z</time>
      </trkpt>
      <trkpt lat="47.66384" lon="5.06521">
        <ele>353.62</ele>
        <time>2022-06-09T07:54:54Z</time>
      </trkpt>
      <trkpt lat="47.66386" lon="5.06517">
        <ele>354.42</ele>
        <time>2022-06-09T07:54:58Z</time>
      </trkpt>
      <trkpt lat="47.66386" lon="5.06513">
        <ele>355.5</ele>
        <time>2022-06-09T07:55:00Z</time>
      </trkpt>
      <trkpt lat="47.66388" lon="5.06509">
        <ele>356.46</ele>
        <time>2022-06-09T07:55:04Z</time>
      </trkpt>
      <trkpt lat="47.66389" lon="5.06506">
        <ele>357.27</ele>
        <time>2022-06-09T07:55:06Z</time>
      </trkpt>
      <trkpt lat="47.66391" lon="5.06502">
        <ele>358.3</ele>
        <time>2022-06-09T07:55:10Z</time>
      </trkpt>
      <trkpt lat="47.66392" lon="5.06497">
        <ele>359.38</ele>
        <time>2022-06-09T07:55:13Z</time>
      </trkpt>
      <trkpt lat="47.66393" lon="5.06493">
        <ele>360.07</ele>
        <time>2022-06-09T07:55:15Z</time>
      </trkpt>
      <trkpt lat="47.66394" lon="5.06489">
        <ele>360.72</ele>
        <time>2022-06-09T07:55:20Z</time>
      </trkpt>
      <trkpt lat="47.66396" lon="5.06485">
        <ele>361.18</ele>
        <time>2022-06-09T07:55:24Z</time>
      </trkpt>
      <trkpt lat="47.66398" lon="5.06481">
        <ele>361.55</ele>
        <time>2022-06-09T07:55:26Z</time>
      </trkpt>
      <trkpt lat="47.66399" lon="5.06477">
        <ele>362.03</ele>
        <time>2022-06-09T07:55:30Z</time>
      </trkpt>
      <trkpt lat="47.66401" lon="5.06473">
        <ele>362.26</ele>
        <time>2022-06-09T07:55:32Z</time>
      </trkpt>
      <trkpt lat="47.66402" lon="5.06469">
        <ele>362.35</ele>
        <time>2022-06-09T07:55:34Z</time>
      </trkpt>
      <trkpt lat="47.66404" lon="5.06465">
        <ele>362.11</ele>
        <time>2022-06-09T07:55:37Z</time>
      </trkpt>
      <trkpt lat="47.66405" lon="5.06462">
        <ele>362.04</ele>
        <time>2022-06-09T07:55:39Z</time>
      </trkpt>
      <trkpt lat="47.66406" lon="5.06456">
        <ele>362.11</ele>
        <time>2022-06-09T07:55:42Z</time>
      </trkpt>
      <trkpt lat="47.66407" lon="5.06451">
        <ele>362.12</ele>
        <time>2022-06-09T07:55:44Z</time>
      </trkpt>
      <trkpt lat="47.66408" lon="5.06445">
        <ele>362.16</ele>
        <time>2022-06-09T07:55:47Z</time>
      </trkpt>
      <trkpt lat="47.66409" lon="5.06441">
        <ele>362.27</ele>
        <time>2022-06-09T07:55:49Z</time>
      </trkpt>
      <trkpt lat="47.6641" lon="5.06436">
        <ele>362.52</ele>
        <time>2022-06-09T07:55:52Z</time>
      </trkpt>
      <trkpt lat="47.66411" lon="5.06431">
        <ele>362.78</ele>
        <time>2022-06-09T07:55:53Z</time>
      </trkpt>
      <trkpt lat="47.66412" lon="5.06426">
        <ele>363.06</ele>
        <time>2022-06-09T07:55:56Z</time>
      </trkpt>
      <trkpt lat="47.66413" lon="5.06423">
        <ele>363.14</ele>
        <time>2022-06-09T07:55:58Z</time>
      </trkpt>
      <trkpt lat="47.66415" lon="5.06419">
        <ele>363.11</ele>
        <time>2022-06-09T07:56:00Z</time>
      </trkpt>
      <trkpt lat="47.66417" lon="5.06415">
        <ele>363.19</ele>
        <time>2022-06-09T07:56:04Z</time>
      </trkpt>
      <trkpt lat="47.66418" lon="5.06411">
        <ele>363.59</ele>
        <time>2022-06-09T07:56:06Z</time>
      </trkpt>
      <trkpt lat="47.66419" lon="5.06406">
        <ele>364.1</ele>
        <time>2022-06-09T07:56:08Z</time>
      </trkpt>
      <trkpt lat="47.66419" lon="5.06401">
        <ele>364.78</ele>
        <time>2022-06-09T07:56:11Z</time>
      </trkpt>
      <trkpt lat="47.6642" lon="5.06397">
        <ele>365.1</ele>
        <time>2022-06-09T07:56:14Z</time>
      </trkpt>
      <trkpt lat="47.66421" lon="5.06393">
        <ele>365.39</ele>
        <time>2022-06-09T07:56:19Z</time>
      </trkpt>
      <trkpt lat="47.66423" lon="5.06389">
        <ele>365.39</ele>
        <time>2022-06-09T07:56:22Z</time>
      </trkpt>
      <trkpt lat="47.66424" lon="5.06386">
        <ele>365.44</ele>
        <time>2022-06-09T07:56:26Z</time>
      </trkpt>
      <trkpt lat="47.66425" lon="5.0638">
        <ele>365.76</ele>
        <time>2022-06-09T07:56:29Z</time>
      </trkpt>
      <trkpt lat="47.66426" lon="5.06376">
        <ele>365.88</ele>
        <time>2022-06-09T07:56:31Z</time>
      </trkpt>
      <trkpt lat="47.66427" lon="5.06373">
        <ele>365.9</ele>
        <time>2022-06-09T07:56:34Z</time>
      </trkpt>
      <trkpt lat="47.66429" lon="5.06369">
        <ele>365.72</ele>
        <time>2022-06-09T07:56:36Z</time>
      </trkpt>
      <trkpt lat="47.6643" lon="5.06365">
        <ele>365.81</ele>
        <time>2022-06-09T07:56:38Z</time>
      </trkpt>
      <trkpt lat="47.66432" lon="5.06361">
        <ele>365.59</ele>
        <time>2022-06-09T07:56:39Z</time>
      </trkpt>
      <trkpt lat="47.66433" lon="5.06356">
        <ele>365.74</ele>
        <time>2022-06-09T07:56:43Z</time>
      </trkpt>
      <trkpt lat="47.66434" lon="5.06352">
        <ele>365.79</ele>
        <time>2022-06-09T07:56:45Z</time>
      </trkpt>
      <trkpt lat="47.66435" lon="5.06348">
        <ele>365.82</ele>
        <time>2022-06-09T07:56:47Z</time>
      </trkpt>
      <trkpt lat="47.66436" lon="5.06342">
        <ele>366.02</ele>
        <time>2022-06-09T07:56:52Z</time>
      </trkpt>
      <trkpt lat="47.66437" lon="5.06338">
        <ele>366.03</ele>
        <time>2022-06-09T07:56:55Z</time>
      </trkpt>
      <trkpt lat="47.66438" lon="5.06334">
        <ele>366.03</ele>
        <time>2022-06-09T07:56:58Z</time>
      </trkpt>
      <trkpt lat="47.66439" lon="5.06329">
        <ele>366.2</ele>
        <time>2022-06-09T07:57:00Z</time>
      </trkpt>
      <trkpt lat="47.66439" lon="5.06325">
        <ele>366.61</ele>
        <time>2022-06-09T07:57:02Z</time>
      </trkpt>
      <trkpt lat="47.66439" lon="5.0632">
        <ele>367.11</ele>
        <time>2022-06-09T07:57:06Z</time>
      </trkpt>
      <trkpt lat="47.66439" lon="5.06316">
        <ele>367.51</ele>
        <time>2022-06-09T07:57:08Z</time>
      </trkpt>
      <trkpt lat="47.6644" lon="5.06311">
        <ele>367.72</ele>
        <time>2022-06-09T07:57:10Z</time>
      </trkpt>
      <trkpt lat="47.6644" lon="5.06307">
        <ele>368.13</ele>
        <time>2022-06-09T07:57:13Z</time>
      </trkpt>
      <trkpt lat="47.66442" lon="5.06303">
        <ele>367.96</ele>
        <time>2022-06-09T07:57:15Z</time>
      </trkpt>
      <trkpt lat="47.66443" lon="5.06299">
        <ele>368.1</ele>
        <time>2022-06-09T07:57:18Z</time>
      </trkpt>
      <trkpt lat="47.66444" lon="5.06294">
        <ele>368.36</ele>
        <time>2022-06-09T07:57:22Z</time>
      </trkpt>
      <trkpt lat="47.66445" lon="5.06289">
        <ele>368.8</ele>
        <time>2022-06-09T07:57:24Z</time>
      </trkpt>
      <trkpt lat="47.66445" lon="5.06284">
        <ele>369.34</ele>
        <time>2022-06-09T07:57:27Z</time>
      </trkpt>
      <trkpt lat="47.66446" lon="5.06279">
        <ele>369.87</ele>
        <time>2022-06-09T07:57:29Z</time>
      </trkpt>
      <trkpt lat="47.66446" lon="5.06275">
        <ele>370.2</ele>
        <time>2022-06-09T07:57:31Z</time>
      </trkpt>
      <trkpt lat="47.66446" lon="5.06271">
        <ele>370.49</ele>
        <time>2022-06-09T07:57:36Z</time>
      </trkpt>
      <trkpt lat="47.66447" lon="5.06266">
        <ele>370.85</ele>
        <time>2022-06-09T07:57:38Z</time>
      </trkpt>
      <trkpt lat="47.66447" lon="5.06262">
        <ele>371.14</ele>
        <time>2022-06-09T07:57:40Z</time>
      </trkpt>
      <trkpt lat="47.66448" lon="5.06258">
        <ele>371.42</ele>
        <time>2022-06-09T07:57:42Z</time>
      </trkpt>
      <trkpt lat="47.66449" lon="5.06252">
        <ele>371.86</ele>
        <time>2022-06-09T07:57:47Z</time>
      </trkpt>
      <trkpt lat="47.6645" lon="5.06248">
        <ele>372.19</ele>
        <time>2022-06-09T07:57:49Z</time>
      </trkpt>
      <trkpt lat="47.66451" lon="5.06244">
        <ele>372.55</ele>
        <time>2022-06-09T07:57:51Z</time>
      </trkpt>
      <trkpt lat="47.66452" lon="5.0624">
        <ele>372.88</ele>
        <time>2022-06-09T07:57:55Z</time>
      </trkpt>
      <trkpt lat="47.66452" lon="5.06235">
        <ele>373.33</ele>
        <time>2022-06-09T07:57:57Z</time>
      </trkpt>
      <trkpt lat="47.66452" lon="5.06231">
        <ele>373.68</ele>
        <time>2022-06-09T07:58:00Z</time>
      </trkpt>
      <trkpt lat="47.66452" lon="5.06227">
        <ele>374.03</ele>
        <time>2022-06-09T07:58:02Z</time>
      </trkpt>
      <trkpt lat="47.66452" lon="5.06223">
        <ele>374.39</ele>
        <time>2022-06-09T07:58:04Z</time>
      </trkpt>
      <trkpt lat="47.66453" lon="5.06218">
        <ele>374.85</ele>
        <time>2022-06-09T07:58:08Z</time>
      </trkpt>
      <trkpt lat="47.66454" lon="5.06213">
        <ele>375.3</ele>
        <time>2022-06-09T07:58:14Z</time>
      </trkpt>
      <trkpt lat="47.66454" lon="5.06209">
        <ele>375.72</ele>
        <time>2022-06-09T07:58:17Z</time>
      </trkpt>
      <trkpt lat="47.66453" lon="5.06204">
        <ele>376.4</ele>
        <time>2022-06-09T07:58:21Z</time>
      </trkpt>
      <trkpt lat="47.66452" lon="5.062">
        <ele>377</ele>
        <time>2022-06-09T07:58:24Z</time>
      </trkpt>
      <trkpt lat="47.66451" lon="5.06197">
        <ele>377.52</ele>
        <time>2022-06-09T07:58:27Z</time>
      </trkpt>
      <trkpt lat="47.66449" lon="5.06193">
        <ele>378.34</ele>
        <time>2022-06-09T07:58:30Z</time>
      </trkpt>
      <trkpt lat="47.66447" lon="5.06191">
        <ele>378.91</ele>
        <time>2022-06-09T07:58:32Z</time>
      </trkpt>
      <trkpt lat="47.66444" lon="5.06187">
        <ele>379.87</ele>
        <time>2022-06-09T07:58:36Z</time>
      </trkpt>
      <trkpt lat="47.66442" lon="5.06183">
        <ele>380.59</ele>
        <time>2022-06-09T07:58:40Z</time>
      </trkpt>
      <trkpt lat="47.66441" lon="5.06179">
        <ele>381.16</ele>
        <time>2022-06-09T07:58:45Z</time>
      </trkpt>
      <trkpt lat="47.6644" lon="5.06175">
        <ele>381.74</ele>
        <time>2022-06-09T07:58:48Z</time>
      </trkpt>
      <trkpt lat="47.6644" lon="5.06171">
        <ele>382.17</ele>
        <time>2022-06-09T07:58:51Z</time>
      </trkpt>
      <trkpt lat="47.6644" lon="5.06165">
        <ele>382.76</ele>
        <time>2022-06-09T07:58:55Z</time>
      </trkpt>
      <trkpt lat="47.66439" lon="5.06161">
        <ele>383.19</ele>
        <time>2022-06-09T07:58:57Z</time>
      </trkpt>
      <trkpt lat="47.66438" lon="5.06156">
        <ele>383.7</ele>
        <time>2022-06-09T07:58:59Z</time>
      </trkpt>
      <trkpt lat="47.66438" lon="5.06152">
        <ele>383.98</ele>
        <time>2022-06-09T07:59:03Z</time>
      </trkpt>
      <trkpt lat="47.66436" lon="5.06148">
        <ele>384.56</ele>
        <time>2022-06-09T07:59:05Z</time>
      </trkpt>
      <trkpt lat="47.66435" lon="5.06144">
        <ele>384.99</ele>
        <time>2022-06-09T07:59:08Z</time>
      </trkpt>
      <trkpt lat="47.66435" lon="5.0614">
        <ele>385.28</ele>
        <time>2022-06-09T07:59:10Z</time>
      </trkpt>
      <trkpt lat="47.66434" lon="5.06136">
        <ele>385.74</ele>
        <time>2022-06-09T07:59:12Z</time>
      </trkpt>
      <trkpt lat="47.66433" lon="5.06131">
        <ele>386.27</ele>
        <time>2022-06-09T07:59:16Z</time>
      </trkpt>
      <trkpt lat="47.66433" lon="5.06126">
        <ele>386.66</ele>
        <time>2022-06-09T07:59:19Z</time>
      </trkpt>
      <trkpt lat="47.66433" lon="5.06121">
        <ele>387.05</ele>
        <time>2022-06-09T07:59:21Z</time>
      </trkpt>
      <trkpt lat="47.66433" lon="5.06116">
        <ele>387.44</ele>
        <time>2022-06-09T07:59:26Z</time>
      </trkpt>
      <trkpt lat="47.66433" lon="5.06112">
        <ele>387.75</ele>
        <time>2022-06-09T07:59:28Z</time>
      </trkpt>
      <trkpt lat="47.66433" lon="5.06107">
        <ele>388.36</ele>
        <time>2022-06-09T07:59:32Z</time>
      </trkpt>
      <trkpt lat="47.66434" lon="5.06102">
        <ele>388.94</ele>
        <time>2022-06-09T07:59:34Z</time>
      </trkpt>
      <trkpt lat="47.66434" lon="5.06098">
        <ele>389.46</ele>
        <time>2022-06-09T07:59:37Z</time>
      </trkpt>
      <trkpt lat="47.66435" lon="5.06094">
        <ele>389.93</ele>
        <time>2022-06-09T07:59:39Z</time>
      </trkpt>
      <trkpt lat="47.66435" lon="5.06089">
        <ele>390.59</ele>
        <time>2022-06-09T07:59:44Z</time>
      </trkpt>
      <trkpt lat="47.66435" lon="5.06084">
        <ele>391.25</ele>
        <time>2022-06-09T07:59:46Z</time>
      </trkpt>
      <trkpt lat="47.66435" lon="5.06079">
        <ele>391.6</ele>
        <time>2022-06-09T07:59:49Z</time>
      </trkpt>
      <trkpt lat="47.66436" lon="5.06074">
        <ele>391.84</ele>
        <time>2022-06-09T07:59:53Z</time>
      </trkpt>
      <trkpt lat="47.66437" lon="5.06069">
        <ele>392.06</ele>
        <time>2022-06-09T07:59:54Z</time>
      </trkpt>
      <trkpt lat="47.66438" lon="5.06065">
        <ele>392.2</ele>
        <time>2022-06-09T07:59:56Z</time>
      </trkpt>
      <trkpt lat="47.66438" lon="5.06059">
        <ele>392.51</ele>
        <time>2022-06-09T08:00:00Z</time>
      </trkpt>
      <trkpt lat="47.66439" lon="5.06054">
        <ele>392.82</ele>
        <time>2022-06-09T08:00:01Z</time>
      </trkpt>
      <trkpt lat="47.66438" lon="5.0605">
        <ele>393.54</ele>
        <time>2022-06-09T08:00:04Z</time>
      </trkpt>
      <trkpt lat="47.66438" lon="5.06046">
        <ele>394.15</ele>
        <time>2022-06-09T08:00:07Z</time>
      </trkpt>
      <trkpt lat="47.66439" lon="5.06042">
        <ele>394.64</ele>
        <time>2022-06-09T08:00:14Z</time>
      </trkpt>
      <trkpt lat="47.66437" lon="5.06038">
        <ele>395.5</ele>
        <time>2022-06-09T08:00:19Z</time>
      </trkpt>
      <trkpt lat="47.66438" lon="5.06034">
        <ele>395.98</ele>
        <time>2022-06-09T08:00:28Z</time>
      </trkpt>
      <trkpt lat="47.66437" lon="5.0603">
        <ele>396.73</ele>
        <time>2022-06-09T08:00:36Z</time>
      </trkpt>
      <trkpt lat="47.66437" lon="5.06026">
        <ele>397.36</ele>
        <time>2022-06-09T08:00:44Z</time>
      </trkpt>
      <trkpt lat="47.66435" lon="5.06024">
        <ele>397.95</ele>
        <time>2022-06-09T08:00:52Z</time>
      </trkpt>
      <trkpt lat="47.66432" lon="5.06026">
        <ele>398.05</ele>
        <time>2022-06-09T08:00:55Z</time>
      </trkpt>
      <trkpt lat="47.6643" lon="5.06029">
        <ele>397.88</ele>
        <time>2022-06-09T08:00:59Z</time>
      </trkpt>
      <trkpt lat="47.66427" lon="5.06032">
        <ele>397.81</ele>
        <time>2022-06-09T08:01:03Z</time>
      </trkpt>
      <trkpt lat="47.66425" lon="5.06035">
        <ele>397.58</ele>
        <time>2022-06-09T08:01:07Z</time>
      </trkpt>
      <trkpt lat="47.66424" lon="5.06039">
        <ele>397.03</ele>
        <time>2022-06-09T08:01:10Z</time>
      </trkpt>
      <trkpt lat="47.66421" lon="5.06042">
        <ele>396.9</ele>
        <time>2022-06-09T08:01:12Z</time>
      </trkpt>
      <trkpt lat="47.66419" lon="5.06044">
        <ele>396.79</ele>
        <time>2022-06-09T08:01:15Z</time>
      </trkpt>
      <trkpt lat="47.66416" lon="5.06046">
        <ele>396.79</ele>
        <time>2022-06-09T08:01:19Z</time>
      </trkpt>
      <trkpt lat="47.66413" lon="5.06048">
        <ele>396.78</ele>
        <time>2022-06-09T08:01:21Z</time>
      </trkpt>
      <trkpt lat="47.66409" lon="5.0605">
        <ele>396.94</ele>
        <time>2022-06-09T08:01:26Z</time>
      </trkpt>
      <trkpt lat="47.66406" lon="5.06052">
        <ele>397.03</ele>
        <time>2022-06-09T08:01:29Z</time>
      </trkpt>
      <trkpt lat="47.66404" lon="5.06054">
        <ele>397.03</ele>
        <time>2022-06-09T08:01:30Z</time>
      </trkpt>
      <trkpt lat="47.66401" lon="5.06056">
        <ele>397.22</ele>
        <time>2022-06-09T08:01:32Z</time>
      </trkpt>
      <trkpt lat="47.66398" lon="5.06058">
        <ele>397.48</ele>
        <time>2022-06-09T08:01:35Z</time>
      </trkpt>
      <trkpt lat="47.66395" lon="5.0606">
        <ele>397.76</ele>
        <time>2022-06-09T08:01:37Z</time>
      </trkpt>
      <trkpt lat="47.66392" lon="5.06063">
        <ele>397.99</ele>
        <time>2022-06-09T08:01:40Z</time>
      </trkpt>
      <trkpt lat="47.66389" lon="5.06065">
        <ele>398.3</ele>
        <time>2022-06-09T08:01:42Z</time>
      </trkpt>
      <trkpt lat="47.66386" lon="5.06068">
        <ele>398.62</ele>
        <time>2022-06-09T08:01:45Z</time>
      </trkpt>
      <trkpt lat="47.66384" lon="5.06071">
        <ele>398.77</ele>
        <time>2022-06-09T08:01:47Z</time>
      </trkpt>
      <trkpt lat="47.66382" lon="5.06074">
        <ele>398.91</ele>
        <time>2022-06-09T08:01:51Z</time>
      </trkpt>
      <trkpt lat="47.6638" lon="5.06077">
        <ele>399.06</ele>
        <time>2022-06-09T08:01:54Z</time>
      </trkpt>
      <trkpt lat="47.66378" lon="5.0608">
        <ele>399.2</ele>
        <time>2022-06-09T08:01:57Z</time>
      </trkpt>
      <trkpt lat="47.66376" lon="5.06083">
        <ele>399.34</ele>
        <time>2022-06-09T08:02:01Z</time>
      </trkpt>
      <trkpt lat="47.66373" lon="5.06087">
        <ele>399.33</ele>
        <time>2022-06-09T08:02:03Z</time>
      </trkpt>
      <trkpt lat="47.66371" lon="5.06091">
        <ele>399.12</ele>
        <time>2022-06-09T08:02:06Z</time>
      </trkpt>
      <trkpt lat="47.66369" lon="5.06094">
        <ele>399.04</ele>
        <time>2022-06-09T08:02:08Z</time>
      </trkpt>
      <trkpt lat="47.66367" lon="5.06098">
        <ele>398.83</ele>
        <time>2022-06-09T08:02:11Z</time>
      </trkpt>
      <trkpt lat="47.66364" lon="5.06101">
        <ele>398.94</ele>
        <time>2022-06-09T08:02:14Z</time>
      </trkpt>
      <trkpt lat="47.66362" lon="5.06104">
        <ele>398.86</ele>
        <time>2022-06-09T08:02:17Z</time>
      </trkpt>
      <trkpt lat="47.6636" lon="5.06107">
        <ele>398.95</ele>
        <time>2022-06-09T08:02:19Z</time>
      </trkpt>
      <trkpt lat="47.66357" lon="5.06109">
        <ele>399.62</ele>
        <time>2022-06-09T08:02:22Z</time>
      </trkpt>
      <trkpt lat="47.66354" lon="5.06112">
        <ele>400.27</ele>
        <time>2022-06-09T08:02:26Z</time>
      </trkpt>
      <trkpt lat="47.66352" lon="5.06114">
        <ele>400.85</ele>
        <time>2022-06-09T08:02:29Z</time>
      </trkpt>
      <trkpt lat="47.66349" lon="5.06117">
        <ele>401.71</ele>
        <time>2022-06-09T08:02:33Z</time>
      </trkpt>
      <trkpt lat="47.66346" lon="5.06118">
        <ele>402.65</ele>
        <time>2022-06-09T08:02:39Z</time>
      </trkpt>
      <trkpt lat="47.66342" lon="5.06118">
        <ele>403.94</ele>
        <time>2022-06-09T08:02:48Z</time>
      </trkpt>
      <trkpt lat="47.66339" lon="5.06119">
        <ele>404.88</ele>
        <time>2022-06-09T08:02:49Z</time>
      </trkpt>
      <trkpt lat="47.66336" lon="5.0612">
        <ele>405.82</ele>
        <time>2022-06-09T08:02:56Z</time>
      </trkpt>
      <trkpt lat="47.66333" lon="5.0612">
        <ele>406.78</ele>
        <time>2022-06-09T08:03:03Z</time>
      </trkpt>
      <trkpt lat="47.66331" lon="5.06123">
        <ele>407.29</ele>
        <time>2022-06-09T08:03:34Z</time>
      </trkpt>
      <trkpt lat="47.66329" lon="5.0612">
        <ele>408.03</ele>
        <time>2022-06-09T08:04:09Z</time>
      </trkpt>
      <trkpt lat="47.66327" lon="5.06118">
        <ele>408.75</ele>
        <time>2022-06-09T08:04:45Z</time>
      </trkpt>
      <trkpt lat="47.66324" lon="5.06117">
        <ele>409.74</ele>
        <time>2022-06-09T08:05:20Z</time>
      </trkpt>
      <trkpt lat="47.66326" lon="5.06114">
        <ele>409.24</ele>
        <time>2022-06-09T08:06:45Z</time>
      </trkpt>
      <trkpt lat="47.66328" lon="5.06117">
        <ele>408.48</ele>
        <time>2022-06-09T08:07:08Z</time>
      </trkpt>
      <trkpt lat="47.66328" lon="5.06121">
        <ele>408.3</ele>
        <time>2022-06-09T08:07:15Z</time>
      </trkpt>
      <trkpt lat="47.66329" lon="5.06126">
        <ele>407.78</ele>
        <time>2022-06-09T08:07:20Z</time>
      </trkpt>
      <trkpt lat="47.66329" lon="5.0613">
        <ele>407.62</ele>
        <time>2022-06-09T08:07:24Z</time>
      </trkpt>
      <trkpt lat="47.66328" lon="5.06134">
        <ele>407.75</ele>
        <time>2022-06-09T08:07:26Z</time>
      </trkpt>
      <trkpt lat="47.66328" lon="5.06139">
        <ele>407.53</ele>
        <time>2022-06-09T08:07:30Z</time>
      </trkpt>
      <trkpt lat="47.66328" lon="5.06143">
        <ele>407.33</ele>
        <time>2022-06-09T08:07:33Z</time>
      </trkpt>
      <trkpt lat="47.66327" lon="5.06148">
        <ele>407.35</ele>
        <time>2022-06-09T08:07:37Z</time>
      </trkpt>
      <trkpt lat="47.66326" lon="5.06152">
        <ele>407.39</ele>
        <time>2022-06-09T08:07:39Z</time>
      </trkpt>
      <trkpt lat="47.66326" lon="5.06156">
        <ele>407.17</ele>
        <time>2022-06-09T08:07:41Z</time>
      </trkpt>
      <trkpt lat="47.66325" lon="5.06161">
        <ele>407.13</ele>
        <time>2022-06-09T08:07:44Z</time>
      </trkpt>
      <trkpt lat="47.66324" lon="5.06166">
        <ele>407.06</ele>
        <time>2022-06-09T08:07:46Z</time>
      </trkpt>
      <trkpt lat="47.66323" lon="5.0617">
        <ele>406.68</ele>
        <time>2022-06-09T08:07:49Z</time>
      </trkpt>
      <trkpt lat="47.66322" lon="5.06176">
        <ele>405.91</ele>
        <time>2022-06-09T08:07:51Z</time>
      </trkpt>
      <trkpt lat="47.66321" lon="5.0618">
        <ele>405.48</ele>
        <time>2022-06-09T08:07:54Z</time>
      </trkpt>
      <trkpt lat="47.66321" lon="5.06184">
        <ele>404.82</ele>
        <time>2022-06-09T08:07:56Z</time>
      </trkpt>
      <trkpt lat="47.6632" lon="5.06189">
        <ele>404.25</ele>
        <time>2022-06-09T08:07:58Z</time>
      </trkpt>
      <trkpt lat="47.66319" lon="5.06193">
        <ele>403.85</ele>
        <time>2022-06-09T08:08:01Z</time>
      </trkpt>
      <trkpt lat="47.66318" lon="5.06198">
        <ele>403.67</ele>
        <time>2022-06-09T08:08:05Z</time>
      </trkpt>
      <trkpt lat="47.66317" lon="5.06203">
        <ele>403.63</ele>
        <time>2022-06-09T08:08:08Z</time>
      </trkpt>
      <trkpt lat="47.66316" lon="5.06208">
        <ele>403.58</ele>
        <time>2022-06-09T08:08:10Z</time>
      </trkpt>
      <trkpt lat="47.66315" lon="5.06213">
        <ele>403.51</ele>
        <time>2022-06-09T08:08:14Z</time>
      </trkpt>
      <trkpt lat="47.66313" lon="5.0622">
        <ele>403.53</ele>
        <time>2022-06-09T08:08:16Z</time>
      </trkpt>
      <trkpt lat="47.66311" lon="5.06224">
        <ele>403.79</ele>
        <time>2022-06-09T08:08:17Z</time>
      </trkpt>
      <trkpt lat="47.6631" lon="5.06228">
        <ele>403.94</ele>
        <time>2022-06-09T08:08:20Z</time>
      </trkpt>
      <trkpt lat="47.66309" lon="5.06233">
        <ele>404.11</ele>
        <time>2022-06-09T08:08:22Z</time>
      </trkpt>
      <trkpt lat="47.66308" lon="5.06238">
        <ele>404.32</ele>
        <time>2022-06-09T08:08:25Z</time>
      </trkpt>
      <trkpt lat="47.66307" lon="5.06243">
        <ele>404.57</ele>
        <time>2022-06-09T08:08:26Z</time>
      </trkpt>
      <trkpt lat="47.66307" lon="5.06247">
        <ele>404.55</ele>
        <time>2022-06-09T08:08:28Z</time>
      </trkpt>
      <trkpt lat="47.66306" lon="5.06252">
        <ele>404.57</ele>
        <time>2022-06-09T08:08:31Z</time>
      </trkpt>
      <trkpt lat="47.66306" lon="5.06256">
        <ele>404</ele>
        <time>2022-06-09T08:08:33Z</time>
      </trkpt>
      <trkpt lat="47.66305" lon="5.0626">
        <ele>403.58</ele>
        <time>2022-06-09T08:08:34Z</time>
      </trkpt>
      <trkpt lat="47.66304" lon="5.06265">
        <ele>402.94</ele>
        <time>2022-06-09T08:08:37Z</time>
      </trkpt>
      <trkpt lat="47.66303" lon="5.06269">
        <ele>402.49</ele>
        <time>2022-06-09T08:08:39Z</time>
      </trkpt>
      <trkpt lat="47.66302" lon="5.06273">
        <ele>402.09</ele>
        <time>2022-06-09T08:08:42Z</time>
      </trkpt>
      <trkpt lat="47.66301" lon="5.06278">
        <ele>401.63</ele>
        <time>2022-06-09T08:08:44Z</time>
      </trkpt>
      <trkpt lat="47.663" lon="5.06283">
        <ele>401.24</ele>
        <time>2022-06-09T08:08:46Z</time>
      </trkpt>
      <trkpt lat="47.66298" lon="5.06288">
        <ele>400.98</ele>
        <time>2022-06-09T08:08:48Z</time>
      </trkpt>
      <trkpt lat="47.66297" lon="5.06292">
        <ele>400.7</ele>
        <time>2022-06-09T08:08:49Z</time>
      </trkpt>
      <trkpt lat="47.66295" lon="5.06296">
        <ele>400.55</ele>
        <time>2022-06-09T08:08:51Z</time>
      </trkpt>
      <trkpt lat="47.66293" lon="5.063">
        <ele>400.41</ele>
        <time>2022-06-09T08:08:55Z</time>
      </trkpt>
      <trkpt lat="47.66292" lon="5.06305">
        <ele>400.01</ele>
        <time>2022-06-09T08:08:57Z</time>
      </trkpt>
      <trkpt lat="47.66291" lon="5.06308">
        <ele>399.83</ele>
        <time>2022-06-09T08:08:59Z</time>
      </trkpt>
      <trkpt lat="47.66289" lon="5.06313">
        <ele>399.58</ele>
        <time>2022-06-09T08:09:01Z</time>
      </trkpt>
      <trkpt lat="47.66288" lon="5.06316">
        <ele>399.4</ele>
        <time>2022-06-09T08:09:03Z</time>
      </trkpt>
      <trkpt lat="47.66287" lon="5.06321">
        <ele>399</ele>
        <time>2022-06-09T08:09:06Z</time>
      </trkpt>
      <trkpt lat="47.66286" lon="5.06325">
        <ele>398.72</ele>
        <time>2022-06-09T08:09:08Z</time>
      </trkpt>
      <trkpt lat="47.66284" lon="5.06328">
        <ele>398.68</ele>
        <time>2022-06-09T08:09:10Z</time>
      </trkpt>
      <trkpt lat="47.66283" lon="5.06332">
        <ele>398.39</ele>
        <time>2022-06-09T08:09:12Z</time>
      </trkpt>
      <trkpt lat="47.66281" lon="5.06335">
        <ele>398.3</ele>
        <time>2022-06-09T08:09:15Z</time>
      </trkpt>
      <trkpt lat="47.66279" lon="5.06338">
        <ele>398.15</ele>
        <time>2022-06-09T08:09:18Z</time>
      </trkpt>
      <trkpt lat="47.66276" lon="5.06341">
        <ele>398.18</ele>
        <time>2022-06-09T08:09:20Z</time>
      </trkpt>
      <trkpt lat="47.66274" lon="5.06343">
        <ele>398.19</ele>
        <time>2022-06-09T08:09:21Z</time>
      </trkpt>
      <trkpt lat="47.66271" lon="5.06346">
        <ele>398.17</ele>
        <time>2022-06-09T08:09:23Z</time>
      </trkpt>
      <trkpt lat="47.66269" lon="5.06348">
        <ele>398.13</ele>
        <time>2022-06-09T08:09:26Z</time>
      </trkpt>
      <trkpt lat="47.66266" lon="5.0635">
        <ele>398.21</ele>
        <time>2022-06-09T08:09:27Z</time>
      </trkpt>
      <trkpt lat="47.66263" lon="5.06352">
        <ele>398.26</ele>
        <time>2022-06-09T08:09:29Z</time>
      </trkpt>
      <trkpt lat="47.6626" lon="5.06353">
        <ele>398.46</ele>
        <time>2022-06-09T08:09:31Z</time>
      </trkpt>
      <trkpt lat="47.66257" lon="5.06354">
        <ele>398.65</ele>
        <time>2022-06-09T08:09:32Z</time>
      </trkpt>
      <trkpt lat="47.66254" lon="5.06354">
        <ele>399.03</ele>
        <time>2022-06-09T08:09:35Z</time>
      </trkpt>
      <trkpt lat="47.66251" lon="5.06355">
        <ele>399.2</ele>
        <time>2022-06-09T08:09:37Z</time>
      </trkpt>
      <trkpt lat="47.66248" lon="5.06356">
        <ele>398.93</ele>
        <time>2022-06-09T08:09:40Z</time>
      </trkpt>
      <trkpt lat="47.66245" lon="5.06358">
        <ele>398.27</ele>
        <time>2022-06-09T08:09:43Z</time>
      </trkpt>
      <trkpt lat="47.66242" lon="5.06359">
        <ele>397.84</ele>
        <time>2022-06-09T08:09:45Z</time>
      </trkpt>
      <trkpt lat="47.66239" lon="5.06361">
        <ele>397.23</ele>
        <time>2022-06-09T08:09:47Z</time>
      </trkpt>
      <trkpt lat="47.66236" lon="5.06363">
        <ele>396.48</ele>
        <time>2022-06-09T08:09:51Z</time>
      </trkpt>
      <trkpt lat="47.66233" lon="5.06365">
        <ele>395.74</ele>
        <time>2022-06-09T08:09:52Z</time>
      </trkpt>
      <trkpt lat="47.6623" lon="5.06366">
        <ele>395.28</ele>
        <time>2022-06-09T08:09:55Z</time>
      </trkpt>
      <trkpt lat="47.66226" lon="5.06367">
        <ele>394.76</ele>
        <time>2022-06-09T08:09:58Z</time>
      </trkpt>
      <trkpt lat="47.66222" lon="5.06369">
        <ele>394.01</ele>
        <time>2022-06-09T08:10:01Z</time>
      </trkpt>
      <trkpt lat="47.66219" lon="5.06371">
        <ele>393.47</ele>
        <time>2022-06-09T08:10:03Z</time>
      </trkpt>
      <trkpt lat="47.66216" lon="5.06372">
        <ele>393.21</ele>
        <time>2022-06-09T08:10:06Z</time>
      </trkpt>
      <trkpt lat="47.66213" lon="5.06371">
        <ele>393.41</ele>
        <time>2022-06-09T08:10:07Z</time>
      </trkpt>
      <trkpt lat="47.6621" lon="5.0637">
        <ele>393.6</ele>
        <time>2022-06-09T08:10:09Z</time>
      </trkpt>
      <trkpt lat="47.66207" lon="5.06369">
        <ele>393.78</ele>
        <time>2022-06-09T08:10:12Z</time>
      </trkpt>
      <trkpt lat="47.66204" lon="5.06369">
        <ele>393.73</ele>
        <time>2022-06-09T08:10:14Z</time>
      </trkpt>
      <trkpt lat="47.66201" lon="5.06369">
        <ele>393.68</ele>
        <time>2022-06-09T08:10:17Z</time>
      </trkpt>
      <trkpt lat="47.66197" lon="5.06369">
        <ele>393.62</ele>
        <time>2022-06-09T08:10:19Z</time>
      </trkpt>
      <trkpt lat="47.66194" lon="5.06369">
        <ele>393.6</ele>
        <time>2022-06-09T08:10:22Z</time>
      </trkpt>
      <trkpt lat="47.66191" lon="5.0637">
        <ele>393.52</ele>
        <time>2022-06-09T08:10:25Z</time>
      </trkpt>
      <trkpt lat="47.66187" lon="5.0637">
        <ele>393.67</ele>
        <time>2022-06-09T08:10:26Z</time>
      </trkpt>
      <trkpt lat="47.66184" lon="5.0637">
        <ele>393.78</ele>
        <time>2022-06-09T08:10:30Z</time>
      </trkpt>
      <trkpt lat="47.66181" lon="5.06371">
        <ele>393.7</ele>
        <time>2022-06-09T08:10:32Z</time>
      </trkpt>
      <trkpt lat="47.66178" lon="5.06371">
        <ele>393.81</ele>
        <time>2022-06-09T08:10:35Z</time>
      </trkpt>
      <trkpt lat="47.66175" lon="5.06372">
        <ele>393.74</ele>
        <time>2022-06-09T08:10:38Z</time>
      </trkpt>
      <trkpt lat="47.66171" lon="5.06373">
        <ele>393.7</ele>
        <time>2022-06-09T08:10:39Z</time>
      </trkpt>
      <trkpt lat="47.66168" lon="5.06373">
        <ele>393.81</ele>
        <time>2022-06-09T08:10:42Z</time>
      </trkpt>
      <trkpt lat="47.66165" lon="5.06373">
        <ele>393.92</ele>
        <time>2022-06-09T08:10:44Z</time>
      </trkpt>
      <trkpt lat="47.66161" lon="5.06373">
        <ele>394.06</ele>
        <time>2022-06-09T08:10:47Z</time>
      </trkpt>
      <trkpt lat="47.66158" lon="5.06374">
        <ele>393.99</ele>
        <time>2022-06-09T08:10:51Z</time>
      </trkpt>
      <trkpt lat="47.66155" lon="5.06375">
        <ele>393.92</ele>
        <time>2022-06-09T08:10:53Z</time>
      </trkpt>
      <trkpt lat="47.66152" lon="5.06376">
        <ele>393.85</ele>
        <time>2022-06-09T08:10:56Z</time>
      </trkpt>
      <trkpt lat="47.66148" lon="5.06376">
        <ele>393.99</ele>
        <time>2022-06-09T08:10:58Z</time>
      </trkpt>
      <trkpt lat="47.66146" lon="5.06377">
        <ele>393.88</ele>
        <time>2022-06-09T08:11:00Z</time>
      </trkpt>
      <trkpt lat="47.66143" lon="5.06377">
        <ele>393.99</ele>
        <time>2022-06-09T08:11:03Z</time>
      </trkpt>
      <trkpt lat="47.6614" lon="5.06378">
        <ele>393.92</ele>
        <time>2022-06-09T08:11:07Z</time>
      </trkpt>
      <trkpt lat="47.66137" lon="5.06379">
        <ele>394.08</ele>
        <time>2022-06-09T08:11:10Z</time>
      </trkpt>
      <trkpt lat="47.66134" lon="5.0638">
        <ele>394.36</ele>
        <time>2022-06-09T08:11:12Z</time>
      </trkpt>
      <trkpt lat="47.66131" lon="5.06381">
        <ele>394.64</ele>
        <time>2022-06-09T08:11:15Z</time>
      </trkpt>
      <trkpt lat="47.66128" lon="5.06382">
        <ele>394.91</ele>
        <time>2022-06-09T08:11:17Z</time>
      </trkpt>
      <trkpt lat="47.66125" lon="5.06384">
        <ele>394.97</ele>
        <time>2022-06-09T08:11:20Z</time>
      </trkpt>
      <trkpt lat="47.66122" lon="5.06384">
        <ele>395.42</ele>
        <time>2022-06-09T08:11:22Z</time>
      </trkpt>
      <trkpt lat="47.6612" lon="5.06385">
        <ele>395.52</ele>
        <time>2022-06-09T08:11:26Z</time>
      </trkpt>
      <trkpt lat="47.66117" lon="5.06386">
        <ele>395.75</ele>
        <time>2022-06-09T08:11:27Z</time>
      </trkpt>
      <trkpt lat="47.66113" lon="5.06387">
        <ele>396.13</ele>
        <time>2022-06-09T08:11:32Z</time>
      </trkpt>
      <trkpt lat="47.6611" lon="5.06389">
        <ele>396.11</ele>
        <time>2022-06-09T08:11:35Z</time>
      </trkpt>
      <trkpt lat="47.66107" lon="5.0639">
        <ele>396.31</ele>
        <time>2022-06-09T08:11:37Z</time>
      </trkpt>
      <trkpt lat="47.66104" lon="5.06391">
        <ele>396.5</ele>
        <time>2022-06-09T08:11:40Z</time>
      </trkpt>
      <trkpt lat="47.66101" lon="5.06392">
        <ele>396.67</ele>
        <time>2022-06-09T08:11:43Z</time>
      </trkpt>
      <trkpt lat="47.66098" lon="5.06393">
        <ele>396.83</ele>
        <time>2022-06-09T08:11:45Z</time>
      </trkpt>
      <trkpt lat="47.66095" lon="5.06394">
        <ele>396.97</ele>
        <time>2022-06-09T08:11:48Z</time>
      </trkpt>
      <trkpt lat="47.66091" lon="5.06394">
        <ele>397.35</ele>
        <time>2022-06-09T08:11:52Z</time>
      </trkpt>
      <trkpt lat="47.66088" lon="5.06395">
        <ele>397.47</ele>
        <time>2022-06-09T08:11:55Z</time>
      </trkpt>
      <trkpt lat="47.66084" lon="5.06396">
        <ele>397.66</ele>
        <time>2022-06-09T08:11:56Z</time>
      </trkpt>
      <trkpt lat="47.66081" lon="5.06398">
        <ele>397.53</ele>
        <time>2022-06-09T08:11:59Z</time>
      </trkpt>
      <trkpt lat="47.66078" lon="5.06398">
        <ele>397.74</ele>
        <time>2022-06-09T08:12:01Z</time>
      </trkpt>
      <trkpt lat="47.66075" lon="5.06399">
        <ele>397.81</ele>
        <time>2022-06-09T08:12:03Z</time>
      </trkpt>
      <trkpt lat="47.66071" lon="5.06399">
        <ele>398.11</ele>
        <time>2022-06-09T08:12:06Z</time>
      </trkpt>
      <trkpt lat="47.66068" lon="5.064">
        <ele>398.21</ele>
        <time>2022-06-09T08:12:07Z</time>
      </trkpt>
      <trkpt lat="47.66065" lon="5.064">
        <ele>398.45</ele>
        <time>2022-06-09T08:12:12Z</time>
      </trkpt>
      <trkpt lat="47.66062" lon="5.06402">
        <ele>398.5</ele>
        <time>2022-06-09T08:12:13Z</time>
      </trkpt>
      <trkpt lat="47.66059" lon="5.06403">
        <ele>398.67</ele>
        <time>2022-06-09T08:12:17Z</time>
      </trkpt>
      <trkpt lat="47.66056" lon="5.06404">
        <ele>398.87</ele>
        <time>2022-06-09T08:12:20Z</time>
      </trkpt>
      <trkpt lat="47.66054" lon="5.06406">
        <ele>398.88</ele>
        <time>2022-06-09T08:12:23Z</time>
      </trkpt>
      <trkpt lat="47.66051" lon="5.06408">
        <ele>398.95</ele>
        <time>2022-06-09T08:12:25Z</time>
      </trkpt>
      <trkpt lat="47.66048" lon="5.06409">
        <ele>399.1</ele>
        <time>2022-06-09T08:12:28Z</time>
      </trkpt>
      <trkpt lat="47.66044" lon="5.06412">
        <ele>399.17</ele>
        <time>2022-06-09T08:12:31Z</time>
      </trkpt>
      <trkpt lat="47.66041" lon="5.06413">
        <ele>399.31</ele>
        <time>2022-06-09T08:12:32Z</time>
      </trkpt>
      <trkpt lat="47.66039" lon="5.06414">
        <ele>399.38</ele>
        <time>2022-06-09T08:12:35Z</time>
      </trkpt>
      <trkpt lat="47.66035" lon="5.06416">
        <ele>399.53</ele>
        <time>2022-06-09T08:12:37Z</time>
      </trkpt>
      <trkpt lat="47.66032" lon="5.06417">
        <ele>399.66</ele>
        <time>2022-06-09T08:12:41Z</time>
      </trkpt>
      <trkpt lat="47.66029" lon="5.06418">
        <ele>399.77</ele>
        <time>2022-06-09T08:12:43Z</time>
      </trkpt>
      <trkpt lat="47.66026" lon="5.06419">
        <ele>399.81</ele>
        <time>2022-06-09T08:12:46Z</time>
      </trkpt>
      <trkpt lat="47.66023" lon="5.0642">
        <ele>399.81</ele>
        <time>2022-06-09T08:12:48Z</time>
      </trkpt>
      <trkpt lat="47.66019" lon="5.06421">
        <ele>399.85</ele>
        <time>2022-06-09T08:12:50Z</time>
      </trkpt>
      <trkpt lat="47.66017" lon="5.06421">
        <ele>399.92</ele>
        <time>2022-06-09T08:12:53Z</time>
      </trkpt>
      <trkpt lat="47.66013" lon="5.06422">
        <ele>399.96</ele>
        <time>2022-06-09T08:12:55Z</time>
      </trkpt>
      <trkpt lat="47.66009" lon="5.06422">
        <ele>400.1</ele>
        <time>2022-06-09T08:12:58Z</time>
      </trkpt>
      <trkpt lat="47.66006" lon="5.06423">
        <ele>400.1</ele>
        <time>2022-06-09T08:12:59Z</time>
      </trkpt>
      <trkpt lat="47.66003" lon="5.06424">
        <ele>400.1</ele>
        <time>2022-06-09T08:13:03Z</time>
      </trkpt>
      <trkpt lat="47.66001" lon="5.06424">
        <ele>400.17</ele>
        <time>2022-06-09T08:13:05Z</time>
      </trkpt>
      <trkpt lat="47.65998" lon="5.06424">
        <ele>400.48</ele>
        <time>2022-06-09T08:13:08Z</time>
      </trkpt>
      <trkpt lat="47.65995" lon="5.06425">
        <ele>400.77</ele>
        <time>2022-06-09T08:13:09Z</time>
      </trkpt>
      <trkpt lat="47.65991" lon="5.06426">
        <ele>401.18</ele>
        <time>2022-06-09T08:13:12Z</time>
      </trkpt>
      <trkpt lat="47.65987" lon="5.06426">
        <ele>401.71</ele>
        <time>2022-06-09T08:13:14Z</time>
      </trkpt>
      <trkpt lat="47.65983" lon="5.06427">
        <ele>402.1</ele>
        <time>2022-06-09T08:13:16Z</time>
      </trkpt>
      <trkpt lat="47.6598" lon="5.06428">
        <ele>402.36</ele>
        <time>2022-06-09T08:13:18Z</time>
      </trkpt>
      <trkpt lat="47.65978" lon="5.06429">
        <ele>402.48</ele>
        <time>2022-06-09T08:13:19Z</time>
      </trkpt>
      <trkpt lat="47.65974" lon="5.06429">
        <ele>403</ele>
        <time>2022-06-09T08:13:22Z</time>
      </trkpt>
      <trkpt lat="47.65971" lon="5.0643">
        <ele>403.17</ele>
        <time>2022-06-09T08:13:25Z</time>
      </trkpt>
      <trkpt lat="47.65968" lon="5.0643">
        <ele>403.4</ele>
        <time>2022-06-09T08:13:28Z</time>
      </trkpt>
      <trkpt lat="47.65965" lon="5.0643">
        <ele>403.62</ele>
        <time>2022-06-09T08:13:31Z</time>
      </trkpt>
      <trkpt lat="47.65961" lon="5.06432">
        <ele>403.52</ele>
        <time>2022-06-09T08:13:33Z</time>
      </trkpt>
      <trkpt lat="47.65958" lon="5.06433">
        <ele>403.49</ele>
        <time>2022-06-09T08:13:35Z</time>
      </trkpt>
      <trkpt lat="47.65954" lon="5.06433">
        <ele>403.73</ele>
        <time>2022-06-09T08:13:38Z</time>
      </trkpt>
      <trkpt lat="47.65951" lon="5.06434">
        <ele>403.65</ele>
        <time>2022-06-09T08:13:39Z</time>
      </trkpt>
      <trkpt lat="47.65947" lon="5.06434">
        <ele>403.87</ele>
        <time>2022-06-09T08:13:43Z</time>
      </trkpt>
      <trkpt lat="47.65944" lon="5.06434">
        <ele>403.95</ele>
        <time>2022-06-09T08:13:44Z</time>
      </trkpt>
      <trkpt lat="47.6594" lon="5.06434">
        <ele>403.45</ele>
        <time>2022-06-09T08:13:46Z</time>
      </trkpt>
      <trkpt lat="47.65937" lon="5.06434">
        <ele>403.07</ele>
        <time>2022-06-09T08:13:48Z</time>
      </trkpt>
      <trkpt lat="47.65935" lon="5.06434">
        <ele>402.82</ele>
        <time>2022-06-09T08:13:49Z</time>
      </trkpt>
      <trkpt lat="47.65932" lon="5.06433">
        <ele>402.66</ele>
        <time>2022-06-09T08:13:50Z</time>
      </trkpt>
      <trkpt lat="47.65929" lon="5.06433">
        <ele>402.27</ele>
        <time>2022-06-09T08:13:52Z</time>
      </trkpt>
      <trkpt lat="47.65926" lon="5.06432">
        <ele>402.07</ele>
        <time>2022-06-09T08:13:54Z</time>
      </trkpt>
      <trkpt lat="47.65923" lon="5.06432">
        <ele>401.66</ele>
        <time>2022-06-09T08:13:56Z</time>
      </trkpt>
      <trkpt lat="47.65921" lon="5.06431">
        <ele>401.55</ele>
        <time>2022-06-09T08:13:59Z</time>
      </trkpt>
      <trkpt lat="47.65918" lon="5.06431">
        <ele>401.12</ele>
        <time>2022-06-09T08:14:01Z</time>
      </trkpt>
      <trkpt lat="47.65914" lon="5.06431">
        <ele>400.56</ele>
        <time>2022-06-09T08:14:04Z</time>
      </trkpt>
      <trkpt lat="47.65912" lon="5.06431">
        <ele>400.27</ele>
        <time>2022-06-09T08:14:06Z</time>
      </trkpt>
      <trkpt lat="47.65909" lon="5.06431">
        <ele>399.84</ele>
        <time>2022-06-09T08:14:09Z</time>
      </trkpt>
      <trkpt lat="47.65905" lon="5.06431">
        <ele>399.27</ele>
        <time>2022-06-09T08:14:11Z</time>
      </trkpt>
      <trkpt lat="47.65903" lon="5.06432">
        <ele>398.88</ele>
        <time>2022-06-09T08:14:14Z</time>
      </trkpt>
      <trkpt lat="47.659" lon="5.06431">
        <ele>398.56</ele>
        <time>2022-06-09T08:14:16Z</time>
      </trkpt>
      <trkpt lat="47.65897" lon="5.06429">
        <ele>398.31</ele>
        <time>2022-06-09T08:14:18Z</time>
      </trkpt>
      <trkpt lat="47.65893" lon="5.06428">
        <ele>397.8</ele>
        <time>2022-06-09T08:14:21Z</time>
      </trkpt>
      <trkpt lat="47.6589" lon="5.06428">
        <ele>397.35</ele>
        <time>2022-06-09T08:14:22Z</time>
      </trkpt>
      <trkpt lat="47.65886" lon="5.06427">
        <ele>397</ele>
        <time>2022-06-09T08:14:25Z</time>
      </trkpt>
      <trkpt lat="47.65882" lon="5.06426">
        <ele>396.75</ele>
        <time>2022-06-09T08:14:27Z</time>
      </trkpt>
      <trkpt lat="47.65879" lon="5.06425">
        <ele>396.62</ele>
        <time>2022-06-09T08:14:28Z</time>
      </trkpt>
      <trkpt lat="47.65876" lon="5.06424">
        <ele>396.52</ele>
        <time>2022-06-09T08:14:31Z</time>
      </trkpt>
      <trkpt lat="47.65873" lon="5.06423">
        <ele>396.45</ele>
        <time>2022-06-09T08:14:33Z</time>
      </trkpt>
      <trkpt lat="47.6587" lon="5.06422">
        <ele>396.41</ele>
        <time>2022-06-09T08:14:36Z</time>
      </trkpt>
      <trkpt lat="47.65866" lon="5.06421">
        <ele>396.35</ele>
        <time>2022-06-09T08:14:37Z</time>
      </trkpt>
      <trkpt lat="47.65864" lon="5.06421">
        <ele>396.23</ele>
        <time>2022-06-09T08:14:39Z</time>
      </trkpt>
      <trkpt lat="47.65861" lon="5.0642">
        <ele>396.28</ele>
        <time>2022-06-09T08:14:41Z</time>
      </trkpt>
      <trkpt lat="47.65858" lon="5.06417">
        <ele>397.04</ele>
        <time>2022-06-09T08:14:46Z</time>
      </trkpt>
      <trkpt lat="47.65855" lon="5.06415">
        <ele>397.36</ele>
        <time>2022-06-09T08:14:48Z</time>
      </trkpt>
      <trkpt lat="47.65852" lon="5.06414">
        <ele>397.52</ele>
        <time>2022-06-09T08:14:50Z</time>
      </trkpt>
      <trkpt lat="47.65849" lon="5.06413">
        <ele>397.66</ele>
        <time>2022-06-09T08:14:53Z</time>
      </trkpt>
      <trkpt lat="47.65845" lon="5.06412">
        <ele>397.79</ele>
        <time>2022-06-09T08:14:54Z</time>
      </trkpt>
      <trkpt lat="47.65841" lon="5.0641">
        <ele>397.92</ele>
        <time>2022-06-09T08:14:57Z</time>
      </trkpt>
      <trkpt lat="47.65838" lon="5.06409">
        <ele>397.97</ele>
        <time>2022-06-09T08:14:58Z</time>
      </trkpt>
      <trkpt lat="47.65836" lon="5.06408">
        <ele>397.99</ele>
        <time>2022-06-09T08:15:00Z</time>
      </trkpt>
      <trkpt lat="47.65833" lon="5.06407">
        <ele>397.96</ele>
        <time>2022-06-09T08:15:01Z</time>
      </trkpt>
      <trkpt lat="47.65829" lon="5.06405">
        <ele>397.44</ele>
        <time>2022-06-09T08:15:04Z</time>
      </trkpt>
      <trkpt lat="47.65826" lon="5.06404">
        <ele>397.06</ele>
        <time>2022-06-09T08:15:05Z</time>
      </trkpt>
      <trkpt lat="47.65824" lon="5.06403">
        <ele>396.82</ele>
        <time>2022-06-09T08:15:07Z</time>
      </trkpt>
      <trkpt lat="47.65821" lon="5.06401">
        <ele>396.47</ele>
        <time>2022-06-09T08:15:10Z</time>
      </trkpt>
      <trkpt lat="47.65818" lon="5.06399">
        <ele>396.14</ele>
        <time>2022-06-09T08:15:13Z</time>
      </trkpt>
      <trkpt lat="47.65814" lon="5.06397">
        <ele>395.71</ele>
        <time>2022-06-09T08:15:16Z</time>
      </trkpt>
      <trkpt lat="47.65811" lon="5.06396">
        <ele>395.38</ele>
        <time>2022-06-09T08:15:18Z</time>
      </trkpt>
      <trkpt lat="47.65809" lon="5.06394">
        <ele>395.21</ele>
        <time>2022-06-09T08:15:19Z</time>
      </trkpt>
      <trkpt lat="47.65806" lon="5.06392">
        <ele>394.94</ele>
        <time>2022-06-09T08:15:22Z</time>
      </trkpt>
      <trkpt lat="47.65803" lon="5.06389">
        <ele>394.99</ele>
        <time>2022-06-09T08:15:24Z</time>
      </trkpt>
      <trkpt lat="47.658" lon="5.06388">
        <ele>395.13</ele>
        <time>2022-06-09T08:15:25Z</time>
      </trkpt>
      <trkpt lat="47.65797" lon="5.06387">
        <ele>395.29</ele>
        <time>2022-06-09T08:15:28Z</time>
      </trkpt>
      <trkpt lat="47.65795" lon="5.06385">
        <ele>395.61</ele>
        <time>2022-06-09T08:15:30Z</time>
      </trkpt>
      <trkpt lat="47.65791" lon="5.06382">
        <ele>396.12</ele>
        <time>2022-06-09T08:15:32Z</time>
      </trkpt>
      <trkpt lat="47.65788" lon="5.0638">
        <ele>396.48</ele>
        <time>2022-06-09T08:15:35Z</time>
      </trkpt>
      <trkpt lat="47.65785" lon="5.06378">
        <ele>396.86</ele>
        <time>2022-06-09T08:15:36Z</time>
      </trkpt>
      <trkpt lat="47.65782" lon="5.06376">
        <ele>397.25</ele>
        <time>2022-06-09T08:15:38Z</time>
      </trkpt>
      <trkpt lat="47.65779" lon="5.06375">
        <ele>397.48</ele>
        <time>2022-06-09T08:15:41Z</time>
      </trkpt>
      <trkpt lat="47.65776" lon="5.06374">
        <ele>397.55</ele>
        <time>2022-06-09T08:15:42Z</time>
      </trkpt>
      <trkpt lat="47.65774" lon="5.06372">
        <ele>397.74</ele>
        <time>2022-06-09T08:15:44Z</time>
      </trkpt>
      <trkpt lat="47.65771" lon="5.0637">
        <ele>397.82</ele>
        <time>2022-06-09T08:15:47Z</time>
      </trkpt>
      <trkpt lat="47.65768" lon="5.06368">
        <ele>397.88</ele>
        <time>2022-06-09T08:15:49Z</time>
      </trkpt>
      <trkpt lat="47.65765" lon="5.06366">
        <ele>397.9</ele>
        <time>2022-06-09T08:15:51Z</time>
      </trkpt>
      <trkpt lat="47.65762" lon="5.06364">
        <ele>397.89</ele>
        <time>2022-06-09T08:15:53Z</time>
      </trkpt>
      <trkpt lat="47.65759" lon="5.06362">
        <ele>397.86</ele>
        <time>2022-06-09T08:15:55Z</time>
      </trkpt>
      <trkpt lat="47.65757" lon="5.06359">
        <ele>397.95</ele>
        <time>2022-06-09T08:15:58Z</time>
      </trkpt>
      <trkpt lat="47.65754" lon="5.06356">
        <ele>397.85</ele>
        <time>2022-06-09T08:16:02Z</time>
      </trkpt>
      <trkpt lat="47.65751" lon="5.06353">
        <ele>397.71</ele>
        <time>2022-06-09T08:16:05Z</time>
      </trkpt>
      <trkpt lat="47.65749" lon="5.06351">
        <ele>397.64</ele>
        <time>2022-06-09T08:16:07Z</time>
      </trkpt>
      <trkpt lat="47.65746" lon="5.06348">
        <ele>397.59</ele>
        <time>2022-06-09T08:16:09Z</time>
      </trkpt>
      <trkpt lat="47.65743" lon="5.06346">
        <ele>397.45</ele>
        <time>2022-06-09T08:16:10Z</time>
      </trkpt>
      <trkpt lat="47.6574" lon="5.06343">
        <ele>397.35</ele>
        <time>2022-06-09T08:16:13Z</time>
      </trkpt>
      <trkpt lat="47.65737" lon="5.06341">
        <ele>397.17</ele>
        <time>2022-06-09T08:16:15Z</time>
      </trkpt>
      <trkpt lat="47.65735" lon="5.06339">
        <ele>397.08</ele>
        <time>2022-06-09T08:16:16Z</time>
      </trkpt>
      <trkpt lat="47.65732" lon="5.06337">
        <ele>396.88</ele>
        <time>2022-06-09T08:16:19Z</time>
      </trkpt>
      <trkpt lat="47.6573" lon="5.06335">
        <ele>396.76</ele>
        <time>2022-06-09T08:16:21Z</time>
      </trkpt>
      <trkpt lat="47.65727" lon="5.06333">
        <ele>396.54</ele>
        <time>2022-06-09T08:16:22Z</time>
      </trkpt>
      <trkpt lat="47.65723" lon="5.06332">
        <ele>396.18</ele>
        <time>2022-06-09T08:16:25Z</time>
      </trkpt>
      <trkpt lat="47.65721" lon="5.0633">
        <ele>396.05</ele>
        <time>2022-06-09T08:16:27Z</time>
      </trkpt>
      <trkpt lat="47.65718" lon="5.06329">
        <ele>395.66</ele>
        <time>2022-06-09T08:16:29Z</time>
      </trkpt>
      <trkpt lat="47.65715" lon="5.06327">
        <ele>395.3</ele>
        <time>2022-06-09T08:16:32Z</time>
      </trkpt>
      <trkpt lat="47.65712" lon="5.06326">
        <ele>394.86</ele>
        <time>2022-06-09T08:16:33Z</time>
      </trkpt>
      <trkpt lat="47.65709" lon="5.06324">
        <ele>394.45</ele>
        <time>2022-06-09T08:16:35Z</time>
      </trkpt>
      <trkpt lat="47.65706" lon="5.06323">
        <ele>393.97</ele>
        <time>2022-06-09T08:16:39Z</time>
      </trkpt>
      <trkpt lat="47.65704" lon="5.06321">
        <ele>393.68</ele>
        <time>2022-06-09T08:16:43Z</time>
      </trkpt>
      <trkpt lat="47.65701" lon="5.06318">
        <ele>393.2</ele>
        <time>2022-06-09T08:16:48Z</time>
      </trkpt>
      <trkpt lat="47.65698" lon="5.06316">
        <ele>392.67</ele>
        <time>2022-06-09T08:16:52Z</time>
      </trkpt>
      <trkpt lat="47.65695" lon="5.06315">
        <ele>392.11</ele>
        <time>2022-06-09T08:16:54Z</time>
      </trkpt>
      <trkpt lat="47.65692" lon="5.06313">
        <ele>391.6</ele>
        <time>2022-06-09T08:16:57Z</time>
      </trkpt>
      <trkpt lat="47.6569" lon="5.0631">
        <ele>391.31</ele>
        <time>2022-06-09T08:17:00Z</time>
      </trkpt>
      <trkpt lat="47.65688" lon="5.06307">
        <ele>391.05</ele>
        <time>2022-06-09T08:17:03Z</time>
      </trkpt>
      <trkpt lat="47.65685" lon="5.06304">
        <ele>390.77</ele>
        <time>2022-06-09T08:17:07Z</time>
      </trkpt>
      <trkpt lat="47.65683" lon="5.06302">
        <ele>390.63</ele>
        <time>2022-06-09T08:17:09Z</time>
      </trkpt>
      <trkpt lat="47.6568" lon="5.06299">
        <ele>390.38</ele>
        <time>2022-06-09T08:17:11Z</time>
      </trkpt>
      <trkpt lat="47.65678" lon="5.06296">
        <ele>390.26</ele>
        <time>2022-06-09T08:17:16Z</time>
      </trkpt>
      <trkpt lat="47.65677" lon="5.0629">
        <ele>390.46</ele>
        <time>2022-06-09T08:17:19Z</time>
      </trkpt>
      <trkpt lat="47.65677" lon="5.06286">
        <ele>390.72</ele>
        <time>2022-06-09T08:17:23Z</time>
      </trkpt>
      <trkpt lat="47.65676" lon="5.06282">
        <ele>390.76</ele>
        <time>2022-06-09T08:17:30Z</time>
      </trkpt>
      <trkpt lat="47.65676" lon="5.06278">
        <ele>391</ele>
        <time>2022-06-09T08:18:06Z</time>
      </trkpt>
      <trkpt lat="47.65679" lon="5.0628">
        <ele>391.51</ele>
        <time>2022-06-09T08:18:28Z</time>
      </trkpt>
      <trkpt lat="47.6568" lon="5.06284">
        <ele>391.44</ele>
        <time>2022-06-09T08:18:32Z</time>
      </trkpt>
      <trkpt lat="47.65682" lon="5.06288">
        <ele>391.54</ele>
        <time>2022-06-09T08:18:41Z</time>
      </trkpt>
      <trkpt lat="47.65682" lon="5.06293">
        <ele>391.16</ele>
        <time>2022-06-09T08:18:48Z</time>
      </trkpt>
      <trkpt lat="47.65681" lon="5.06297">
        <ele>390.69</ele>
        <time>2022-06-09T08:18:58Z</time>
      </trkpt>
      <trkpt lat="47.65682" lon="5.063">
        <ele>390.63</ele>
        <time>2022-06-09T08:20:16Z</time>
      </trkpt>
      <trkpt lat="47.65685" lon="5.063">
        <ele>391.1</ele>
        <time>2022-06-09T08:22:15Z</time>
      </trkpt>
      <trkpt lat="47.65687" lon="5.06298">
        <ele>391.6</ele>
        <time>2022-06-09T08:22:18Z</time>
      </trkpt>
      <trkpt lat="47.65689" lon="5.06295">
        <ele>392.21</ele>
        <time>2022-06-09T08:22:25Z</time>
      </trkpt>
      <trkpt lat="47.65691" lon="5.06292">
        <ele>392.85</ele>
        <time>2022-06-09T08:22:30Z</time>
      </trkpt>
      <trkpt lat="47.65693" lon="5.06289">
        <ele>393.52</ele>
        <time>2022-06-09T08:22:35Z</time>
      </trkpt>
      <trkpt lat="47.65695" lon="5.06286">
        <ele>394.25</ele>
        <time>2022-06-09T08:22:39Z</time>
      </trkpt>
      <trkpt lat="47.65697" lon="5.06283">
        <ele>395.06</ele>
        <time>2022-06-09T08:22:42Z</time>
      </trkpt>
      <trkpt lat="47.65699" lon="5.06279">
        <ele>396.01</ele>
        <time>2022-06-09T08:22:46Z</time>
      </trkpt>
      <trkpt lat="47.65701" lon="5.06275">
        <ele>396.8</ele>
        <time>2022-06-09T08:22:50Z</time>
      </trkpt>
      <trkpt lat="47.65703" lon="5.06272">
        <ele>397.44</ele>
        <time>2022-06-09T08:22:53Z</time>
      </trkpt>
      <trkpt lat="47.65705" lon="5.06268">
        <ele>398.1</ele>
        <time>2022-06-09T08:22:57Z</time>
      </trkpt>
      <trkpt lat="47.65707" lon="5.06265">
        <ele>398.67</ele>
        <time>2022-06-09T08:22:58Z</time>
      </trkpt>
      <trkpt lat="47.65709" lon="5.06262">
        <ele>399.21</ele>
        <time>2022-06-09T08:23:02Z</time>
      </trkpt>
      <trkpt lat="47.65711" lon="5.06259">
        <ele>399.72</ele>
        <time>2022-06-09T08:23:06Z</time>
      </trkpt>
      <trkpt lat="47.65713" lon="5.06256">
        <ele>400.2</ele>
        <time>2022-06-09T08:23:11Z</time>
      </trkpt>
      <trkpt lat="47.65715" lon="5.06254">
        <ele>400.63</ele>
        <time>2022-06-09T08:23:13Z</time>
      </trkpt>
      <trkpt lat="47.65718" lon="5.06252">
        <ele>401.22</ele>
        <time>2022-06-09T08:23:17Z</time>
      </trkpt>
      <trkpt lat="47.65719" lon="5.06248">
        <ele>401.36</ele>
        <time>2022-06-09T08:23:21Z</time>
      </trkpt>
      <trkpt lat="47.65721" lon="5.06245">
        <ele>401.62</ele>
        <time>2022-06-09T08:23:24Z</time>
      </trkpt>
      <trkpt lat="47.65723" lon="5.06242">
        <ele>401.8</ele>
        <time>2022-06-09T08:23:28Z</time>
      </trkpt>
      <trkpt lat="47.65725" lon="5.06239">
        <ele>401.94</ele>
        <time>2022-06-09T08:23:31Z</time>
      </trkpt>
      <trkpt lat="47.65728" lon="5.06235">
        <ele>402.2</ele>
        <time>2022-06-09T08:23:35Z</time>
      </trkpt>
      <trkpt lat="47.65729" lon="5.06232">
        <ele>402.24</ele>
        <time>2022-06-09T08:23:38Z</time>
      </trkpt>
      <trkpt lat="47.65732" lon="5.06228">
        <ele>402.54</ele>
        <time>2022-06-09T08:23:41Z</time>
      </trkpt>
      <trkpt lat="47.65734" lon="5.06226">
        <ele>402.77</ele>
        <time>2022-06-09T08:23:42Z</time>
      </trkpt>
      <trkpt lat="47.65736" lon="5.06223">
        <ele>403</ele>
        <time>2022-06-09T08:23:44Z</time>
      </trkpt>
      <trkpt lat="47.65738" lon="5.06219">
        <ele>403.26</ele>
        <time>2022-06-09T08:23:47Z</time>
      </trkpt>
      <trkpt lat="47.6574" lon="5.06216">
        <ele>403.5</ele>
        <time>2022-06-09T08:23:48Z</time>
      </trkpt>
      <trkpt lat="47.65742" lon="5.06212">
        <ele>403.69</ele>
        <time>2022-06-09T08:23:53Z</time>
      </trkpt>
      <trkpt lat="47.65743" lon="5.06209">
        <ele>403.76</ele>
        <time>2022-06-09T08:23:56Z</time>
      </trkpt>
      <trkpt lat="47.65745" lon="5.06206">
        <ele>403.91</ele>
        <time>2022-06-09T08:23:59Z</time>
      </trkpt>
      <trkpt lat="47.65747" lon="5.06203">
        <ele>404.03</ele>
        <time>2022-06-09T08:24:02Z</time>
      </trkpt>
      <trkpt lat="47.6575" lon="5.062">
        <ele>404.2</ele>
        <time>2022-06-09T08:24:08Z</time>
      </trkpt>
      <trkpt lat="47.65752" lon="5.06196">
        <ele>404.34</ele>
        <time>2022-06-09T08:24:10Z</time>
      </trkpt>
      <trkpt lat="47.65754" lon="5.06192">
        <ele>404.68</ele>
        <time>2022-06-09T08:24:13Z</time>
      </trkpt>
      <trkpt lat="47.65756" lon="5.0619">
        <ele>405.06</ele>
        <time>2022-06-09T08:24:15Z</time>
      </trkpt>
      <trkpt lat="47.65759" lon="5.06187">
        <ele>405.65</ele>
        <time>2022-06-09T08:24:18Z</time>
      </trkpt>
      <trkpt lat="47.65761" lon="5.06184">
        <ele>406.11</ele>
        <time>2022-06-09T08:24:20Z</time>
      </trkpt>
      <trkpt lat="47.65763" lon="5.0618">
        <ele>406.64</ele>
        <time>2022-06-09T08:24:25Z</time>
      </trkpt>
      <trkpt lat="47.65765" lon="5.06177">
        <ele>407.13</ele>
        <time>2022-06-09T08:24:26Z</time>
      </trkpt>
      <trkpt lat="47.65767" lon="5.06174">
        <ele>407.63</ele>
        <time>2022-06-09T08:24:28Z</time>
      </trkpt>
      <trkpt lat="47.65769" lon="5.0617">
        <ele>408.22</ele>
        <time>2022-06-09T08:24:31Z</time>
      </trkpt>
      <trkpt lat="47.65771" lon="5.06167">
        <ele>408.76</ele>
        <time>2022-06-09T08:24:35Z</time>
      </trkpt>
      <trkpt lat="47.65774" lon="5.06164">
        <ele>409.47</ele>
        <time>2022-06-09T08:24:37Z</time>
      </trkpt>
      <trkpt lat="47.65776" lon="5.06161">
        <ele>409.94</ele>
        <time>2022-06-09T08:24:42Z</time>
      </trkpt>
      <trkpt lat="47.65778" lon="5.06159">
        <ele>410.25</ele>
        <time>2022-06-09T08:24:44Z</time>
      </trkpt>
      <trkpt lat="47.65781" lon="5.06156">
        <ele>410.08</ele>
        <time>2022-06-09T08:24:46Z</time>
      </trkpt>
      <trkpt lat="47.65782" lon="5.06153">
        <ele>410.11</ele>
        <time>2022-06-09T08:24:49Z</time>
      </trkpt>
      <trkpt lat="47.65785" lon="5.0615">
        <ele>409.98</ele>
        <time>2022-06-09T08:24:53Z</time>
      </trkpt>
      <trkpt lat="47.65787" lon="5.06146">
        <ele>410</ele>
        <time>2022-06-09T08:24:55Z</time>
      </trkpt>
      <trkpt lat="47.65788" lon="5.06143">
        <ele>410.06</ele>
        <time>2022-06-09T08:24:57Z</time>
      </trkpt>
      <trkpt lat="47.65789" lon="5.06139">
        <ele>410.19</ele>
        <time>2022-06-09T08:25:01Z</time>
      </trkpt>
      <trkpt lat="47.65791" lon="5.06134">
        <ele>410.48</ele>
        <time>2022-06-09T08:25:04Z</time>
      </trkpt>
      <trkpt lat="47.65793" lon="5.06131">
        <ele>410.63</ele>
        <time>2022-06-09T08:25:06Z</time>
      </trkpt>
      <trkpt lat="47.65795" lon="5.06127">
        <ele>410.88</ele>
        <time>2022-06-09T08:25:12Z</time>
      </trkpt>
      <trkpt lat="47.65797" lon="5.06125">
        <ele>410.96</ele>
        <time>2022-06-09T08:25:15Z</time>
      </trkpt>
      <trkpt lat="47.658" lon="5.06121">
        <ele>411.2</ele>
        <time>2022-06-09T08:25:18Z</time>
      </trkpt>
      <trkpt lat="47.65802" lon="5.06118">
        <ele>411.42</ele>
        <time>2022-06-09T08:25:21Z</time>
      </trkpt>
      <trkpt lat="47.65804" lon="5.06115">
        <ele>411.64</ele>
        <time>2022-06-09T08:25:26Z</time>
      </trkpt>
      <trkpt lat="47.65806" lon="5.06112">
        <ele>411.92</ele>
        <time>2022-06-09T08:25:30Z</time>
      </trkpt>
      <trkpt lat="47.65808" lon="5.06109">
        <ele>412.16</ele>
        <time>2022-06-09T08:25:32Z</time>
      </trkpt>
      <trkpt lat="47.65811" lon="5.06106">
        <ele>412.34</ele>
        <time>2022-06-09T08:25:37Z</time>
      </trkpt>
      <trkpt lat="47.65813" lon="5.06104">
        <ele>412.46</ele>
        <time>2022-06-09T08:25:39Z</time>
      </trkpt>
      <trkpt lat="47.65815" lon="5.061">
        <ele>412.6</ele>
        <time>2022-06-09T08:25:43Z</time>
      </trkpt>
      <trkpt lat="47.65816" lon="5.06097">
        <ele>412.69</ele>
        <time>2022-06-09T08:25:46Z</time>
      </trkpt>
      <trkpt lat="47.65818" lon="5.06094">
        <ele>412.79</ele>
        <time>2022-06-09T08:25:49Z</time>
      </trkpt>
      <trkpt lat="47.6582" lon="5.0609">
        <ele>412.88</ele>
        <time>2022-06-09T08:25:52Z</time>
      </trkpt>
      <trkpt lat="47.65823" lon="5.06087">
        <ele>412.95</ele>
        <time>2022-06-09T08:25:54Z</time>
      </trkpt>
      <trkpt lat="47.65826" lon="5.06083">
        <ele>413.04</ele>
        <time>2022-06-09T08:25:57Z</time>
      </trkpt>
      <trkpt lat="47.65828" lon="5.0608">
        <ele>413.48</ele>
        <time>2022-06-09T08:26:01Z</time>
      </trkpt>
      <trkpt lat="47.6583" lon="5.06077">
        <ele>414</ele>
        <time>2022-06-09T08:26:03Z</time>
      </trkpt>
      <trkpt lat="47.65832" lon="5.06074">
        <ele>414.6</ele>
        <time>2022-06-09T08:26:08Z</time>
      </trkpt>
      <trkpt lat="47.65833" lon="5.0607">
        <ele>415.37</ele>
        <time>2022-06-09T08:26:12Z</time>
      </trkpt>
      <trkpt lat="47.65835" lon="5.06067">
        <ele>416.24</ele>
        <time>2022-06-09T08:26:15Z</time>
      </trkpt>
      <trkpt lat="47.65837" lon="5.06064">
        <ele>417.08</ele>
        <time>2022-06-09T08:26:17Z</time>
      </trkpt>
      <trkpt lat="47.65839" lon="5.0606">
        <ele>417.98</ele>
        <time>2022-06-09T08:26:21Z</time>
      </trkpt>
      <trkpt lat="47.65841" lon="5.06057">
        <ele>418.64</ele>
        <time>2022-06-09T08:26:24Z</time>
      </trkpt>
      <trkpt lat="47.65843" lon="5.06053">
        <ele>419.02</ele>
        <time>2022-06-09T08:26:26Z</time>
      </trkpt>
      <trkpt lat="47.65844" lon="5.06049">
        <ele>419.1</ele>
        <time>2022-06-09T08:26:29Z</time>
      </trkpt>
      <trkpt lat="47.65847" lon="5.06046">
        <ele>419.47</ele>
        <time>2022-06-09T08:26:32Z</time>
      </trkpt>
      <trkpt lat="47.65849" lon="5.06043">
        <ele>419.75</ele>
        <time>2022-06-09T08:26:34Z</time>
      </trkpt>
      <trkpt lat="47.65851" lon="5.0604">
        <ele>420.06</ele>
        <time>2022-06-09T08:26:36Z</time>
      </trkpt>
      <trkpt lat="47.65854" lon="5.06038">
        <ele>420.54</ele>
        <time>2022-06-09T08:26:40Z</time>
      </trkpt>
      <trkpt lat="47.65856" lon="5.06035">
        <ele>420.92</ele>
        <time>2022-06-09T08:26:43Z</time>
      </trkpt>
      <trkpt lat="47.65858" lon="5.06033">
        <ele>421.29</ele>
        <time>2022-06-09T08:26:46Z</time>
      </trkpt>
      <trkpt lat="47.6586" lon="5.0603">
        <ele>421.73</ele>
        <time>2022-06-09T08:26:49Z</time>
      </trkpt>
      <trkpt lat="47.65863" lon="5.06026">
        <ele>421.95</ele>
        <time>2022-06-09T08:26:52Z</time>
      </trkpt>
      <trkpt lat="47.65865" lon="5.06023">
        <ele>421.9</ele>
        <time>2022-06-09T08:26:55Z</time>
      </trkpt>
      <trkpt lat="47.65867" lon="5.0602">
        <ele>421.9</ele>
        <time>2022-06-09T08:26:59Z</time>
      </trkpt>
      <trkpt lat="47.65869" lon="5.06016">
        <ele>421.94</ele>
        <time>2022-06-09T08:27:02Z</time>
      </trkpt>
      <trkpt lat="47.65871" lon="5.06013">
        <ele>422.04</ele>
        <time>2022-06-09T08:27:04Z</time>
      </trkpt>
      <trkpt lat="47.65874" lon="5.0601">
        <ele>422.25</ele>
        <time>2022-06-09T08:27:06Z</time>
      </trkpt>
      <trkpt lat="47.65876" lon="5.06006">
        <ele>422.48</ele>
        <time>2022-06-09T08:27:10Z</time>
      </trkpt>
      <trkpt lat="47.65878" lon="5.06003">
        <ele>422.74</ele>
        <time>2022-06-09T08:27:13Z</time>
      </trkpt>
      <trkpt lat="47.6588" lon="5.05999">
        <ele>423.17</ele>
        <time>2022-06-09T08:27:18Z</time>
      </trkpt>
      <trkpt lat="47.65882" lon="5.05996">
        <ele>423.8</ele>
        <time>2022-06-09T08:27:20Z</time>
      </trkpt>
      <trkpt lat="47.65884" lon="5.05992">
        <ele>424.57</ele>
        <time>2022-06-09T08:27:22Z</time>
      </trkpt>
      <trkpt lat="47.65886" lon="5.05989">
        <ele>425.23</ele>
        <time>2022-06-09T08:27:23Z</time>
      </trkpt>
      <trkpt lat="47.65888" lon="5.05986">
        <ele>425.9</ele>
        <time>2022-06-09T08:27:26Z</time>
      </trkpt>
      <trkpt lat="47.6589" lon="5.05983">
        <ele>426.52</ele>
        <time>2022-06-09T08:27:32Z</time>
      </trkpt>
      <trkpt lat="47.65892" lon="5.0598">
        <ele>427.05</ele>
        <time>2022-06-09T08:27:37Z</time>
      </trkpt>
      <trkpt lat="47.65895" lon="5.05977">
        <ele>427.61</ele>
        <time>2022-06-09T08:27:40Z</time>
      </trkpt>
      <trkpt lat="47.65897" lon="5.05974">
        <ele>428.07</ele>
        <time>2022-06-09T08:27:42Z</time>
      </trkpt>
      <trkpt lat="47.65899" lon="5.05971">
        <ele>428.48</ele>
        <time>2022-06-09T08:27:45Z</time>
      </trkpt>
      <trkpt lat="47.65901" lon="5.05968">
        <ele>428.83</ele>
        <time>2022-06-09T08:27:50Z</time>
      </trkpt>
      <trkpt lat="47.65903" lon="5.05965">
        <ele>429.16</ele>
        <time>2022-06-09T08:27:52Z</time>
      </trkpt>
      <trkpt lat="47.65906" lon="5.05962">
        <ele>429.49</ele>
        <time>2022-06-09T08:27:55Z</time>
      </trkpt>
      <trkpt lat="47.65907" lon="5.05959">
        <ele>429.77</ele>
        <time>2022-06-09T08:27:59Z</time>
      </trkpt>
      <trkpt lat="47.6591" lon="5.05955">
        <ele>430.15</ele>
        <time>2022-06-09T08:28:01Z</time>
      </trkpt>
      <trkpt lat="47.65912" lon="5.05952">
        <ele>430.41</ele>
        <time>2022-06-09T08:28:05Z</time>
      </trkpt>
      <trkpt lat="47.65914" lon="5.05948">
        <ele>430.73</ele>
        <time>2022-06-09T08:28:07Z</time>
      </trkpt>
      <trkpt lat="47.65916" lon="5.05945">
        <ele>430.96</ele>
        <time>2022-06-09T08:28:11Z</time>
      </trkpt>
      <trkpt lat="47.65918" lon="5.05942">
        <ele>431.48</ele>
        <time>2022-06-09T08:28:14Z</time>
      </trkpt>
      <trkpt lat="47.6592" lon="5.05938">
        <ele>432.18</ele>
        <time>2022-06-09T08:28:18Z</time>
      </trkpt>
      <trkpt lat="47.65922" lon="5.05935">
        <ele>432.67</ele>
        <time>2022-06-09T08:28:24Z</time>
      </trkpt>
      <trkpt lat="47.65924" lon="5.05932">
        <ele>433.11</ele>
        <time>2022-06-09T08:28:29Z</time>
      </trkpt>
      <trkpt lat="47.65926" lon="5.05929">
        <ele>433.48</ele>
        <time>2022-06-09T08:28:35Z</time>
      </trkpt>
      <trkpt lat="47.65928" lon="5.05926">
        <ele>433.8</ele>
        <time>2022-06-09T08:28:40Z</time>
      </trkpt>
      <trkpt lat="47.65931" lon="5.05924">
        <ele>433.97</ele>
        <time>2022-06-09T08:28:49Z</time>
      </trkpt>
      <trkpt lat="47.65933" lon="5.05922">
        <ele>434.1</ele>
        <time>2022-06-09T08:29:09Z</time>
      </trkpt>
      <trkpt lat="47.65934" lon="5.05918">
        <ele>434.3</ele>
        <time>2022-06-09T08:30:14Z</time>
      </trkpt>
      <trkpt lat="47.65936" lon="5.05915">
        <ele>434.3</ele>
        <time>2022-06-09T08:30:21Z</time>
      </trkpt>
      <trkpt lat="47.65937" lon="5.05911">
        <ele>434.23</ele>
        <time>2022-06-09T08:30:53Z</time>
      </trkpt>
      <trkpt lat="47.65939" lon="5.05915">
        <ele>434.17</ele>
        <time>2022-06-09T08:32:47Z</time>
      </trkpt>
      <trkpt lat="47.65937" lon="5.05919">
        <ele>434.18</ele>
        <time>2022-06-09T08:32:51Z</time>
      </trkpt>
      <trkpt lat="47.65934" lon="5.05918">
        <ele>434.3</ele>
        <time>2022-06-09T08:33:29Z</time>
      </trkpt>
      <trkpt lat="47.65935" lon="5.05913">
        <ele>434.34</ele>
        <time>2022-06-09T08:33:39Z</time>
      </trkpt>
      <trkpt lat="47.65936" lon="5.05909">
        <ele>434.28</ele>
        <time>2022-06-09T08:33:42Z</time>
      </trkpt>
      <trkpt lat="47.65937" lon="5.05905">
        <ele>434.19</ele>
        <time>2022-06-09T08:33:48Z</time>
      </trkpt>
      <trkpt lat="47.65938" lon="5.05901">
        <ele>434.06</ele>
        <time>2022-06-09T08:33:50Z</time>
      </trkpt>
      <trkpt lat="47.65939" lon="5.05896">
        <ele>433.89</ele>
        <time>2022-06-09T08:33:54Z</time>
      </trkpt>
      <trkpt lat="47.6594" lon="5.05892">
        <ele>433.7</ele>
        <time>2022-06-09T08:33:59Z</time>
      </trkpt>
      <trkpt lat="47.65941" lon="5.05888">
        <ele>433.65</ele>
        <time>2022-06-09T08:34:03Z</time>
      </trkpt>
      <trkpt lat="47.65942" lon="5.05884">
        <ele>434.22</ele>
        <time>2022-06-09T08:34:07Z</time>
      </trkpt>
      <trkpt lat="47.65943" lon="5.05879">
        <ele>434.97</ele>
        <time>2022-06-09T08:34:09Z</time>
      </trkpt>
      <trkpt lat="47.65944" lon="5.05874">
        <ele>435.74</ele>
        <time>2022-06-09T08:34:14Z</time>
      </trkpt>
      <trkpt lat="47.65946" lon="5.0587">
        <ele>436.45</ele>
        <time>2022-06-09T08:34:15Z</time>
      </trkpt>
      <trkpt lat="47.65947" lon="5.05865">
        <ele>437.34</ele>
        <time>2022-06-09T08:34:19Z</time>
      </trkpt>
      <trkpt lat="47.65948" lon="5.05861">
        <ele>438.01</ele>
        <time>2022-06-09T08:34:23Z</time>
      </trkpt>
      <trkpt lat="47.65949" lon="5.05857">
        <ele>438.25</ele>
        <time>2022-06-09T08:34:27Z</time>
      </trkpt>
      <trkpt lat="47.6595" lon="5.05853">
        <ele>438.47</ele>
        <time>2022-06-09T08:34:29Z</time>
      </trkpt>
      <trkpt lat="47.65951" lon="5.0585">
        <ele>438.61</ele>
        <time>2022-06-09T08:34:31Z</time>
      </trkpt>
      <trkpt lat="47.65953" lon="5.05845">
        <ele>438.8</ele>
        <time>2022-06-09T08:34:35Z</time>
      </trkpt>
      <trkpt lat="47.65954" lon="5.05841">
        <ele>438.95</ele>
        <time>2022-06-09T08:34:37Z</time>
      </trkpt>
      <trkpt lat="47.65955" lon="5.05837">
        <ele>439.08</ele>
        <time>2022-06-09T08:34:40Z</time>
      </trkpt>
      <trkpt lat="47.65956" lon="5.05833">
        <ele>439.17</ele>
        <time>2022-06-09T08:34:44Z</time>
      </trkpt>
      <trkpt lat="47.65957" lon="5.05829">
        <ele>439.11</ele>
        <time>2022-06-09T08:34:47Z</time>
      </trkpt>
      <trkpt lat="47.65958" lon="5.05825">
        <ele>439.03</ele>
        <time>2022-06-09T08:34:49Z</time>
      </trkpt>
      <trkpt lat="47.65959" lon="5.0582">
        <ele>438.93</ele>
        <time>2022-06-09T08:34:53Z</time>
      </trkpt>
      <trkpt lat="47.6596" lon="5.05816">
        <ele>438.81</ele>
        <time>2022-06-09T08:34:55Z</time>
      </trkpt>
      <trkpt lat="47.65961" lon="5.05812">
        <ele>438.66</ele>
        <time>2022-06-09T08:34:58Z</time>
      </trkpt>
      <trkpt lat="47.65962" lon="5.05808">
        <ele>438.5</ele>
        <time>2022-06-09T08:35:02Z</time>
      </trkpt>
      <trkpt lat="47.65964" lon="5.05804">
        <ele>438.21</ele>
        <time>2022-06-09T08:35:04Z</time>
      </trkpt>
      <trkpt lat="47.65965" lon="5.05799">
        <ele>438.15</ele>
        <time>2022-06-09T08:35:08Z</time>
      </trkpt>
      <trkpt lat="47.65966" lon="5.05795">
        <ele>438.11</ele>
        <time>2022-06-09T08:35:11Z</time>
      </trkpt>
      <trkpt lat="47.65967" lon="5.0579">
        <ele>438.1</ele>
        <time>2022-06-09T08:35:12Z</time>
      </trkpt>
      <trkpt lat="47.65967" lon="5.05786">
        <ele>438.19</ele>
        <time>2022-06-09T08:35:18Z</time>
      </trkpt>
      <trkpt lat="47.65969" lon="5.05782">
        <ele>438.12</ele>
        <time>2022-06-09T08:35:22Z</time>
      </trkpt>
      <trkpt lat="47.6597" lon="5.05779">
        <ele>438.12</ele>
        <time>2022-06-09T08:35:26Z</time>
      </trkpt>
      <trkpt lat="47.65971" lon="5.05774">
        <ele>438.09</ele>
        <time>2022-06-09T08:35:28Z</time>
      </trkpt>
      <trkpt lat="47.65972" lon="5.0577">
        <ele>438.02</ele>
        <time>2022-06-09T08:35:32Z</time>
      </trkpt>
      <trkpt lat="47.65973" lon="5.05765">
        <ele>438</ele>
        <time>2022-06-09T08:35:36Z</time>
      </trkpt>
      <trkpt lat="47.65974" lon="5.05761">
        <ele>438</ele>
        <time>2022-06-09T08:35:38Z</time>
      </trkpt>
      <trkpt lat="47.65975" lon="5.05757">
        <ele>438</ele>
        <time>2022-06-09T08:35:41Z</time>
      </trkpt>
      <trkpt lat="47.65976" lon="5.05751">
        <ele>438</ele>
        <time>2022-06-09T08:35:44Z</time>
      </trkpt>
      <trkpt lat="47.65978" lon="5.05746">
        <ele>438.17</ele>
        <time>2022-06-09T08:35:47Z</time>
      </trkpt>
      <trkpt lat="47.65979" lon="5.05742">
        <ele>438.36</ele>
        <time>2022-06-09T08:35:49Z</time>
      </trkpt>
      <trkpt lat="47.6598" lon="5.05738">
        <ele>438.55</ele>
        <time>2022-06-09T08:35:52Z</time>
      </trkpt>
      <trkpt lat="47.65982" lon="5.05735">
        <ele>438.73</ele>
        <time>2022-06-09T08:35:54Z</time>
      </trkpt>
      <trkpt lat="47.65983" lon="5.05731">
        <ele>438.95</ele>
        <time>2022-06-09T08:35:56Z</time>
      </trkpt>
      <trkpt lat="47.65985" lon="5.05727">
        <ele>439.21</ele>
        <time>2022-06-09T08:35:59Z</time>
      </trkpt>
      <trkpt lat="47.65986" lon="5.05722">
        <ele>439.5</ele>
        <time>2022-06-09T08:36:01Z</time>
      </trkpt>
      <trkpt lat="47.65987" lon="5.05718">
        <ele>439.6</ele>
        <time>2022-06-09T08:36:05Z</time>
      </trkpt>
      <trkpt lat="47.65988" lon="5.05714">
        <ele>439.7</ele>
        <time>2022-06-09T08:36:08Z</time>
      </trkpt>
      <trkpt lat="47.6599" lon="5.0571">
        <ele>439.8</ele>
        <time>2022-06-09T08:36:10Z</time>
      </trkpt>
      <trkpt lat="47.65991" lon="5.05705">
        <ele>439.88</ele>
        <time>2022-06-09T08:36:13Z</time>
      </trkpt>
      <trkpt lat="47.65992" lon="5.05701">
        <ele>439.93</ele>
        <time>2022-06-09T08:36:16Z</time>
      </trkpt>
      <trkpt lat="47.65993" lon="5.05697">
        <ele>439.98</ele>
        <time>2022-06-09T08:36:18Z</time>
      </trkpt>
      <trkpt lat="47.65993" lon="5.05692">
        <ele>440.07</ele>
        <time>2022-06-09T08:36:20Z</time>
      </trkpt>
      <trkpt lat="47.65994" lon="5.05687">
        <ele>440.21</ele>
        <time>2022-06-09T08:36:24Z</time>
      </trkpt>
      <trkpt lat="47.65996" lon="5.05683">
        <ele>440.35</ele>
        <time>2022-06-09T08:36:25Z</time>
      </trkpt>
      <trkpt lat="47.65997" lon="5.05679">
        <ele>440.5</ele>
        <time>2022-06-09T08:36:29Z</time>
      </trkpt>
      <trkpt lat="47.65998" lon="5.05676">
        <ele>440.62</ele>
        <time>2022-06-09T08:36:31Z</time>
      </trkpt>
      <trkpt lat="47.65999" lon="5.05671">
        <ele>440.81</ele>
        <time>2022-06-09T08:36:34Z</time>
      </trkpt>
      <trkpt lat="47.66" lon="5.05667">
        <ele>440.99</ele>
        <time>2022-06-09T08:36:36Z</time>
      </trkpt>
      <trkpt lat="47.66001" lon="5.05663">
        <ele>441.25</ele>
        <time>2022-06-09T08:36:39Z</time>
      </trkpt>
      <trkpt lat="47.66002" lon="5.05659">
        <ele>441.51</ele>
        <time>2022-06-09T08:36:41Z</time>
      </trkpt>
      <trkpt lat="47.66003" lon="5.05655">
        <ele>441.75</ele>
        <time>2022-06-09T08:36:44Z</time>
      </trkpt>
      <trkpt lat="47.66004" lon="5.0565">
        <ele>442.03</ele>
        <time>2022-06-09T08:36:47Z</time>
      </trkpt>
      <trkpt lat="47.66005" lon="5.05646">
        <ele>442.22</ele>
        <time>2022-06-09T08:36:49Z</time>
      </trkpt>
      <trkpt lat="47.66005" lon="5.05641">
        <ele>442.52</ele>
        <time>2022-06-09T08:36:54Z</time>
      </trkpt>
      <trkpt lat="47.66006" lon="5.05637">
        <ele>442.6</ele>
        <time>2022-06-09T08:36:57Z</time>
      </trkpt>
      <trkpt lat="47.66007" lon="5.05632">
        <ele>442.62</ele>
        <time>2022-06-09T08:37:00Z</time>
      </trkpt>
      <trkpt lat="47.66009" lon="5.05628">
        <ele>442.61</ele>
        <time>2022-06-09T08:37:02Z</time>
      </trkpt>
      <trkpt lat="47.6601" lon="5.05624">
        <ele>442.67</ele>
        <time>2022-06-09T08:37:04Z</time>
      </trkpt>
      <trkpt lat="47.66011" lon="5.0562">
        <ele>442.75</ele>
        <time>2022-06-09T08:37:08Z</time>
      </trkpt>
      <trkpt lat="47.66012" lon="5.05616">
        <ele>442.85</ele>
        <time>2022-06-09T08:37:11Z</time>
      </trkpt>
      <trkpt lat="47.66014" lon="5.05612">
        <ele>442.97</ele>
        <time>2022-06-09T08:37:14Z</time>
      </trkpt>
      <trkpt lat="47.66015" lon="5.05608">
        <ele>443</ele>
        <time>2022-06-09T08:37:16Z</time>
      </trkpt>
      <trkpt lat="47.66016" lon="5.05604">
        <ele>443</ele>
        <time>2022-06-09T08:37:20Z</time>
      </trkpt>
      <trkpt lat="47.66016" lon="5.056">
        <ele>443</ele>
        <time>2022-06-09T08:37:22Z</time>
      </trkpt>
      <trkpt lat="47.66017" lon="5.05595">
        <ele>443</ele>
        <time>2022-06-09T08:37:25Z</time>
      </trkpt>
      <trkpt lat="47.66018" lon="5.05591">
        <ele>443</ele>
        <time>2022-06-09T08:37:27Z</time>
      </trkpt>
      <trkpt lat="47.6602" lon="5.05588">
        <ele>443</ele>
        <time>2022-06-09T08:37:29Z</time>
      </trkpt>
      <trkpt lat="47.66022" lon="5.05583">
        <ele>442.99</ele>
        <time>2022-06-09T08:37:32Z</time>
      </trkpt>
      <trkpt lat="47.66024" lon="5.0558">
        <ele>442.88</ele>
        <time>2022-06-09T08:37:33Z</time>
      </trkpt>
      <trkpt lat="47.66026" lon="5.05577">
        <ele>442.77</ele>
        <time>2022-06-09T08:37:36Z</time>
      </trkpt>
      <trkpt lat="47.66029" lon="5.05576">
        <ele>442.62</ele>
        <time>2022-06-09T08:37:40Z</time>
      </trkpt>
      <trkpt lat="47.66032" lon="5.05573">
        <ele>442.23</ele>
        <time>2022-06-09T08:37:44Z</time>
      </trkpt>
      <trkpt lat="47.66035" lon="5.05572">
        <ele>441.92</ele>
        <time>2022-06-09T08:37:49Z</time>
      </trkpt>
      <trkpt lat="47.66037" lon="5.05573">
        <ele>441.76</ele>
        <time>2022-06-09T08:38:17Z</time>
      </trkpt>
      <trkpt lat="47.6604" lon="5.05574">
        <ele>441.49</ele>
        <time>2022-06-09T08:38:24Z</time>
      </trkpt>
      <trkpt lat="47.66043" lon="5.05574">
        <ele>441.2</ele>
        <time>2022-06-09T08:38:28Z</time>
      </trkpt>
      <trkpt lat="47.66046" lon="5.05574">
        <ele>440.92</ele>
        <time>2022-06-09T08:38:31Z</time>
      </trkpt>
      <trkpt lat="47.66049" lon="5.05573">
        <ele>440.62</ele>
        <time>2022-06-09T08:38:36Z</time>
      </trkpt>
      <trkpt lat="47.66052" lon="5.05573">
        <ele>440.34</ele>
        <time>2022-06-09T08:38:39Z</time>
      </trkpt>
      <trkpt lat="47.66055" lon="5.05573">
        <ele>440.05</ele>
        <time>2022-06-09T08:38:42Z</time>
      </trkpt>
      <trkpt lat="47.66058" lon="5.05574">
        <ele>440.2</ele>
        <time>2022-06-09T08:38:43Z</time>
      </trkpt>
      <trkpt lat="47.66061" lon="5.05575">
        <ele>440.47</ele>
        <time>2022-06-09T08:38:46Z</time>
      </trkpt>
      <trkpt lat="47.66063" lon="5.05576">
        <ele>440.66</ele>
        <time>2022-06-09T08:38:49Z</time>
      </trkpt>
      <trkpt lat="47.66066" lon="5.05576">
        <ele>440.93</ele>
        <time>2022-06-09T08:38:52Z</time>
      </trkpt>
      <trkpt lat="47.66069" lon="5.05576">
        <ele>441.2</ele>
        <time>2022-06-09T08:38:55Z</time>
      </trkpt>
      <trkpt lat="47.66073" lon="5.05576">
        <ele>441.55</ele>
        <time>2022-06-09T08:38:58Z</time>
      </trkpt>
      <trkpt lat="47.66076" lon="5.05575">
        <ele>441.77</ele>
        <time>2022-06-09T08:39:01Z</time>
      </trkpt>
      <trkpt lat="47.66079" lon="5.05575">
        <ele>442.03</ele>
        <time>2022-06-09T08:39:04Z</time>
      </trkpt>
      <trkpt lat="47.66082" lon="5.05574">
        <ele>442.22</ele>
        <time>2022-06-09T08:39:07Z</time>
      </trkpt>
      <trkpt lat="47.66085" lon="5.05574">
        <ele>442.55</ele>
        <time>2022-06-09T08:39:10Z</time>
      </trkpt>
      <trkpt lat="47.66088" lon="5.05574">
        <ele>442.94</ele>
        <time>2022-06-09T08:39:11Z</time>
      </trkpt>
      <trkpt lat="47.66091" lon="5.05574">
        <ele>443.34</ele>
        <time>2022-06-09T08:39:14Z</time>
      </trkpt>
      <trkpt lat="47.66094" lon="5.05574">
        <ele>443.73</ele>
        <time>2022-06-09T08:39:17Z</time>
      </trkpt>
      <trkpt lat="47.66097" lon="5.05574">
        <ele>444.13</ele>
        <time>2022-06-09T08:39:19Z</time>
      </trkpt>
      <trkpt lat="47.661" lon="5.05573">
        <ele>444.43</ele>
        <time>2022-06-09T08:39:21Z</time>
      </trkpt>
      <trkpt lat="47.66103" lon="5.05571">
        <ele>444.63</ele>
        <time>2022-06-09T08:39:24Z</time>
      </trkpt>
      <trkpt lat="47.66106" lon="5.05569">
        <ele>444.81</ele>
        <time>2022-06-09T08:39:27Z</time>
      </trkpt>
      <trkpt lat="47.66109" lon="5.05568">
        <ele>445.08</ele>
        <time>2022-06-09T08:39:29Z</time>
      </trkpt>
      <trkpt lat="47.66112" lon="5.05567">
        <ele>445.25</ele>
        <time>2022-06-09T08:39:34Z</time>
      </trkpt>
      <trkpt lat="47.66115" lon="5.05566">
        <ele>445.22</ele>
        <time>2022-06-09T08:39:43Z</time>
      </trkpt>
      <trkpt lat="47.66118" lon="5.05565">
        <ele>445.18</ele>
        <time>2022-06-09T08:39:45Z</time>
      </trkpt>
      <trkpt lat="47.6612" lon="5.05564">
        <ele>445.13</ele>
        <time>2022-06-09T08:39:48Z</time>
      </trkpt>
      <trkpt lat="47.66124" lon="5.05563">
        <ele>445.14</ele>
        <time>2022-06-09T08:39:52Z</time>
      </trkpt>
      <trkpt lat="47.66126" lon="5.05561">
        <ele>445.02</ele>
        <time>2022-06-09T08:39:54Z</time>
      </trkpt>
      <trkpt lat="47.66129" lon="5.05558">
        <ele>444.85</ele>
        <time>2022-06-09T08:39:58Z</time>
      </trkpt>
      <trkpt lat="47.66132" lon="5.05557">
        <ele>444.87</ele>
        <time>2022-06-09T08:40:01Z</time>
      </trkpt>
      <trkpt lat="47.66135" lon="5.05557">
        <ele>444.97</ele>
        <time>2022-06-09T08:40:05Z</time>
      </trkpt>
      <trkpt lat="47.66138" lon="5.05557">
        <ele>445.07</ele>
        <time>2022-06-09T08:40:09Z</time>
      </trkpt>
      <trkpt lat="47.66141" lon="5.05556">
        <ele>445.03</ele>
        <time>2022-06-09T08:40:12Z</time>
      </trkpt>
      <trkpt lat="47.66144" lon="5.05555">
        <ele>444.99</ele>
        <time>2022-06-09T08:40:15Z</time>
      </trkpt>
      <trkpt lat="47.66148" lon="5.05554">
        <ele>444.98</ele>
        <time>2022-06-09T08:40:19Z</time>
      </trkpt>
      <trkpt lat="47.66151" lon="5.05553">
        <ele>444.99</ele>
        <time>2022-06-09T08:40:22Z</time>
      </trkpt>
      <trkpt lat="47.66153" lon="5.05552">
        <ele>445</ele>
        <time>2022-06-09T08:40:24Z</time>
      </trkpt>
      <trkpt lat="47.66156" lon="5.0555">
        <ele>445.05</ele>
        <time>2022-06-09T08:40:26Z</time>
      </trkpt>
      <trkpt lat="47.66159" lon="5.05549">
        <ele>445.11</ele>
        <time>2022-06-09T08:40:29Z</time>
      </trkpt>
      <trkpt lat="47.66163" lon="5.05549">
        <ele>445.17</ele>
        <time>2022-06-09T08:40:32Z</time>
      </trkpt>
      <trkpt lat="47.66166" lon="5.05548">
        <ele>445.26</ele>
        <time>2022-06-09T08:40:38Z</time>
      </trkpt>
      <trkpt lat="47.66169" lon="5.05546">
        <ele>445.29</ele>
        <time>2022-06-09T08:40:42Z</time>
      </trkpt>
      <trkpt lat="47.66171" lon="5.05545">
        <ele>445.28</ele>
        <time>2022-06-09T08:40:44Z</time>
      </trkpt>
      <trkpt lat="47.66174" lon="5.05544">
        <ele>445.26</ele>
        <time>2022-06-09T08:40:48Z</time>
      </trkpt>
      <trkpt lat="47.66177" lon="5.05542">
        <ele>445.3</ele>
        <time>2022-06-09T08:40:50Z</time>
      </trkpt>
      <trkpt lat="47.66179" lon="5.0554">
        <ele>445.36</ele>
        <time>2022-06-09T08:40:52Z</time>
      </trkpt>
      <trkpt lat="47.66182" lon="5.05538">
        <ele>445.43</ele>
        <time>2022-06-09T08:40:56Z</time>
      </trkpt>
      <trkpt lat="47.66184" lon="5.05536">
        <ele>445.52</ele>
        <time>2022-06-09T08:40:58Z</time>
      </trkpt>
      <trkpt lat="47.66187" lon="5.05534">
        <ele>445.61</ele>
        <time>2022-06-09T08:40:59Z</time>
      </trkpt>
      <trkpt lat="47.6619" lon="5.05533">
        <ele>445.65</ele>
        <time>2022-06-09T08:41:03Z</time>
      </trkpt>
      <trkpt lat="47.66194" lon="5.05531">
        <ele>445.77</ele>
        <time>2022-06-09T08:41:07Z</time>
      </trkpt>
      <trkpt lat="47.66196" lon="5.0553">
        <ele>445.9</ele>
        <time>2022-06-09T08:41:08Z</time>
      </trkpt>
      <trkpt lat="47.66199" lon="5.05529">
        <ele>446.08</ele>
        <time>2022-06-09T08:41:12Z</time>
      </trkpt>
      <trkpt lat="47.66202" lon="5.05527">
        <ele>446.32</ele>
        <time>2022-06-09T08:41:14Z</time>
      </trkpt>
      <trkpt lat="47.66205" lon="5.05526">
        <ele>446.49</ele>
        <time>2022-06-09T08:41:16Z</time>
      </trkpt>
      <trkpt lat="47.66208" lon="5.05524">
        <ele>446.76</ele>
        <time>2022-06-09T08:41:19Z</time>
      </trkpt>
      <trkpt lat="47.6621" lon="5.05523">
        <ele>446.92</ele>
        <time>2022-06-09T08:41:23Z</time>
      </trkpt>
      <trkpt lat="47.66213" lon="5.05522">
        <ele>447.15</ele>
        <time>2022-06-09T08:41:27Z</time>
      </trkpt>
      <trkpt lat="47.66216" lon="5.0552">
        <ele>447.49</ele>
        <time>2022-06-09T08:41:30Z</time>
      </trkpt>
      <trkpt lat="47.66219" lon="5.05519">
        <ele>447.76</ele>
        <time>2022-06-09T08:41:32Z</time>
      </trkpt>
      <trkpt lat="47.66222" lon="5.05517">
        <ele>448.15</ele>
        <time>2022-06-09T08:41:35Z</time>
      </trkpt>
      <trkpt lat="47.66224" lon="5.05515">
        <ele>448.76</ele>
        <time>2022-06-09T08:41:36Z</time>
      </trkpt>
      <trkpt lat="47.66227" lon="5.05513">
        <ele>449.63</ele>
        <time>2022-06-09T08:41:39Z</time>
      </trkpt>
      <trkpt lat="47.66229" lon="5.05511">
        <ele>450.28</ele>
        <time>2022-06-09T08:41:40Z</time>
      </trkpt>
      <trkpt lat="47.66232" lon="5.05509">
        <ele>451.14</ele>
        <time>2022-06-09T08:41:44Z</time>
      </trkpt>
      <trkpt lat="47.66234" lon="5.05507">
        <ele>451.79</ele>
        <time>2022-06-09T08:41:47Z</time>
      </trkpt>
      <trkpt lat="47.66237" lon="5.05504">
        <ele>452.76</ele>
        <time>2022-06-09T08:41:51Z</time>
      </trkpt>
      <trkpt lat="47.66239" lon="5.05502">
        <ele>453.41</ele>
        <time>2022-06-09T08:41:53Z</time>
      </trkpt>
      <trkpt lat="47.66242" lon="5.05499">
        <ele>454.31</ele>
        <time>2022-06-09T08:41:57Z</time>
      </trkpt>
      <trkpt lat="47.66244" lon="5.05497">
        <ele>454.81</ele>
        <time>2022-06-09T08:42:01Z</time>
      </trkpt>
      <trkpt lat="47.66247" lon="5.05496">
        <ele>455.5</ele>
        <time>2022-06-09T08:42:04Z</time>
      </trkpt>
      <trkpt lat="47.6625" lon="5.05495">
        <ele>456.18</ele>
        <time>2022-06-09T08:42:08Z</time>
      </trkpt>
      <trkpt lat="47.66253" lon="5.05494">
        <ele>456.61</ele>
        <time>2022-06-09T08:42:12Z</time>
      </trkpt>
      <trkpt lat="47.66256" lon="5.05493">
        <ele>457.06</ele>
        <time>2022-06-09T08:42:15Z</time>
      </trkpt>
      <trkpt lat="47.66259" lon="5.05491">
        <ele>457.61</ele>
        <time>2022-06-09T08:42:19Z</time>
      </trkpt>
      <trkpt lat="47.66262" lon="5.0549">
        <ele>458.12</ele>
        <time>2022-06-09T08:42:21Z</time>
      </trkpt>
      <trkpt lat="47.66265" lon="5.05488">
        <ele>458.75</ele>
        <time>2022-06-09T08:42:25Z</time>
      </trkpt>
      <trkpt lat="47.66268" lon="5.05487">
        <ele>459.32</ele>
        <time>2022-06-09T08:42:28Z</time>
      </trkpt>
      <trkpt lat="47.66271" lon="5.05486">
        <ele>459.92</ele>
        <time>2022-06-09T08:42:31Z</time>
      </trkpt>
      <trkpt lat="47.66275" lon="5.05485">
        <ele>460.7</ele>
        <time>2022-06-09T08:42:34Z</time>
      </trkpt>
      <trkpt lat="47.66278" lon="5.05485">
        <ele>461.14</ele>
        <time>2022-06-09T08:42:36Z</time>
      </trkpt>
      <trkpt lat="47.66281" lon="5.05485">
        <ele>460.92</ele>
        <time>2022-06-09T08:42:41Z</time>
      </trkpt>
      <trkpt lat="47.66284" lon="5.05484">
        <ele>460.82</ele>
        <time>2022-06-09T08:42:44Z</time>
      </trkpt>
      <trkpt lat="47.66287" lon="5.05484">
        <ele>460.59</ele>
        <time>2022-06-09T08:42:47Z</time>
      </trkpt>
      <trkpt lat="47.6629" lon="5.05484">
        <ele>460.36</ele>
        <time>2022-06-09T08:42:49Z</time>
      </trkpt>
      <trkpt lat="47.66293" lon="5.05483">
        <ele>460.23</ele>
        <time>2022-06-09T08:42:52Z</time>
      </trkpt>
      <trkpt lat="47.66296" lon="5.05483">
        <ele>459.99</ele>
        <time>2022-06-09T08:42:56Z</time>
      </trkpt>
      <trkpt lat="47.66299" lon="5.05482">
        <ele>459.84</ele>
        <time>2022-06-09T08:42:58Z</time>
      </trkpt>
      <trkpt lat="47.66302" lon="5.05482">
        <ele>459.59</ele>
        <time>2022-06-09T08:43:03Z</time>
      </trkpt>
      <trkpt lat="47.66306" lon="5.05481">
        <ele>459.37</ele>
        <time>2022-06-09T08:43:06Z</time>
      </trkpt>
      <trkpt lat="47.66309" lon="5.0548">
        <ele>459.47</ele>
        <time>2022-06-09T08:43:08Z</time>
      </trkpt>
      <trkpt lat="47.66313" lon="5.0548">
        <ele>459.52</ele>
        <time>2022-06-09T08:43:12Z</time>
      </trkpt>
      <trkpt lat="47.66315" lon="5.05479">
        <ele>459.59</ele>
        <time>2022-06-09T08:43:16Z</time>
      </trkpt>
      <trkpt lat="47.66319" lon="5.05479">
        <ele>459.63</ele>
        <time>2022-06-09T08:43:19Z</time>
      </trkpt>
      <trkpt lat="47.66322" lon="5.05479">
        <ele>459.66</ele>
        <time>2022-06-09T08:43:21Z</time>
      </trkpt>
      <trkpt lat="47.66325" lon="5.05479">
        <ele>459.68</ele>
        <time>2022-06-09T08:43:24Z</time>
      </trkpt>
      <trkpt lat="47.66327" lon="5.05478">
        <ele>459.74</ele>
        <time>2022-06-09T08:43:27Z</time>
      </trkpt>
      <trkpt lat="47.6633" lon="5.05479">
        <ele>459.73</ele>
        <time>2022-06-09T08:43:30Z</time>
      </trkpt>
      <trkpt lat="47.66334" lon="5.0548">
        <ele>459.74</ele>
        <time>2022-06-09T08:43:34Z</time>
      </trkpt>
      <trkpt lat="47.66336" lon="5.05481">
        <ele>459.78</ele>
        <time>2022-06-09T08:43:35Z</time>
      </trkpt>
      <trkpt lat="47.66339" lon="5.05481">
        <ele>459.89</ele>
        <time>2022-06-09T08:43:37Z</time>
      </trkpt>
      <trkpt lat="47.66342" lon="5.05481">
        <ele>460</ele>
        <time>2022-06-09T08:43:41Z</time>
      </trkpt>
      <trkpt lat="47.66345" lon="5.05481">
        <ele>460.1</ele>
        <time>2022-06-09T08:43:43Z</time>
      </trkpt>
      <trkpt lat="47.66348" lon="5.0548">
        <ele>460.25</ele>
        <time>2022-06-09T08:43:45Z</time>
      </trkpt>
      <trkpt lat="47.66352" lon="5.05481">
        <ele>460.36</ele>
        <time>2022-06-09T08:43:49Z</time>
      </trkpt>
      <trkpt lat="47.66355" lon="5.05481">
        <ele>460.46</ele>
        <time>2022-06-09T08:43:51Z</time>
      </trkpt>
      <trkpt lat="47.66358" lon="5.0548">
        <ele>460.61</ele>
        <time>2022-06-09T08:43:53Z</time>
      </trkpt>
      <trkpt lat="47.66361" lon="5.05481">
        <ele>460.68</ele>
        <time>2022-06-09T08:43:56Z</time>
      </trkpt>
      <trkpt lat="47.66364" lon="5.05482">
        <ele>460.62</ele>
        <time>2022-06-09T08:44:01Z</time>
      </trkpt>
      <trkpt lat="47.66367" lon="5.05483">
        <ele>460.56</ele>
        <time>2022-06-09T08:44:03Z</time>
      </trkpt>
      <trkpt lat="47.6637" lon="5.05484">
        <ele>460.53</ele>
        <time>2022-06-09T08:44:07Z</time>
      </trkpt>
      <trkpt lat="47.66373" lon="5.05485">
        <ele>460.51</ele>
        <time>2022-06-09T08:44:12Z</time>
      </trkpt>
      <trkpt lat="47.66376" lon="5.05486">
        <ele>460.5</ele>
        <time>2022-06-09T08:44:16Z</time>
      </trkpt>
      <trkpt lat="47.66379" lon="5.05487">
        <ele>460.51</ele>
        <time>2022-06-09T08:44:18Z</time>
      </trkpt>
      <trkpt lat="47.66382" lon="5.05488">
        <ele>460.53</ele>
        <time>2022-06-09T08:44:21Z</time>
      </trkpt>
      <trkpt lat="47.66385" lon="5.05489">
        <ele>460.57</ele>
        <time>2022-06-09T08:44:23Z</time>
      </trkpt>
      <trkpt lat="47.66388" lon="5.05489">
        <ele>460.6</ele>
        <time>2022-06-09T08:44:26Z</time>
      </trkpt>
      <trkpt lat="47.66391" lon="5.0549">
        <ele>460.75</ele>
        <time>2022-06-09T08:44:29Z</time>
      </trkpt>
      <trkpt lat="47.66394" lon="5.05491">
        <ele>460.91</ele>
        <time>2022-06-09T08:44:32Z</time>
      </trkpt>
      <trkpt lat="47.66397" lon="5.05492">
        <ele>461.05</ele>
        <time>2022-06-09T08:44:35Z</time>
      </trkpt>
      <trkpt lat="47.664" lon="5.05493">
        <ele>461.15</ele>
        <time>2022-06-09T08:44:37Z</time>
      </trkpt>
      <trkpt lat="47.66403" lon="5.05494">
        <ele>461.22</ele>
        <time>2022-06-09T08:44:41Z</time>
      </trkpt>
      <trkpt lat="47.66406" lon="5.05495">
        <ele>461.26</ele>
        <time>2022-06-09T08:44:43Z</time>
      </trkpt>
      <trkpt lat="47.66409" lon="5.05495">
        <ele>461.34</ele>
        <time>2022-06-09T08:44:44Z</time>
      </trkpt>
      <trkpt lat="47.66412" lon="5.05495">
        <ele>461.42</ele>
        <time>2022-06-09T08:44:47Z</time>
      </trkpt>
      <trkpt lat="47.66415" lon="5.05497">
        <ele>461.3</ele>
        <time>2022-06-09T08:44:50Z</time>
      </trkpt>
      <trkpt lat="47.66417" lon="5.05498">
        <ele>461.26</ele>
        <time>2022-06-09T08:44:53Z</time>
      </trkpt>
      <trkpt lat="47.6642" lon="5.05499">
        <ele>461.58</ele>
        <time>2022-06-09T08:44:57Z</time>
      </trkpt>
      <trkpt lat="47.66423" lon="5.055">
        <ele>461.91</ele>
        <time>2022-06-09T08:44:58Z</time>
      </trkpt>
      <trkpt lat="47.66426" lon="5.055">
        <ele>462.34</ele>
        <time>2022-06-09T08:45:02Z</time>
      </trkpt>
      <trkpt lat="47.66429" lon="5.055">
        <ele>462.78</ele>
        <time>2022-06-09T08:45:03Z</time>
      </trkpt>
      <trkpt lat="47.66432" lon="5.05501">
        <ele>463.12</ele>
        <time>2022-06-09T08:45:06Z</time>
      </trkpt>
      <trkpt lat="47.66435" lon="5.05502">
        <ele>463.47</ele>
        <time>2022-06-09T08:45:09Z</time>
      </trkpt>
      <trkpt lat="47.66438" lon="5.05503">
        <ele>463.83</ele>
        <time>2022-06-09T08:45:12Z</time>
      </trkpt>
      <trkpt lat="47.6644" lon="5.05502">
        <ele>464.2</ele>
        <time>2022-06-09T08:45:14Z</time>
      </trkpt>
      <trkpt lat="47.66444" lon="5.05501">
        <ele>464.86</ele>
        <time>2022-06-09T08:45:18Z</time>
      </trkpt>
      <trkpt lat="47.66447" lon="5.05501">
        <ele>465.11</ele>
        <time>2022-06-09T08:45:20Z</time>
      </trkpt>
      <trkpt lat="47.6645" lon="5.055">
        <ele>465.4</ele>
        <time>2022-06-09T08:45:23Z</time>
      </trkpt>
      <trkpt lat="47.66453" lon="5.05498">
        <ele>465.69</ele>
        <time>2022-06-09T08:45:26Z</time>
      </trkpt>
      <trkpt lat="47.66456" lon="5.05497">
        <ele>465.94</ele>
        <time>2022-06-09T08:45:29Z</time>
      </trkpt>
      <trkpt lat="47.66459" lon="5.05496">
        <ele>466.19</ele>
        <time>2022-06-09T08:45:31Z</time>
      </trkpt>
      <trkpt lat="47.66462" lon="5.05496">
        <ele>466.41</ele>
        <time>2022-06-09T08:45:33Z</time>
      </trkpt>
      <trkpt lat="47.66464" lon="5.05496">
        <ele>466.55</ele>
        <time>2022-06-09T08:45:35Z</time>
      </trkpt>
      <trkpt lat="47.66468" lon="5.05496">
        <ele>466.84</ele>
        <time>2022-06-09T08:45:37Z</time>
      </trkpt>
      <trkpt lat="47.66471" lon="5.05496">
        <ele>467.06</ele>
        <time>2022-06-09T08:45:40Z</time>
      </trkpt>
      <trkpt lat="47.66474" lon="5.05496">
        <ele>466.98</ele>
        <time>2022-06-09T08:45:42Z</time>
      </trkpt>
      <trkpt lat="47.66477" lon="5.05496">
        <ele>466.7</ele>
        <time>2022-06-09T08:45:45Z</time>
      </trkpt>
      <trkpt lat="47.6648" lon="5.05497">
        <ele>466.36</ele>
        <time>2022-06-09T08:45:48Z</time>
      </trkpt>
      <trkpt lat="47.66483" lon="5.05499">
        <ele>465.91</ele>
        <time>2022-06-09T08:45:50Z</time>
      </trkpt>
      <trkpt lat="47.66486" lon="5.055">
        <ele>465.51</ele>
        <time>2022-06-09T08:45:54Z</time>
      </trkpt>
      <trkpt lat="47.66489" lon="5.055">
        <ele>465.19</ele>
        <time>2022-06-09T08:45:56Z</time>
      </trkpt>
      <trkpt lat="47.66492" lon="5.05502">
        <ele>464.87</ele>
        <time>2022-06-09T08:45:59Z</time>
      </trkpt>
      <trkpt lat="47.66495" lon="5.05504">
        <ele>464.61</ele>
        <time>2022-06-09T08:46:02Z</time>
      </trkpt>
      <trkpt lat="47.66497" lon="5.05505">
        <ele>464.45</ele>
        <time>2022-06-09T08:46:06Z</time>
      </trkpt>
      <trkpt lat="47.665" lon="5.05506">
        <ele>464.22</ele>
        <time>2022-06-09T08:46:09Z</time>
      </trkpt>
      <trkpt lat="47.66503" lon="5.05507">
        <ele>464.82</ele>
        <time>2022-06-09T08:46:14Z</time>
      </trkpt>
      <trkpt lat="47.66506" lon="5.05508">
        <ele>465.4</ele>
        <time>2022-06-09T08:46:18Z</time>
      </trkpt>
      <trkpt lat="47.66509" lon="5.05509">
        <ele>465.95</ele>
        <time>2022-06-09T08:46:21Z</time>
      </trkpt>
      <trkpt lat="47.66512" lon="5.05509">
        <ele>466.5</ele>
        <time>2022-06-09T08:46:23Z</time>
      </trkpt>
      <trkpt lat="47.66516" lon="5.05509">
        <ele>467.22</ele>
        <time>2022-06-09T08:46:27Z</time>
      </trkpt>
      <trkpt lat="47.66518" lon="5.05511">
        <ele>467.51</ele>
        <time>2022-06-09T08:46:29Z</time>
      </trkpt>
      <trkpt lat="47.66521" lon="5.05512">
        <ele>467.99</ele>
        <time>2022-06-09T08:46:32Z</time>
      </trkpt>
      <trkpt lat="47.66524" lon="5.05512">
        <ele>468.5</ele>
        <time>2022-06-09T08:46:35Z</time>
      </trkpt>
      <trkpt lat="47.66527" lon="5.05513">
        <ele>468.94</ele>
        <time>2022-06-09T08:46:39Z</time>
      </trkpt>
      <trkpt lat="47.6653" lon="5.05513">
        <ele>469.35</ele>
        <time>2022-06-09T08:46:42Z</time>
      </trkpt>
      <trkpt lat="47.66533" lon="5.05513">
        <ele>469.73</ele>
        <time>2022-06-09T08:46:45Z</time>
      </trkpt>
      <trkpt lat="47.66536" lon="5.05511">
        <ele>470.27</ele>
        <time>2022-06-09T08:46:48Z</time>
      </trkpt>
      <trkpt lat="47.66539" lon="5.0551">
        <ele>470.75</ele>
        <time>2022-06-09T08:46:52Z</time>
      </trkpt>
      <trkpt lat="47.66542" lon="5.0551">
        <ele>471.14</ele>
        <time>2022-06-09T08:46:55Z</time>
      </trkpt>
      <trkpt lat="47.66545" lon="5.0551">
        <ele>471.54</ele>
        <time>2022-06-09T08:46:58Z</time>
      </trkpt>
      <trkpt lat="47.66548" lon="5.05509">
        <ele>472.03</ele>
        <time>2022-06-09T08:47:01Z</time>
      </trkpt>
      <trkpt lat="47.66551" lon="5.05508">
        <ele>472.53</ele>
        <time>2022-06-09T08:47:04Z</time>
      </trkpt>
      <trkpt lat="47.66554" lon="5.05507">
        <ele>473.03</ele>
        <time>2022-06-09T08:47:06Z</time>
      </trkpt>
      <trkpt lat="47.66556" lon="5.05506">
        <ele>473.4</ele>
        <time>2022-06-09T08:47:08Z</time>
      </trkpt>
      <trkpt lat="47.66559" lon="5.05506">
        <ele>473.7</ele>
        <time>2022-06-09T08:47:10Z</time>
      </trkpt>
      <trkpt lat="47.66562" lon="5.05506">
        <ele>474</ele>
        <time>2022-06-09T08:47:14Z</time>
      </trkpt>
      <trkpt lat="47.66565" lon="5.05507">
        <ele>474.18</ele>
        <time>2022-06-09T08:47:16Z</time>
      </trkpt>
      <trkpt lat="47.66568" lon="5.05508">
        <ele>474.35</ele>
        <time>2022-06-09T08:47:21Z</time>
      </trkpt>
      <trkpt lat="47.66571" lon="5.05509">
        <ele>474.52</ele>
        <time>2022-06-09T08:47:24Z</time>
      </trkpt>
      <trkpt lat="47.66574" lon="5.0551">
        <ele>474.67</ele>
        <time>2022-06-09T08:47:28Z</time>
      </trkpt>
      <trkpt lat="47.66577" lon="5.0551">
        <ele>474.96</ele>
        <time>2022-06-09T08:47:30Z</time>
      </trkpt>
      <trkpt lat="47.6658" lon="5.0551">
        <ele>475.24</ele>
        <time>2022-06-09T08:47:32Z</time>
      </trkpt>
      <trkpt lat="47.66583" lon="5.05509">
        <ele>475.67</ele>
        <time>2022-06-09T08:47:35Z</time>
      </trkpt>
      <trkpt lat="47.66586" lon="5.05508">
        <ele>475.86</ele>
        <time>2022-06-09T08:47:38Z</time>
      </trkpt>
      <trkpt lat="47.6659" lon="5.05507">
        <ele>476.05</ele>
        <time>2022-06-09T08:47:41Z</time>
      </trkpt>
      <trkpt lat="47.66593" lon="5.05507">
        <ele>476.08</ele>
        <time>2022-06-09T08:47:43Z</time>
      </trkpt>
      <trkpt lat="47.66595" lon="5.05507">
        <ele>476.09</ele>
        <time>2022-06-09T08:47:46Z</time>
      </trkpt>
      <trkpt lat="47.66598" lon="5.05507">
        <ele>476.12</ele>
        <time>2022-06-09T08:47:48Z</time>
      </trkpt>
      <trkpt lat="47.66601" lon="5.05506">
        <ele>476.36</ele>
        <time>2022-06-09T08:47:51Z</time>
      </trkpt>
      <trkpt lat="47.66605" lon="5.05506">
        <ele>476.41</ele>
        <time>2022-06-09T08:47:53Z</time>
      </trkpt>
      <trkpt lat="47.66607" lon="5.05506">
        <ele>476.44</ele>
        <time>2022-06-09T08:47:56Z</time>
      </trkpt>
      <trkpt lat="47.6661" lon="5.05505">
        <ele>476.72</ele>
        <time>2022-06-09T08:47:59Z</time>
      </trkpt>
      <trkpt lat="47.66613" lon="5.05505">
        <ele>476</ele>
        <time>2022-06-09T08:48:01Z</time>
      </trkpt>
      <trkpt lat="47.66617" lon="5.05505">
        <ele>474.45</ele>
        <time>2022-06-09T08:48:05Z</time>
      </trkpt>
      <trkpt lat="47.66619" lon="5.05504">
        <ele>473.91</ele>
        <time>2022-06-09T08:48:08Z</time>
      </trkpt>
      <trkpt lat="47.66623" lon="5.05503">
        <ele>472.58</ele>
        <time>2022-06-09T08:48:09Z</time>
      </trkpt>
      <trkpt lat="47.66625" lon="5.05502">
        <ele>472.03</ele>
        <time>2022-06-09T08:48:12Z</time>
      </trkpt>
      <trkpt lat="47.66628" lon="5.05502">
        <ele>470.85</ele>
        <time>2022-06-09T08:48:15Z</time>
      </trkpt>
      <trkpt lat="47.66631" lon="5.05501">
        <ele>469.9</ele>
        <time>2022-06-09T08:48:17Z</time>
      </trkpt>
      <trkpt lat="47.66634" lon="5.055">
        <ele>468.94</ele>
        <time>2022-06-09T08:48:21Z</time>
      </trkpt>
      <trkpt lat="47.66637" lon="5.05498">
        <ele>468.15</ele>
        <time>2022-06-09T08:48:23Z</time>
      </trkpt>
      <trkpt lat="47.66639" lon="5.05496">
        <ele>467.84</ele>
        <time>2022-06-09T08:48:26Z</time>
      </trkpt>
      <trkpt lat="47.66642" lon="5.05494">
        <ele>467.66</ele>
        <time>2022-06-09T08:48:29Z</time>
      </trkpt>
      <trkpt lat="47.66645" lon="5.05492">
        <ele>467.44</ele>
        <time>2022-06-09T08:48:31Z</time>
      </trkpt>
      <trkpt lat="47.66648" lon="5.0549">
        <ele>467.17</ele>
        <time>2022-06-09T08:48:34Z</time>
      </trkpt>
      <trkpt lat="47.6665" lon="5.05488">
        <ele>467.07</ele>
        <time>2022-06-09T08:48:37Z</time>
      </trkpt>
      <trkpt lat="47.66653" lon="5.05485">
        <ele>466.88</ele>
        <time>2022-06-09T08:48:40Z</time>
      </trkpt>
      <trkpt lat="47.66655" lon="5.05483">
        <ele>466.71</ele>
        <time>2022-06-09T08:48:42Z</time>
      </trkpt>
      <trkpt lat="47.66659" lon="5.05481">
        <ele>466</ele>
        <time>2022-06-09T08:48:46Z</time>
      </trkpt>
      <trkpt lat="47.66661" lon="5.05479">
        <ele>465.75</ele>
        <time>2022-06-09T08:48:49Z</time>
      </trkpt>
      <trkpt lat="47.66664" lon="5.05477">
        <ele>465.2</ele>
        <time>2022-06-09T08:48:53Z</time>
      </trkpt>
      <trkpt lat="47.66667" lon="5.05475">
        <ele>464.62</ele>
        <time>2022-06-09T08:48:55Z</time>
      </trkpt>
      <trkpt lat="47.6667" lon="5.05472">
        <ele>464.17</ele>
        <time>2022-06-09T08:48:59Z</time>
      </trkpt>
      <trkpt lat="47.66673" lon="5.05469">
        <ele>463.47</ele>
        <time>2022-06-09T08:49:02Z</time>
      </trkpt>
      <trkpt lat="47.66675" lon="5.05465">
        <ele>463</ele>
        <time>2022-06-09T08:49:04Z</time>
      </trkpt>
      <trkpt lat="47.66677" lon="5.05462">
        <ele>462.49</ele>
        <time>2022-06-09T08:49:06Z</time>
      </trkpt>
      <trkpt lat="47.6668" lon="5.05459">
        <ele>461.66</ele>
        <time>2022-06-09T08:49:10Z</time>
      </trkpt>
      <trkpt lat="47.66682" lon="5.05457">
        <ele>461.08</ele>
        <time>2022-06-09T08:49:14Z</time>
      </trkpt>
      <trkpt lat="47.66685" lon="5.05455">
        <ele>460.18</ele>
        <time>2022-06-09T08:49:19Z</time>
      </trkpt>
      <trkpt lat="47.66688" lon="5.05453">
        <ele>459.25</ele>
        <time>2022-06-09T08:49:21Z</time>
      </trkpt>
      <trkpt lat="47.66691" lon="5.05452">
        <ele>458.32</ele>
        <time>2022-06-09T08:49:23Z</time>
      </trkpt>
      <trkpt lat="47.66694" lon="5.0545">
        <ele>457.34</ele>
        <time>2022-06-09T08:49:27Z</time>
      </trkpt>
      <trkpt lat="47.66697" lon="5.05448">
        <ele>456.67</ele>
        <time>2022-06-09T08:49:28Z</time>
      </trkpt>
      <trkpt lat="47.667" lon="5.05447">
        <ele>456.09</ele>
        <time>2022-06-09T08:49:32Z</time>
      </trkpt>
      <trkpt lat="47.66703" lon="5.05448">
        <ele>455.59</ele>
        <time>2022-06-09T08:49:36Z</time>
      </trkpt>
      <trkpt lat="47.66706" lon="5.05449">
        <ele>455.08</ele>
        <time>2022-06-09T08:49:40Z</time>
      </trkpt>
      <trkpt lat="47.66709" lon="5.05449">
        <ele>454.54</ele>
        <time>2022-06-09T08:49:42Z</time>
      </trkpt>
      <trkpt lat="47.66712" lon="5.05448">
        <ele>453.97</ele>
        <time>2022-06-09T08:49:44Z</time>
      </trkpt>
      <trkpt lat="47.66714" lon="5.05445">
        <ele>453.5</ele>
        <time>2022-06-09T08:49:48Z</time>
      </trkpt>
      <trkpt lat="47.66716" lon="5.05442">
        <ele>453.03</ele>
        <time>2022-06-09T08:49:52Z</time>
      </trkpt>
      <trkpt lat="47.66718" lon="5.05438">
        <ele>452.53</ele>
        <time>2022-06-09T08:49:56Z</time>
      </trkpt>
      <trkpt lat="47.6672" lon="5.05435">
        <ele>452.06</ele>
        <time>2022-06-09T08:49:58Z</time>
      </trkpt>
      <trkpt lat="47.66723" lon="5.05433">
        <ele>451.46</ele>
        <time>2022-06-09T08:50:03Z</time>
      </trkpt>
      <trkpt lat="47.66725" lon="5.0543">
        <ele>451.03</ele>
        <time>2022-06-09T08:50:06Z</time>
      </trkpt>
      <trkpt lat="47.66727" lon="5.05427">
        <ele>450.58</ele>
        <time>2022-06-09T08:50:12Z</time>
      </trkpt>
      <trkpt lat="47.6673" lon="5.05426">
        <ele>450.03</ele>
        <time>2022-06-09T08:50:21Z</time>
      </trkpt>
      <trkpt lat="47.66733" lon="5.05424">
        <ele>449.43</ele>
        <time>2022-06-09T08:50:28Z</time>
      </trkpt>
      <trkpt lat="47.66735" lon="5.05422">
        <ele>448.98</ele>
        <time>2022-06-09T08:50:36Z</time>
      </trkpt>
      <trkpt lat="47.66736" lon="5.05418">
        <ele>448.59</ele>
        <time>2022-06-09T08:50:44Z</time>
      </trkpt>
      <trkpt lat="47.66738" lon="5.05414">
        <ele>447.97</ele>
        <time>2022-06-09T08:50:48Z</time>
      </trkpt>
      <trkpt lat="47.6674" lon="5.05411">
        <ele>447.39</ele>
        <time>2022-06-09T08:50:50Z</time>
      </trkpt>
      <trkpt lat="47.66742" lon="5.05409">
        <ele>446.89</ele>
        <time>2022-06-09T08:50:53Z</time>
      </trkpt>
      <trkpt lat="47.66744" lon="5.05406">
        <ele>446.31</ele>
        <time>2022-06-09T08:50:56Z</time>
      </trkpt>
      <trkpt lat="47.66747" lon="5.05403">
        <ele>445.56</ele>
        <time>2022-06-09T08:50:59Z</time>
      </trkpt>
      <trkpt lat="47.6675" lon="5.05401">
        <ele>444.87</ele>
        <time>2022-06-09T08:51:05Z</time>
      </trkpt>
      <trkpt lat="47.66754" lon="5.05399">
        <ele>443.82</ele>
        <time>2022-06-09T08:51:08Z</time>
      </trkpt>
      <trkpt lat="47.66756" lon="5.05397">
        <ele>443.2</ele>
        <time>2022-06-09T08:51:09Z</time>
      </trkpt>
      <trkpt lat="47.66761" lon="5.05394">
        <ele>441.74</ele>
        <time>2022-06-09T08:51:11Z</time>
      </trkpt>
      <trkpt lat="47.66764" lon="5.05392">
        <ele>440.81</ele>
        <time>2022-06-09T08:51:13Z</time>
      </trkpt>
      <trkpt lat="47.66767" lon="5.0539">
        <ele>439.84</ele>
        <time>2022-06-09T08:51:16Z</time>
      </trkpt>
      <trkpt lat="47.6677" lon="5.05388">
        <ele>438.91</ele>
        <time>2022-06-09T08:51:19Z</time>
      </trkpt>
      <trkpt lat="47.66772" lon="5.05386">
        <ele>438.31</ele>
        <time>2022-06-09T08:51:20Z</time>
      </trkpt>
      <trkpt lat="47.66775" lon="5.05384">
        <ele>437.49</ele>
        <time>2022-06-09T08:51:23Z</time>
      </trkpt>
      <trkpt lat="47.66779" lon="5.05382">
        <ele>436.74</ele>
        <time>2022-06-09T08:51:26Z</time>
      </trkpt>
      <trkpt lat="47.66782" lon="5.0538">
        <ele>436.63</ele>
        <time>2022-06-09T08:51:29Z</time>
      </trkpt>
      <trkpt lat="47.66785" lon="5.0538">
        <ele>436.6</ele>
        <time>2022-06-09T08:51:31Z</time>
      </trkpt>
      <trkpt lat="47.66788" lon="5.05378">
        <ele>436.46</ele>
        <time>2022-06-09T08:51:33Z</time>
      </trkpt>
      <trkpt lat="47.66791" lon="5.05376">
        <ele>436.32</ele>
        <time>2022-06-09T08:51:35Z</time>
      </trkpt>
      <trkpt lat="47.66794" lon="5.05374">
        <ele>436.15</ele>
        <time>2022-06-09T08:51:37Z</time>
      </trkpt>
      <trkpt lat="47.66797" lon="5.05372">
        <ele>435.97</ele>
        <time>2022-06-09T08:51:38Z</time>
      </trkpt>
      <trkpt lat="47.66801" lon="5.0537">
        <ele>435.75</ele>
        <time>2022-06-09T08:51:41Z</time>
      </trkpt>
      <trkpt lat="47.66804" lon="5.05367">
        <ele>435.47</ele>
        <time>2022-06-09T08:51:44Z</time>
      </trkpt>
      <trkpt lat="47.66807" lon="5.05365">
        <ele>435.33</ele>
        <time>2022-06-09T08:51:47Z</time>
      </trkpt>
      <trkpt lat="47.66811" lon="5.05363">
        <ele>435.33</ele>
        <time>2022-06-09T08:51:50Z</time>
      </trkpt>
      <trkpt lat="47.66814" lon="5.05361">
        <ele>435.3</ele>
        <time>2022-06-09T08:51:51Z</time>
      </trkpt>
      <trkpt lat="47.66816" lon="5.05359">
        <ele>435.28</ele>
        <time>2022-06-09T08:51:53Z</time>
      </trkpt>
      <trkpt lat="47.6682" lon="5.05357">
        <ele>435.38</ele>
        <time>2022-06-09T08:51:56Z</time>
      </trkpt>
      <trkpt lat="47.66823" lon="5.05354">
        <ele>435.44</ele>
        <time>2022-06-09T08:51:59Z</time>
      </trkpt>
      <trkpt lat="47.66825" lon="5.05352">
        <ele>435.5</ele>
        <time>2022-06-09T08:52:01Z</time>
      </trkpt>
      <trkpt lat="47.66828" lon="5.0535">
        <ele>435.65</ele>
        <time>2022-06-09T08:52:04Z</time>
      </trkpt>
      <trkpt lat="47.66832" lon="5.05348">
        <ele>435.91</ele>
        <time>2022-06-09T08:52:07Z</time>
      </trkpt>
      <trkpt lat="47.66835" lon="5.05348">
        <ele>435.98</ele>
        <time>2022-06-09T08:52:08Z</time>
      </trkpt>
      <trkpt lat="47.66838" lon="5.05346">
        <ele>435.89</ele>
        <time>2022-06-09T08:52:12Z</time>
      </trkpt>
      <trkpt lat="47.66841" lon="5.05345">
        <ele>435.8</ele>
        <time>2022-06-09T08:52:14Z</time>
      </trkpt>
      <trkpt lat="47.66844" lon="5.05343">
        <ele>435.63</ele>
        <time>2022-06-09T08:52:16Z</time>
      </trkpt>
      <trkpt lat="47.66846" lon="5.05341">
        <ele>435.47</ele>
        <time>2022-06-09T08:52:19Z</time>
      </trkpt>
      <trkpt lat="47.66849" lon="5.0534">
        <ele>435.28</ele>
        <time>2022-06-09T08:52:22Z</time>
      </trkpt>
      <trkpt lat="47.66852" lon="5.05338">
        <ele>434.99</ele>
        <time>2022-06-09T08:52:24Z</time>
      </trkpt>
      <trkpt lat="47.66855" lon="5.05336">
        <ele>434.66</ele>
        <time>2022-06-09T08:52:27Z</time>
      </trkpt>
      <trkpt lat="47.66857" lon="5.05334">
        <ele>434.36</ele>
        <time>2022-06-09T08:52:29Z</time>
      </trkpt>
      <trkpt lat="47.6686" lon="5.05332">
        <ele>434.03</ele>
        <time>2022-06-09T08:52:31Z</time>
      </trkpt>
      <trkpt lat="47.66863" lon="5.05331">
        <ele>433.92</ele>
        <time>2022-06-09T08:52:33Z</time>
      </trkpt>
      <trkpt lat="47.66866" lon="5.0533">
        <ele>433.88</ele>
        <time>2022-06-09T08:52:35Z</time>
      </trkpt>
      <trkpt lat="47.66869" lon="5.05328">
        <ele>433.81</ele>
        <time>2022-06-09T08:52:37Z</time>
      </trkpt>
      <trkpt lat="47.66873" lon="5.05325">
        <ele>433.7</ele>
        <time>2022-06-09T08:52:41Z</time>
      </trkpt>
      <trkpt lat="47.66877" lon="5.05322">
        <ele>433.59</ele>
        <time>2022-06-09T08:52:43Z</time>
      </trkpt>
      <trkpt lat="47.66881" lon="5.0532">
        <ele>433.52</ele>
        <time>2022-06-09T08:52:46Z</time>
      </trkpt>
      <trkpt lat="47.66884" lon="5.05318">
        <ele>433.45</ele>
        <time>2022-06-09T08:52:48Z</time>
      </trkpt>
      <trkpt lat="47.66887" lon="5.05316">
        <ele>433.38</ele>
        <time>2022-06-09T08:52:51Z</time>
      </trkpt>
      <trkpt lat="47.66889" lon="5.05314">
        <ele>433.3</ele>
        <time>2022-06-09T08:52:54Z</time>
      </trkpt>
      <trkpt lat="47.66892" lon="5.05312">
        <ele>433.12</ele>
        <time>2022-06-09T08:52:56Z</time>
      </trkpt>
      <trkpt lat="47.66894" lon="5.0531">
        <ele>432.98</ele>
        <time>2022-06-09T08:52:58Z</time>
      </trkpt>
      <trkpt lat="47.66897" lon="5.05307">
        <ele>432.76</ele>
        <time>2022-06-09T08:53:01Z</time>
      </trkpt>
      <trkpt lat="47.669" lon="5.05305">
        <ele>432.56</ele>
        <time>2022-06-09T08:53:04Z</time>
      </trkpt>
      <trkpt lat="47.66903" lon="5.05303">
        <ele>432.31</ele>
        <time>2022-06-09T08:53:06Z</time>
      </trkpt>
      <trkpt lat="47.66906" lon="5.05303">
        <ele>432.2</ele>
        <time>2022-06-09T08:53:08Z</time>
      </trkpt>
      <trkpt lat="47.66909" lon="5.05302">
        <ele>432.02</ele>
        <time>2022-06-09T08:53:10Z</time>
      </trkpt>
      <trkpt lat="47.66912" lon="5.05301">
        <ele>431.84</ele>
        <time>2022-06-09T08:53:13Z</time>
      </trkpt>
      <trkpt lat="47.66915" lon="5.053">
        <ele>431.66</ele>
        <time>2022-06-09T08:53:15Z</time>
      </trkpt>
      <trkpt lat="47.66918" lon="5.05298">
        <ele>431.36</ele>
        <time>2022-06-09T08:53:17Z</time>
      </trkpt>
      <trkpt lat="47.66921" lon="5.05296">
        <ele>431</ele>
        <time>2022-06-09T08:53:19Z</time>
      </trkpt>
      <trkpt lat="47.66924" lon="5.05296">
        <ele>430.78</ele>
        <time>2022-06-09T08:53:22Z</time>
      </trkpt>
      <trkpt lat="47.66928" lon="5.05295">
        <ele>430.42</ele>
        <time>2022-06-09T08:53:25Z</time>
      </trkpt>
      <trkpt lat="47.66931" lon="5.05294">
        <ele>430.14</ele>
        <time>2022-06-09T08:53:27Z</time>
      </trkpt>
      <trkpt lat="47.66933" lon="5.05293">
        <ele>429.92</ele>
        <time>2022-06-09T08:53:28Z</time>
      </trkpt>
      <trkpt lat="47.66936" lon="5.05292">
        <ele>429.63</ele>
        <time>2022-06-09T08:53:30Z</time>
      </trkpt>
      <trkpt lat="47.66939" lon="5.05291">
        <ele>429.34</ele>
        <time>2022-06-09T08:53:33Z</time>
      </trkpt>
      <trkpt lat="47.66943" lon="5.05289">
        <ele>428.91</ele>
        <time>2022-06-09T08:53:36Z</time>
      </trkpt>
      <trkpt lat="47.66947" lon="5.05288">
        <ele>428.4</ele>
        <time>2022-06-09T08:53:39Z</time>
      </trkpt>
      <trkpt lat="47.66949" lon="5.05287">
        <ele>428.06</ele>
        <time>2022-06-09T08:53:41Z</time>
      </trkpt>
      <trkpt lat="47.66953" lon="5.05286">
        <ele>427.45</ele>
        <time>2022-06-09T08:53:43Z</time>
      </trkpt>
      <trkpt lat="47.66956" lon="5.05286">
        <ele>427.05</ele>
        <time>2022-06-09T08:53:46Z</time>
      </trkpt>
      <trkpt lat="47.66959" lon="5.05285">
        <ele>426.56</ele>
        <time>2022-06-09T08:53:48Z</time>
      </trkpt>
      <trkpt lat="47.66962" lon="5.05284">
        <ele>426.06</ele>
        <time>2022-06-09T08:53:50Z</time>
      </trkpt>
      <trkpt lat="47.66965" lon="5.05284">
        <ele>425.65</ele>
        <time>2022-06-09T08:53:53Z</time>
      </trkpt>
      <trkpt lat="47.6697" lon="5.05284">
        <ele>424.97</ele>
        <time>2022-06-09T08:53:57Z</time>
      </trkpt>
      <trkpt lat="47.66973" lon="5.05285">
        <ele>424.71</ele>
        <time>2022-06-09T08:53:58Z</time>
      </trkpt>
      <trkpt lat="47.66976" lon="5.05284">
        <ele>424.34</ele>
        <time>2022-06-09T08:54:00Z</time>
      </trkpt>
      <trkpt lat="47.66979" lon="5.05284">
        <ele>424.07</ele>
        <time>2022-06-09T08:54:03Z</time>
      </trkpt>
      <trkpt lat="47.66983" lon="5.05285">
        <ele>423.8</ele>
        <time>2022-06-09T08:54:06Z</time>
      </trkpt>
      <trkpt lat="47.66986" lon="5.05285">
        <ele>423.53</ele>
        <time>2022-06-09T08:54:09Z</time>
      </trkpt>
      <trkpt lat="47.66988" lon="5.05287">
        <ele>423.48</ele>
        <time>2022-06-09T08:54:15Z</time>
      </trkpt>
      <trkpt lat="47.6699" lon="5.05291">
        <ele>423.54</ele>
        <time>2022-06-09T08:54:41Z</time>
      </trkpt>
      <trkpt lat="47.66992" lon="5.05294">
        <ele>423.5</ele>
        <time>2022-06-09T08:54:44Z</time>
      </trkpt>
      <trkpt lat="47.66993" lon="5.05298">
        <ele>423.6</ele>
        <time>2022-06-09T08:54:49Z</time>
      </trkpt>
      <trkpt lat="47.66995" lon="5.05302">
        <ele>423.55</ele>
        <time>2022-06-09T08:54:52Z</time>
      </trkpt>
      <trkpt lat="47.66997" lon="5.05305">
        <ele>423.41</ele>
        <time>2022-06-09T08:54:55Z</time>
      </trkpt>
      <trkpt lat="47.66999" lon="5.05309">
        <ele>423.02</ele>
        <time>2022-06-09T08:54:57Z</time>
      </trkpt>
      <trkpt lat="47.67" lon="5.05313">
        <ele>422.73</ele>
        <time>2022-06-09T08:55:00Z</time>
      </trkpt>
      <trkpt lat="47.67002" lon="5.05318">
        <ele>422.45</ele>
        <time>2022-06-09T08:55:02Z</time>
      </trkpt>
      <trkpt lat="47.67004" lon="5.05322">
        <ele>422.18</ele>
        <time>2022-06-09T08:55:04Z</time>
      </trkpt>
      <trkpt lat="47.67006" lon="5.05325">
        <ele>421.93</ele>
        <time>2022-06-09T08:55:07Z</time>
      </trkpt>
      <trkpt lat="47.67008" lon="5.05329">
        <ele>421.62</ele>
        <time>2022-06-09T08:55:10Z</time>
      </trkpt>
      <trkpt lat="47.6701" lon="5.05332">
        <ele>421.35</ele>
        <time>2022-06-09T08:55:12Z</time>
      </trkpt>
      <trkpt lat="47.67012" lon="5.05335">
        <ele>421.02</ele>
        <time>2022-06-09T08:55:14Z</time>
      </trkpt>
      <trkpt lat="47.67014" lon="5.05338">
        <ele>420.66</ele>
        <time>2022-06-09T08:55:18Z</time>
      </trkpt>
      <trkpt lat="47.67016" lon="5.05342">
        <ele>420.22</ele>
        <time>2022-06-09T08:55:21Z</time>
      </trkpt>
      <trkpt lat="47.67019" lon="5.05345">
        <ele>419.79</ele>
        <time>2022-06-09T08:55:23Z</time>
      </trkpt>
      <trkpt lat="47.67021" lon="5.05348">
        <ele>419.43</ele>
        <time>2022-06-09T08:55:25Z</time>
      </trkpt>
      <trkpt lat="47.67023" lon="5.05352">
        <ele>419</ele>
        <time>2022-06-09T08:55:29Z</time>
      </trkpt>
      <trkpt lat="47.67025" lon="5.05355">
        <ele>418.64</ele>
        <time>2022-06-09T08:55:32Z</time>
      </trkpt>
      <trkpt lat="47.67027" lon="5.05359">
        <ele>418.21</ele>
        <time>2022-06-09T08:55:34Z</time>
      </trkpt>
      <trkpt lat="47.67029" lon="5.05361">
        <ele>417.96</ele>
        <time>2022-06-09T08:55:37Z</time>
      </trkpt>
      <trkpt lat="47.67031" lon="5.05365">
        <ele>417.34</ele>
        <time>2022-06-09T08:55:38Z</time>
      </trkpt>
      <trkpt lat="47.67033" lon="5.05368">
        <ele>416.87</ele>
        <time>2022-06-09T08:55:40Z</time>
      </trkpt>
      <trkpt lat="47.67035" lon="5.05372">
        <ele>416.27</ele>
        <time>2022-06-09T08:55:42Z</time>
      </trkpt>
      <trkpt lat="47.67037" lon="5.05376">
        <ele>415.7</ele>
        <time>2022-06-09T08:55:44Z</time>
      </trkpt>
      <trkpt lat="47.67039" lon="5.0538">
        <ele>415.15</ele>
        <time>2022-06-09T08:55:46Z</time>
      </trkpt>
      <trkpt lat="47.6704" lon="5.05383">
        <ele>414.75</ele>
        <time>2022-06-09T08:55:49Z</time>
      </trkpt>
      <trkpt lat="47.67042" lon="5.05387">
        <ele>414.24</ele>
        <time>2022-06-09T08:55:51Z</time>
      </trkpt>
      <trkpt lat="47.67044" lon="5.05391">
        <ele>413.92</ele>
        <time>2022-06-09T08:55:53Z</time>
      </trkpt>
      <trkpt lat="47.67046" lon="5.05394">
        <ele>413.82</ele>
        <time>2022-06-09T08:55:55Z</time>
      </trkpt>
      <trkpt lat="47.67048" lon="5.05398">
        <ele>413.67</ele>
        <time>2022-06-09T08:55:58Z</time>
      </trkpt>
      <trkpt lat="47.67051" lon="5.05401">
        <ele>413.56</ele>
        <time>2022-06-09T08:56:00Z</time>
      </trkpt>
      <trkpt lat="47.67053" lon="5.05404">
        <ele>413.46</ele>
        <time>2022-06-09T08:56:02Z</time>
      </trkpt>
      <trkpt lat="47.67055" lon="5.05408">
        <ele>413.31</ele>
        <time>2022-06-09T08:56:05Z</time>
      </trkpt>
      <trkpt lat="47.67057" lon="5.05412">
        <ele>413.05</ele>
        <time>2022-06-09T08:56:07Z</time>
      </trkpt>
      <trkpt lat="47.67059" lon="5.05415">
        <ele>412.8</ele>
        <time>2022-06-09T08:56:11Z</time>
      </trkpt>
      <trkpt lat="47.67061" lon="5.05419">
        <ele>412.49</ele>
        <time>2022-06-09T08:56:13Z</time>
      </trkpt>
      <trkpt lat="47.67062" lon="5.05422">
        <ele>412.29</ele>
        <time>2022-06-09T08:56:15Z</time>
      </trkpt>
      <trkpt lat="47.67065" lon="5.05425">
        <ele>412.03</ele>
        <time>2022-06-09T08:56:17Z</time>
      </trkpt>
      <trkpt lat="47.67067" lon="5.05429">
        <ele>411.84</ele>
        <time>2022-06-09T08:56:19Z</time>
      </trkpt>
      <trkpt lat="47.67067" lon="5.05434">
        <ele>411.7</ele>
        <time>2022-06-09T08:56:21Z</time>
      </trkpt>
      <trkpt lat="47.67067" lon="5.05439">
        <ele>411.56</ele>
        <time>2022-06-09T08:56:23Z</time>
      </trkpt>
      <trkpt lat="47.67067" lon="5.05444">
        <ele>411.42</ele>
        <time>2022-06-09T08:56:26Z</time>
      </trkpt>
      <trkpt lat="47.67065" lon="5.05447">
        <ele>411.03</ele>
        <time>2022-06-09T08:56:27Z</time>
      </trkpt>
      <trkpt lat="47.67063" lon="5.0545">
        <ele>410.58</ele>
        <time>2022-06-09T08:56:30Z</time>
      </trkpt>
      <trkpt lat="47.6706" lon="5.05452">
        <ele>410.16</ele>
        <time>2022-06-09T08:56:33Z</time>
      </trkpt>
      <trkpt lat="47.67057" lon="5.05454">
        <ele>409.71</ele>
        <time>2022-06-09T08:56:36Z</time>
      </trkpt>
      <trkpt lat="47.67055" lon="5.05458">
        <ele>409.09</ele>
        <time>2022-06-09T08:56:38Z</time>
      </trkpt>
      <trkpt lat="47.67053" lon="5.05462">
        <ele>408.68</ele>
        <time>2022-06-09T08:56:41Z</time>
      </trkpt>
      <trkpt lat="47.67051" lon="5.05466">
        <ele>408.31</ele>
        <time>2022-06-09T08:56:44Z</time>
      </trkpt>
      <trkpt lat="47.67048" lon="5.05469">
        <ele>408.22</ele>
        <time>2022-06-09T08:56:47Z</time>
      </trkpt>
      <trkpt lat="47.67047" lon="5.05474">
        <ele>407.84</ele>
        <time>2022-06-09T08:56:49Z</time>
      </trkpt>
      <trkpt lat="47.67047" lon="5.05479">
        <ele>407.6</ele>
        <time>2022-06-09T08:56:51Z</time>
      </trkpt>
      <trkpt lat="47.67047" lon="5.05484">
        <ele>407.37</ele>
        <time>2022-06-09T08:56:54Z</time>
      </trkpt>
      <trkpt lat="47.67048" lon="5.05489">
        <ele>407.05</ele>
        <time>2022-06-09T08:56:56Z</time>
      </trkpt>
      <trkpt lat="47.67049" lon="5.05494">
        <ele>406.74</ele>
        <time>2022-06-09T08:56:59Z</time>
      </trkpt>
      <trkpt lat="47.67049" lon="5.05498">
        <ele>406.56</ele>
        <time>2022-06-09T08:57:01Z</time>
      </trkpt>
      <trkpt lat="47.6705" lon="5.05504">
        <ele>406.28</ele>
        <time>2022-06-09T08:57:04Z</time>
      </trkpt>
      <trkpt lat="47.6705" lon="5.05509">
        <ele>406.14</ele>
        <time>2022-06-09T08:57:06Z</time>
      </trkpt>
      <trkpt lat="47.67051" lon="5.05513">
        <ele>405.94</ele>
        <time>2022-06-09T08:57:08Z</time>
      </trkpt>
      <trkpt lat="47.67051" lon="5.05517">
        <ele>405.82</ele>
        <time>2022-06-09T08:57:10Z</time>
      </trkpt>
      <trkpt lat="47.67051" lon="5.05522">
        <ele>405.67</ele>
        <time>2022-06-09T08:57:13Z</time>
      </trkpt>
      <trkpt lat="47.67051" lon="5.05527">
        <ele>405.52</ele>
        <time>2022-06-09T08:57:16Z</time>
      </trkpt>
      <trkpt lat="47.67051" lon="5.05531">
        <ele>405.47</ele>
        <time>2022-06-09T08:57:18Z</time>
      </trkpt>
      <trkpt lat="47.67051" lon="5.05536">
        <ele>405.44</ele>
        <time>2022-06-09T08:57:20Z</time>
      </trkpt>
      <trkpt lat="47.67051" lon="5.0554">
        <ele>405.42</ele>
        <time>2022-06-09T08:57:23Z</time>
      </trkpt>
      <trkpt lat="47.67052" lon="5.05544">
        <ele>405.31</ele>
        <time>2022-06-09T08:57:25Z</time>
      </trkpt>
      <trkpt lat="47.67053" lon="5.05549">
        <ele>405.21</ele>
        <time>2022-06-09T08:57:28Z</time>
      </trkpt>
      <trkpt lat="47.67054" lon="5.05554">
        <ele>405.12</ele>
        <time>2022-06-09T08:57:30Z</time>
      </trkpt>
      <trkpt lat="47.67055" lon="5.05557">
        <ele>405.04</ele>
        <time>2022-06-09T08:57:32Z</time>
      </trkpt>
      <trkpt lat="47.67056" lon="5.05561">
        <ele>405.05</ele>
        <time>2022-06-09T08:57:47Z</time>
      </trkpt>
      <trkpt lat="47.67055" lon="5.05566">
        <ele>405.05</ele>
        <time>2022-06-09T08:57:50Z</time>
      </trkpt>
      <trkpt lat="47.67056" lon="5.0557">
        <ele>405.05</ele>
        <time>2022-06-09T08:57:52Z</time>
      </trkpt>
      <trkpt lat="47.67056" lon="5.05575">
        <ele>405.05</ele>
        <time>2022-06-09T08:57:55Z</time>
      </trkpt>
      <trkpt lat="47.67057" lon="5.05579">
        <ele>405.16</ele>
        <time>2022-06-09T08:57:58Z</time>
      </trkpt>
      <trkpt lat="47.67057" lon="5.05584">
        <ele>405.18</ele>
        <time>2022-06-09T08:58:01Z</time>
      </trkpt>
      <trkpt lat="47.67058" lon="5.05588">
        <ele>405.39</ele>
        <time>2022-06-09T08:58:03Z</time>
      </trkpt>
      <trkpt lat="47.6706" lon="5.05591">
        <ele>405.62</ele>
        <time>2022-06-09T08:58:07Z</time>
      </trkpt>
      <trkpt lat="47.67063" lon="5.05593">
        <ele>405.87</ele>
        <time>2022-06-09T08:58:13Z</time>
      </trkpt>
      <trkpt lat="47.67066" lon="5.05595">
        <ele>406.07</ele>
        <time>2022-06-09T08:58:15Z</time>
      </trkpt>
      <trkpt lat="47.67069" lon="5.05595">
        <ele>406.26</ele>
        <time>2022-06-09T08:58:18Z</time>
      </trkpt>
      <trkpt lat="47.67072" lon="5.05594">
        <ele>406.48</ele>
        <time>2022-06-09T08:58:21Z</time>
      </trkpt>
      <trkpt lat="47.67074" lon="5.05594">
        <ele>406.61</ele>
        <time>2022-06-09T08:58:24Z</time>
      </trkpt>
      <trkpt lat="47.67077" lon="5.05596">
        <ele>406.72</ele>
        <time>2022-06-09T08:58:32Z</time>
      </trkpt>
      <trkpt lat="47.6708" lon="5.05596">
        <ele>406.89</ele>
        <time>2022-06-09T08:58:47Z</time>
      </trkpt>
      <trkpt lat="47.67082" lon="5.05598">
        <ele>406.88</ele>
        <time>2022-06-09T08:59:18Z</time>
      </trkpt>
      <trkpt lat="47.67084" lon="5.05602">
        <ele>406.71</ele>
        <time>2022-06-09T08:59:24Z</time>
      </trkpt>
      <trkpt lat="47.67085" lon="5.05606">
        <ele>406.53</ele>
        <time>2022-06-09T08:59:46Z</time>
      </trkpt>
      <trkpt lat="47.67088" lon="5.05607">
        <ele>406.75</ele>
        <time>2022-06-09T09:00:03Z</time>
      </trkpt>
      <trkpt lat="47.67087" lon="5.05604">
        <ele>406.84</ele>
        <time>2022-06-09T09:00:39Z</time>
      </trkpt>
      <trkpt lat="47.67085" lon="5.05601">
        <ele>406.86</ele>
        <time>2022-06-09T09:00:54Z</time>
      </trkpt>
      <trkpt lat="47.67083" lon="5.05598">
        <ele>406.93</ele>
        <time>2022-06-09T09:01:16Z</time>
      </trkpt>
      <trkpt lat="47.67085" lon="5.05601">
        <ele>406.86</ele>
        <time>2022-06-09T09:01:43Z</time>
      </trkpt>
      <trkpt lat="47.67087" lon="5.05604">
        <ele>406.84</ele>
        <time>2022-06-09T09:01:49Z</time>
      </trkpt>
      <trkpt lat="47.67089" lon="5.05608">
        <ele>406.79</ele>
        <time>2022-06-09T09:01:53Z</time>
      </trkpt>
      <trkpt lat="47.67091" lon="5.05612">
        <ele>406.82</ele>
        <time>2022-06-09T09:01:57Z</time>
      </trkpt>
      <trkpt lat="47.67093" lon="5.05615">
        <ele>407</ele>
        <time>2022-06-09T09:02:00Z</time>
      </trkpt>
      <trkpt lat="47.67094" lon="5.0562">
        <ele>407.03</ele>
        <time>2022-06-09T09:02:04Z</time>
      </trkpt>
      <trkpt lat="47.67095" lon="5.05623">
        <ele>407.08</ele>
        <time>2022-06-09T09:02:08Z</time>
      </trkpt>
      <trkpt lat="47.67097" lon="5.05627">
        <ele>407.19</ele>
        <time>2022-06-09T09:02:12Z</time>
      </trkpt>
      <trkpt lat="47.671" lon="5.0563">
        <ele>407.39</ele>
        <time>2022-06-09T09:02:15Z</time>
      </trkpt>
      <trkpt lat="47.67102" lon="5.05632">
        <ele>407.51</ele>
        <time>2022-06-09T09:02:19Z</time>
      </trkpt>
      <trkpt lat="47.67104" lon="5.05635">
        <ele>407.59</ele>
        <time>2022-06-09T09:02:23Z</time>
      </trkpt>
      <trkpt lat="47.67106" lon="5.05638">
        <ele>407.66</ele>
        <time>2022-06-09T09:02:25Z</time>
      </trkpt>
      <trkpt lat="47.67108" lon="5.05642">
        <ele>407.56</ele>
        <time>2022-06-09T09:02:30Z</time>
      </trkpt>
      <trkpt lat="47.67109" lon="5.05646">
        <ele>407.36</ele>
        <time>2022-06-09T09:02:32Z</time>
      </trkpt>
      <trkpt lat="47.67111" lon="5.0565">
        <ele>407.19</ele>
        <time>2022-06-09T09:02:34Z</time>
      </trkpt>
      <trkpt lat="47.67113" lon="5.05654">
        <ele>406.77</ele>
        <time>2022-06-09T09:02:38Z</time>
      </trkpt>
      <trkpt lat="47.67115" lon="5.05657">
        <ele>406.37</ele>
        <time>2022-06-09T09:02:40Z</time>
      </trkpt>
      <trkpt lat="47.67118" lon="5.05659">
        <ele>405.94</ele>
        <time>2022-06-09T09:02:43Z</time>
      </trkpt>
      <trkpt lat="47.6712" lon="5.05662">
        <ele>405.48</ele>
        <time>2022-06-09T09:02:45Z</time>
      </trkpt>
      <trkpt lat="47.67122" lon="5.05665">
        <ele>404.99</ele>
        <time>2022-06-09T09:02:49Z</time>
      </trkpt>
      <trkpt lat="47.67124" lon="5.05668">
        <ele>404.42</ele>
        <time>2022-06-09T09:02:51Z</time>
      </trkpt>
      <trkpt lat="47.67127" lon="5.05671">
        <ele>403.66</ele>
        <time>2022-06-09T09:02:53Z</time>
      </trkpt>
      <trkpt lat="47.67129" lon="5.05674">
        <ele>403.01</ele>
        <time>2022-06-09T09:02:56Z</time>
      </trkpt>
      <trkpt lat="47.67131" lon="5.05678">
        <ele>402.22</ele>
        <time>2022-06-09T09:02:59Z</time>
      </trkpt>
      <trkpt lat="47.67134" lon="5.05683">
        <ele>401.18</ele>
        <time>2022-06-09T09:03:01Z</time>
      </trkpt>
      <trkpt lat="47.67136" lon="5.05687">
        <ele>400.38</ele>
        <time>2022-06-09T09:03:03Z</time>
      </trkpt>
      <trkpt lat="47.67138" lon="5.0569">
        <ele>399.74</ele>
        <time>2022-06-09T09:03:06Z</time>
      </trkpt>
      <trkpt lat="47.67139" lon="5.05693">
        <ele>399.21</ele>
        <time>2022-06-09T09:03:08Z</time>
      </trkpt>
      <trkpt lat="47.67141" lon="5.05696">
        <ele>398.9</ele>
        <time>2022-06-09T09:03:10Z</time>
      </trkpt>
      <trkpt lat="47.67144" lon="5.05698">
        <ele>398.78</ele>
        <time>2022-06-09T09:03:13Z</time>
      </trkpt>
      <trkpt lat="47.67146" lon="5.05701">
        <ele>398.49</ele>
        <time>2022-06-09T09:03:16Z</time>
      </trkpt>
      <trkpt lat="47.67148" lon="5.05705">
        <ele>398.06</ele>
        <time>2022-06-09T09:03:20Z</time>
      </trkpt>
      <trkpt lat="47.6715" lon="5.05708">
        <ele>397.74</ele>
        <time>2022-06-09T09:03:22Z</time>
      </trkpt>
      <trkpt lat="47.67153" lon="5.05713">
        <ele>397.16</ele>
        <time>2022-06-09T09:03:25Z</time>
      </trkpt>
      <trkpt lat="47.67154" lon="5.05716">
        <ele>396.79</ele>
        <time>2022-06-09T09:03:26Z</time>
      </trkpt>
      <trkpt lat="47.67157" lon="5.05718">
        <ele>396.56</ele>
        <time>2022-06-09T09:03:28Z</time>
      </trkpt>
      <trkpt lat="47.6716" lon="5.05722">
        <ele>396.03</ele>
        <time>2022-06-09T09:03:30Z</time>
      </trkpt>
      <trkpt lat="47.67161" lon="5.05725">
        <ele>395.64</ele>
        <time>2022-06-09T09:03:32Z</time>
      </trkpt>
      <trkpt lat="47.67163" lon="5.05729">
        <ele>395.09</ele>
        <time>2022-06-09T09:03:36Z</time>
      </trkpt>
      <trkpt lat="47.67165" lon="5.05732">
        <ele>394.63</ele>
        <time>2022-06-09T09:03:38Z</time>
      </trkpt>
      <trkpt lat="47.67168" lon="5.05737">
        <ele>393.97</ele>
        <time>2022-06-09T09:03:41Z</time>
      </trkpt>
      <trkpt lat="47.6717" lon="5.05739">
        <ele>393.82</ele>
        <time>2022-06-09T09:03:42Z</time>
      </trkpt>
      <trkpt lat="47.67172" lon="5.05743">
        <ele>393.39</ele>
        <time>2022-06-09T09:03:44Z</time>
      </trkpt>
      <trkpt lat="47.67173" lon="5.05748">
        <ele>392.74</ele>
        <time>2022-06-09T09:03:48Z</time>
      </trkpt>
      <trkpt lat="47.67175" lon="5.05751">
        <ele>392.63</ele>
        <time>2022-06-09T09:03:49Z</time>
      </trkpt>
      <trkpt lat="47.67177" lon="5.05755">
        <ele>392.84</ele>
        <time>2022-06-09T09:03:53Z</time>
      </trkpt>
      <trkpt lat="47.67179" lon="5.05759">
        <ele>392.96</ele>
        <time>2022-06-09T09:03:56Z</time>
      </trkpt>
      <trkpt lat="47.67181" lon="5.05763">
        <ele>393</ele>
        <time>2022-06-09T09:03:59Z</time>
      </trkpt>
      <trkpt lat="47.67183" lon="5.05766">
        <ele>392.97</ele>
        <time>2022-06-09T09:04:01Z</time>
      </trkpt>
      <trkpt lat="47.67185" lon="5.0577">
        <ele>392.86</ele>
        <time>2022-06-09T09:04:04Z</time>
      </trkpt>
      <trkpt lat="47.67188" lon="5.05775">
        <ele>392.57</ele>
        <time>2022-06-09T09:04:06Z</time>
      </trkpt>
      <trkpt lat="47.6719" lon="5.05778">
        <ele>392.32</ele>
        <time>2022-06-09T09:04:08Z</time>
      </trkpt>
      <trkpt lat="47.67192" lon="5.05781">
        <ele>392.18</ele>
        <time>2022-06-09T09:04:10Z</time>
      </trkpt>
      <trkpt lat="47.67193" lon="5.05785">
        <ele>392.1</ele>
        <time>2022-06-09T09:04:12Z</time>
      </trkpt>
      <trkpt lat="47.67195" lon="5.0579">
        <ele>391.98</ele>
        <time>2022-06-09T09:04:14Z</time>
      </trkpt>
      <trkpt lat="47.67197" lon="5.05794">
        <ele>391.89</ele>
        <time>2022-06-09T09:04:17Z</time>
      </trkpt>
      <trkpt lat="47.67198" lon="5.05799">
        <ele>391.8</ele>
        <time>2022-06-09T09:04:21Z</time>
      </trkpt>
      <trkpt lat="47.67199" lon="5.05804">
        <ele>391.69</ele>
        <time>2022-06-09T09:04:23Z</time>
      </trkpt>
      <trkpt lat="47.672" lon="5.05809">
        <ele>391.53</ele>
        <time>2022-06-09T09:04:28Z</time>
      </trkpt>
      <trkpt lat="47.67202" lon="5.05812">
        <ele>391.27</ele>
        <time>2022-06-09T09:04:30Z</time>
      </trkpt>
      <trkpt lat="47.67203" lon="5.05816">
        <ele>391.04</ele>
        <time>2022-06-09T09:04:32Z</time>
      </trkpt>
      <trkpt lat="47.67205" lon="5.05819">
        <ele>390.69</ele>
        <time>2022-06-09T09:04:34Z</time>
      </trkpt>
      <trkpt lat="47.67206" lon="5.05824">
        <ele>390.34</ele>
        <time>2022-06-09T09:04:37Z</time>
      </trkpt>
      <trkpt lat="47.67208" lon="5.05828">
        <ele>389.84</ele>
        <time>2022-06-09T09:04:39Z</time>
      </trkpt>
      <trkpt lat="47.67209" lon="5.05832">
        <ele>389.46</ele>
        <time>2022-06-09T09:04:41Z</time>
      </trkpt>
      <trkpt lat="47.67211" lon="5.05836">
        <ele>388.71</ele>
        <time>2022-06-09T09:04:45Z</time>
      </trkpt>
      <trkpt lat="47.67213" lon="5.05841">
        <ele>387.74</ele>
        <time>2022-06-09T09:04:48Z</time>
      </trkpt>
      <trkpt lat="47.67215" lon="5.05845">
        <ele>386.84</ele>
        <time>2022-06-09T09:04:49Z</time>
      </trkpt>
      <trkpt lat="47.67216" lon="5.05849">
        <ele>386.12</ele>
        <time>2022-06-09T09:04:52Z</time>
      </trkpt>
      <trkpt lat="47.67218" lon="5.05853">
        <ele>385.14</ele>
        <time>2022-06-09T09:04:54Z</time>
      </trkpt>
      <trkpt lat="47.6722" lon="5.05857">
        <ele>384.13</ele>
        <time>2022-06-09T09:04:56Z</time>
      </trkpt>
      <trkpt lat="47.67222" lon="5.0586">
        <ele>383.22</ele>
        <time>2022-06-09T09:04:59Z</time>
      </trkpt>
      <trkpt lat="47.67224" lon="5.05863">
        <ele>382.85</ele>
        <time>2022-06-09T09:05:00Z</time>
      </trkpt>
      <trkpt lat="47.67226" lon="5.05866">
        <ele>382.54</ele>
        <time>2022-06-09T09:05:04Z</time>
      </trkpt>
      <trkpt lat="47.67228" lon="5.05869">
        <ele>382.18</ele>
        <time>2022-06-09T09:05:05Z</time>
      </trkpt>
      <trkpt lat="47.6723" lon="5.05872">
        <ele>381.77</ele>
        <time>2022-06-09T09:05:08Z</time>
      </trkpt>
      <trkpt lat="47.67232" lon="5.05877">
        <ele>381.03</ele>
        <time>2022-06-09T09:05:12Z</time>
      </trkpt>
      <trkpt lat="47.67233" lon="5.0588">
        <ele>380.56</ele>
        <time>2022-06-09T09:05:15Z</time>
      </trkpt>
      <trkpt lat="47.67234" lon="5.05884">
        <ele>379.9</ele>
        <time>2022-06-09T09:05:18Z</time>
      </trkpt>
      <trkpt lat="47.67235" lon="5.05888">
        <ele>379.22</ele>
        <time>2022-06-09T09:05:21Z</time>
      </trkpt>
      <trkpt lat="47.67238" lon="5.05892">
        <ele>378.5</ele>
        <time>2022-06-09T09:05:24Z</time>
      </trkpt>
      <trkpt lat="47.67241" lon="5.05894">
        <ele>377.97</ele>
        <time>2022-06-09T09:05:26Z</time>
      </trkpt>
      <trkpt lat="47.67243" lon="5.05896">
        <ele>377.48</ele>
        <time>2022-06-09T09:05:27Z</time>
      </trkpt>
      <trkpt lat="47.67247" lon="5.05898">
        <ele>376.72</ele>
        <time>2022-06-09T09:05:29Z</time>
      </trkpt>
      <trkpt lat="47.6725" lon="5.059">
        <ele>376</ele>
        <time>2022-06-09T09:05:33Z</time>
      </trkpt>
      <trkpt lat="47.67252" lon="5.05901">
        <ele>375.95</ele>
        <time>2022-06-09T09:05:36Z</time>
      </trkpt>
      <trkpt lat="47.67255" lon="5.05904">
        <ele>375.51</ele>
        <time>2022-06-09T09:05:40Z</time>
      </trkpt>
      <trkpt lat="47.67257" lon="5.05907">
        <ele>374.93</ele>
        <time>2022-06-09T09:05:43Z</time>
      </trkpt>
      <trkpt lat="47.6726" lon="5.0591">
        <ele>374.27</ele>
        <time>2022-06-09T09:05:45Z</time>
      </trkpt>
      <trkpt lat="47.67262" lon="5.05913">
        <ele>373.51</ele>
        <time>2022-06-09T09:05:48Z</time>
      </trkpt>
      <trkpt lat="47.67264" lon="5.05915">
        <ele>372.95</ele>
        <time>2022-06-09T09:05:51Z</time>
      </trkpt>
      <trkpt lat="47.67266" lon="5.05918">
        <ele>372.32</ele>
        <time>2022-06-09T09:05:53Z</time>
      </trkpt>
      <trkpt lat="47.67269" lon="5.05922">
        <ele>371.86</ele>
        <time>2022-06-09T09:05:56Z</time>
      </trkpt>
      <trkpt lat="47.67271" lon="5.05925">
        <ele>371.49</ele>
        <time>2022-06-09T09:05:59Z</time>
      </trkpt>
      <trkpt lat="47.67273" lon="5.05929">
        <ele>370.99</ele>
        <time>2022-06-09T09:06:01Z</time>
      </trkpt>
      <trkpt lat="47.67275" lon="5.05932">
        <ele>370.55</ele>
        <time>2022-06-09T09:06:04Z</time>
      </trkpt>
      <trkpt lat="47.67277" lon="5.05935">
        <ele>370.08</ele>
        <time>2022-06-09T09:06:06Z</time>
      </trkpt>
      <trkpt lat="47.6728" lon="5.05936">
        <ele>370.2</ele>
        <time>2022-06-09T09:06:08Z</time>
      </trkpt>
      <trkpt lat="47.67283" lon="5.05938">
        <ele>370.35</ele>
        <time>2022-06-09T09:06:10Z</time>
      </trkpt>
      <trkpt lat="47.67286" lon="5.05939">
        <ele>370.59</ele>
        <time>2022-06-09T09:06:12Z</time>
      </trkpt>
      <trkpt lat="47.67289" lon="5.05941">
        <ele>370.68</ele>
        <time>2022-06-09T09:06:14Z</time>
      </trkpt>
      <trkpt lat="47.67291" lon="5.05943">
        <ele>370.63</ele>
        <time>2022-06-09T09:06:17Z</time>
      </trkpt>
      <trkpt lat="47.67295" lon="5.05946">
        <ele>370.55</ele>
        <time>2022-06-09T09:06:20Z</time>
      </trkpt>
      <trkpt lat="47.67298" lon="5.05948">
        <ele>370.45</ele>
        <time>2022-06-09T09:06:22Z</time>
      </trkpt>
      <trkpt lat="47.673" lon="5.0595">
        <ele>370.24</ele>
        <time>2022-06-09T09:06:23Z</time>
      </trkpt>
      <trkpt lat="47.67304" lon="5.05953">
        <ele>370</ele>
        <time>2022-06-09T09:06:26Z</time>
      </trkpt>
      <trkpt lat="47.67306" lon="5.05955">
        <ele>369.73</ele>
        <time>2022-06-09T09:06:27Z</time>
      </trkpt>
      <trkpt lat="47.67309" lon="5.05957">
        <ele>369.36</ele>
        <time>2022-06-09T09:06:30Z</time>
      </trkpt>
      <trkpt lat="47.67312" lon="5.05959">
        <ele>368.97</ele>
        <time>2022-06-09T09:06:32Z</time>
      </trkpt>
      <trkpt lat="47.67314" lon="5.05961">
        <ele>368.55</ele>
        <time>2022-06-09T09:06:34Z</time>
      </trkpt>
      <trkpt lat="47.67318" lon="5.05962">
        <ele>368.37</ele>
        <time>2022-06-09T09:06:37Z</time>
      </trkpt>
      <trkpt lat="47.6732" lon="5.05963">
        <ele>368.16</ele>
        <time>2022-06-09T09:06:39Z</time>
      </trkpt>
      <trkpt lat="47.67323" lon="5.05964">
        <ele>367.96</ele>
        <time>2022-06-09T09:06:40Z</time>
      </trkpt>
      <trkpt lat="47.67327" lon="5.05965">
        <ele>367.76</ele>
        <time>2022-06-09T09:06:43Z</time>
      </trkpt>
      <trkpt lat="47.6733" lon="5.05967">
        <ele>367.29</ele>
        <time>2022-06-09T09:06:44Z</time>
      </trkpt>
      <trkpt lat="47.67332" lon="5.05968">
        <ele>367.06</ele>
        <time>2022-06-09T09:06:47Z</time>
      </trkpt>
      <trkpt lat="47.67335" lon="5.05969">
        <ele>367.05</ele>
        <time>2022-06-09T09:06:48Z</time>
      </trkpt>
      <trkpt lat="47.67338" lon="5.05972">
        <ele>366.73</ele>
        <time>2022-06-09T09:06:51Z</time>
      </trkpt>
      <trkpt lat="47.67341" lon="5.05974">
        <ele>366.93</ele>
        <time>2022-06-09T09:06:55Z</time>
      </trkpt>
      <trkpt lat="47.67343" lon="5.05976">
        <ele>366.97</ele>
        <time>2022-06-09T09:06:57Z</time>
      </trkpt>
      <trkpt lat="47.67346" lon="5.05978">
        <ele>367.05</ele>
        <time>2022-06-09T09:07:00Z</time>
      </trkpt>
      <trkpt lat="47.67348" lon="5.0598">
        <ele>366.94</ele>
        <time>2022-06-09T09:07:02Z</time>
      </trkpt>
      <trkpt lat="47.67351" lon="5.05982">
        <ele>366.85</ele>
        <time>2022-06-09T09:07:06Z</time>
      </trkpt>
      <trkpt lat="47.67354" lon="5.05985">
        <ele>366.46</ele>
        <time>2022-06-09T09:07:09Z</time>
      </trkpt>
      <trkpt lat="47.67357" lon="5.05987">
        <ele>366.16</ele>
        <time>2022-06-09T09:07:13Z</time>
      </trkpt>
      <trkpt lat="47.6736" lon="5.05989">
        <ele>365.76</ele>
        <time>2022-06-09T09:07:15Z</time>
      </trkpt>
      <trkpt lat="47.67364" lon="5.0599">
        <ele>366.49</ele>
        <time>2022-06-09T09:07:18Z</time>
      </trkpt>
      <trkpt lat="47.67368" lon="5.05993">
        <ele>367.06</ele>
        <time>2022-06-09T09:07:21Z</time>
      </trkpt>
      <trkpt lat="47.6737" lon="5.05994">
        <ele>367.46</ele>
        <time>2022-06-09T09:07:21Z</time>
      </trkpt>
      <trkpt lat="47.67373" lon="5.05994">
        <ele>368.46</ele>
        <time>2022-06-09T09:07:23Z</time>
      </trkpt>
      <trkpt lat="47.67377" lon="5.05995">
        <ele>369.51</ele>
        <time>2022-06-09T09:07:26Z</time>
      </trkpt>
      <trkpt lat="47.6738" lon="5.05996">
        <ele>370.23</ele>
        <time>2022-06-09T09:07:29Z</time>
      </trkpt>
      <trkpt lat="47.67382" lon="5.05996">
        <ele>370.88</ele>
        <time>2022-06-09T09:07:30Z</time>
      </trkpt>
      <trkpt lat="47.67386" lon="5.05997">
        <ele>371.92</ele>
        <time>2022-06-09T09:07:33Z</time>
      </trkpt>
      <trkpt lat="47.6739" lon="5.05998">
        <ele>372.89</ele>
        <time>2022-06-09T09:07:36Z</time>
      </trkpt>
      <trkpt lat="47.67393" lon="5.05999">
        <ele>373.46</ele>
        <time>2022-06-09T09:07:37Z</time>
      </trkpt>
      <trkpt lat="47.67397" lon="5.06001">
        <ele>374.04</ele>
        <time>2022-06-09T09:07:38Z</time>
      </trkpt>
      <trkpt lat="47.674" lon="5.06002">
        <ele>374.58</ele>
        <time>2022-06-09T09:07:40Z</time>
      </trkpt>
      <trkpt lat="47.67403" lon="5.06002">
        <ele>375.41</ele>
        <time>2022-06-09T09:07:41Z</time>
      </trkpt>
      <trkpt lat="47.67406" lon="5.06002">
        <ele>376.25</ele>
        <time>2022-06-09T09:07:43Z</time>
      </trkpt>
      <trkpt lat="47.67409" lon="5.06002">
        <ele>377.08</ele>
        <time>2022-06-09T09:07:46Z</time>
      </trkpt>
      <trkpt lat="47.67413" lon="5.06003">
        <ele>377.81</ele>
        <time>2022-06-09T09:07:48Z</time>
      </trkpt>
      <trkpt lat="47.67416" lon="5.06003">
        <ele>378.63</ele>
        <time>2022-06-09T09:07:50Z</time>
      </trkpt>
      <trkpt lat="47.67419" lon="5.06004">
        <ele>378.39</ele>
        <time>2022-06-09T09:07:54Z</time>
      </trkpt>
      <trkpt lat="47.67422" lon="5.06006">
        <ele>377.64</ele>
        <time>2022-06-09T09:07:54Z</time>
      </trkpt>
      <trkpt lat="47.67424" lon="5.06008">
        <ele>376.95</ele>
        <time>2022-06-09T09:07:57Z</time>
      </trkpt>
      <trkpt lat="47.67428" lon="5.06009">
        <ele>376.69</ele>
        <time>2022-06-09T09:07:58Z</time>
      </trkpt>
      <trkpt lat="47.67431" lon="5.0601">
        <ele>376.45</ele>
        <time>2022-06-09T09:08:01Z</time>
      </trkpt>
      <trkpt lat="47.67433" lon="5.0601">
        <ele>376.51</ele>
        <time>2022-06-09T09:08:03Z</time>
      </trkpt>
      <trkpt lat="47.67437" lon="5.06011">
        <ele>376.36</ele>
        <time>2022-06-09T09:08:06Z</time>
      </trkpt>
      <trkpt lat="47.6744" lon="5.06012">
        <ele>376.22</ele>
        <time>2022-06-09T09:08:08Z</time>
      </trkpt>
      <trkpt lat="47.67444" lon="5.06014">
        <ele>375.95</ele>
        <time>2022-06-09T09:08:12Z</time>
      </trkpt>
      <trkpt lat="47.67446" lon="5.06016">
        <ele>375.43</ele>
        <time>2022-06-09T09:08:17Z</time>
      </trkpt>
      <trkpt lat="47.67449" lon="5.06018">
        <ele>374.78</ele>
        <time>2022-06-09T09:08:19Z</time>
      </trkpt>
      <trkpt lat="47.67451" lon="5.0602">
        <ele>374.21</ele>
        <time>2022-06-09T09:08:23Z</time>
      </trkpt>
      <trkpt lat="47.67454" lon="5.06022">
        <ele>373.56</ele>
        <time>2022-06-09T09:08:26Z</time>
      </trkpt>
      <trkpt lat="47.67457" lon="5.06024">
        <ele>372.91</ele>
        <time>2022-06-09T09:08:28Z</time>
      </trkpt>
      <trkpt lat="47.6746" lon="5.06026">
        <ele>372.26</ele>
        <time>2022-06-09T09:08:31Z</time>
      </trkpt>
      <trkpt lat="47.67464" lon="5.06028">
        <ele>371.49</ele>
        <time>2022-06-09T09:08:33Z</time>
      </trkpt>
      <trkpt lat="47.67468" lon="5.06029">
        <ele>370.73</ele>
        <time>2022-06-09T09:08:34Z</time>
      </trkpt>
      <trkpt lat="47.67471" lon="5.0603">
        <ele>369.99</ele>
        <time>2022-06-09T09:08:37Z</time>
      </trkpt>
      <trkpt lat="47.67474" lon="5.06031">
        <ele>369.06</ele>
        <time>2022-06-09T09:08:39Z</time>
      </trkpt>
      <trkpt lat="47.67478" lon="5.06031">
        <ele>368.36</ele>
        <time>2022-06-09T09:08:41Z</time>
      </trkpt>
      <trkpt lat="47.67481" lon="5.06031">
        <ele>367.83</ele>
        <time>2022-06-09T09:08:42Z</time>
      </trkpt>
      <trkpt lat="47.67484" lon="5.06031">
        <ele>367.31</ele>
        <time>2022-06-09T09:08:44Z</time>
      </trkpt>
      <trkpt lat="47.67487" lon="5.06031">
        <ele>366.78</ele>
        <time>2022-06-09T09:08:47Z</time>
      </trkpt>
      <trkpt lat="47.6749" lon="5.0603">
        <ele>366.73</ele>
        <time>2022-06-09T09:08:49Z</time>
      </trkpt>
      <trkpt lat="47.67493" lon="5.06028">
        <ele>367.15</ele>
        <time>2022-06-09T09:08:52Z</time>
      </trkpt>
      <trkpt lat="47.67496" lon="5.06026">
        <ele>367.38</ele>
        <time>2022-06-09T09:08:55Z</time>
      </trkpt>
      <trkpt lat="47.67497" lon="5.06022">
        <ele>368.72</ele>
        <time>2022-06-09T09:09:43Z</time>
      </trkpt>
      <trkpt lat="47.675" lon="5.06019">
        <ele>369.48</ele>
        <time>2022-06-09T09:09:47Z</time>
      </trkpt>
      <trkpt lat="47.67503" lon="5.06018">
        <ele>369.47</ele>
        <time>2022-06-09T09:09:51Z</time>
      </trkpt>
      <trkpt lat="47.67505" lon="5.06021">
        <ele>368.1</ele>
        <time>2022-06-09T09:09:55Z</time>
      </trkpt>
      <trkpt lat="47.67507" lon="5.06023">
        <ele>367.17</ele>
        <time>2022-06-09T09:10:00Z</time>
      </trkpt>
      <trkpt lat="47.6751" lon="5.06025">
        <ele>366.2</ele>
        <time>2022-06-09T09:10:02Z</time>
      </trkpt>
      <trkpt lat="47.67513" lon="5.06026">
        <ele>365.62</ele>
        <time>2022-06-09T09:10:05Z</time>
      </trkpt>
      <trkpt lat="47.67516" lon="5.06027">
        <ele>365.08</ele>
        <time>2022-06-09T09:10:07Z</time>
      </trkpt>
      <trkpt lat="47.67519" lon="5.06029">
        <ele>364.24</ele>
        <time>2022-06-09T09:10:13Z</time>
      </trkpt>
      <trkpt lat="47.67522" lon="5.06029">
        <ele>364.05</ele>
        <time>2022-06-09T09:10:16Z</time>
      </trkpt>
      <trkpt lat="47.67525" lon="5.0603">
        <ele>363.59</ele>
        <time>2022-06-09T09:10:19Z</time>
      </trkpt>
      <trkpt lat="47.67528" lon="5.0603">
        <ele>363.45</ele>
        <time>2022-06-09T09:10:22Z</time>
      </trkpt>
      <trkpt lat="47.67532" lon="5.06029">
        <ele>363.83</ele>
        <time>2022-06-09T09:10:24Z</time>
      </trkpt>
      <trkpt lat="47.67535" lon="5.06029">
        <ele>363.93</ele>
        <time>2022-06-09T09:10:26Z</time>
      </trkpt>
      <trkpt lat="47.67538" lon="5.06029">
        <ele>364.03</ele>
        <time>2022-06-09T09:10:29Z</time>
      </trkpt>
      <trkpt lat="47.67541" lon="5.0603">
        <ele>363.84</ele>
        <time>2022-06-09T09:10:31Z</time>
      </trkpt>
      <trkpt lat="47.67544" lon="5.06031">
        <ele>363.64</ele>
        <time>2022-06-09T09:10:35Z</time>
      </trkpt>
      <trkpt lat="47.67547" lon="5.06032">
        <ele>363.42</ele>
        <time>2022-06-09T09:10:37Z</time>
      </trkpt>
      <trkpt lat="47.6755" lon="5.06032">
        <ele>363.49</ele>
        <time>2022-06-09T09:10:42Z</time>
      </trkpt>
      <trkpt lat="47.67553" lon="5.06032">
        <ele>363.57</ele>
        <time>2022-06-09T09:10:45Z</time>
      </trkpt>
      <trkpt lat="47.67556" lon="5.06032">
        <ele>363.5</ele>
        <time>2022-06-09T09:10:47Z</time>
      </trkpt>
      <trkpt lat="47.6756" lon="5.06031">
        <ele>362.57</ele>
        <time>2022-06-09T09:10:50Z</time>
      </trkpt>
      <trkpt lat="47.67563" lon="5.06031">
        <ele>361.64</ele>
        <time>2022-06-09T09:10:51Z</time>
      </trkpt>
      <trkpt lat="47.67565" lon="5.0603">
        <ele>361.3</ele>
        <time>2022-06-09T09:10:52Z</time>
      </trkpt>
      <trkpt lat="47.67568" lon="5.0603">
        <ele>360.36</ele>
        <time>2022-06-09T09:10:54Z</time>
      </trkpt>
      <trkpt lat="47.67571" lon="5.06029">
        <ele>359.67</ele>
        <time>2022-06-09T09:10:57Z</time>
      </trkpt>
      <trkpt lat="47.67575" lon="5.06029">
        <ele>358.4</ele>
        <time>2022-06-09T09:10:59Z</time>
      </trkpt>
      <trkpt lat="47.67578" lon="5.06028">
        <ele>357.68</ele>
        <time>2022-06-09T09:11:00Z</time>
      </trkpt>
      <trkpt lat="47.67582" lon="5.06028">
        <ele>356.38</ele>
        <time>2022-06-09T09:11:02Z</time>
      </trkpt>
      <trkpt lat="47.67585" lon="5.06028">
        <ele>356.07</ele>
        <time>2022-06-09T09:11:04Z</time>
      </trkpt>
      <trkpt lat="47.6759" lon="5.06028">
        <ele>356.43</ele>
        <time>2022-06-09T09:11:06Z</time>
      </trkpt>
      <trkpt lat="47.67593" lon="5.06027">
        <ele>356.82</ele>
        <time>2022-06-09T09:11:08Z</time>
      </trkpt>
      <trkpt lat="47.67596" lon="5.06027">
        <ele>357.03</ele>
        <time>2022-06-09T09:11:10Z</time>
      </trkpt>
      <trkpt lat="47.676" lon="5.06028">
        <ele>357.15</ele>
        <time>2022-06-09T09:11:11Z</time>
      </trkpt>
      <trkpt lat="47.67603" lon="5.06029">
        <ele>357.15</ele>
        <time>2022-06-09T09:11:12Z</time>
      </trkpt>
      <trkpt lat="47.67606" lon="5.0603">
        <ele>357.15</ele>
        <time>2022-06-09T09:11:14Z</time>
      </trkpt>
      <trkpt lat="47.6761" lon="5.06032">
        <ele>357.01</ele>
        <time>2022-06-09T09:11:15Z</time>
      </trkpt>
      <trkpt lat="47.67614" lon="5.06035">
        <ele>356.78</ele>
        <time>2022-06-09T09:11:19Z</time>
      </trkpt>
      <trkpt lat="47.67616" lon="5.06037">
        <ele>356.59</ele>
        <time>2022-06-09T09:11:21Z</time>
      </trkpt>
      <trkpt lat="47.67619" lon="5.06039">
        <ele>356.54</ele>
        <time>2022-06-09T09:11:23Z</time>
      </trkpt>
      <trkpt lat="47.67621" lon="5.06041">
        <ele>356.38</ele>
        <time>2022-06-09T09:11:26Z</time>
      </trkpt>
      <trkpt lat="47.67624" lon="5.06044">
        <ele>356.16</ele>
        <time>2022-06-09T09:11:28Z</time>
      </trkpt>
      <trkpt lat="47.67627" lon="5.06046">
        <ele>356.16</ele>
        <time>2022-06-09T09:11:31Z</time>
      </trkpt>
      <trkpt lat="47.67629" lon="5.06048">
        <ele>356.03</ele>
        <time>2022-06-09T09:11:33Z</time>
      </trkpt>
      <trkpt lat="47.67632" lon="5.06051">
        <ele>355.87</ele>
        <time>2022-06-09T09:11:35Z</time>
      </trkpt>
      <trkpt lat="47.67635" lon="5.06054">
        <ele>355.73</ele>
        <time>2022-06-09T09:11:37Z</time>
      </trkpt>
      <trkpt lat="47.67637" lon="5.06058">
        <ele>355.46</ele>
        <time>2022-06-09T09:11:40Z</time>
      </trkpt>
      <trkpt lat="47.67638" lon="5.06061">
        <ele>355.28</ele>
        <time>2022-06-09T09:11:43Z</time>
      </trkpt>
      <trkpt lat="47.67641" lon="5.06064">
        <ele>355.64</ele>
        <time>2022-06-09T09:11:46Z</time>
      </trkpt>
      <trkpt lat="47.67643" lon="5.06067">
        <ele>355.86</ele>
        <time>2022-06-09T09:11:48Z</time>
      </trkpt>
      <trkpt lat="47.67645" lon="5.0607">
        <ele>356.09</ele>
        <time>2022-06-09T09:11:51Z</time>
      </trkpt>
      <trkpt lat="47.67647" lon="5.06073">
        <ele>356.34</ele>
        <time>2022-06-09T09:11:54Z</time>
      </trkpt>
      <trkpt lat="47.6765" lon="5.06075">
        <ele>356.98</ele>
        <time>2022-06-09T09:11:55Z</time>
      </trkpt>
      <trkpt lat="47.67652" lon="5.06077">
        <ele>357.35</ele>
        <time>2022-06-09T09:11:57Z</time>
      </trkpt>
      <trkpt lat="47.67655" lon="5.0608">
        <ele>357.93</ele>
        <time>2022-06-09T09:11:59Z</time>
      </trkpt>
      <trkpt lat="47.67658" lon="5.06082">
        <ele>358.61</ele>
        <time>2022-06-09T09:12:01Z</time>
      </trkpt>
      <trkpt lat="47.67661" lon="5.06085">
        <ele>359.08</ele>
        <time>2022-06-09T09:12:04Z</time>
      </trkpt>
      <trkpt lat="47.67663" lon="5.06088">
        <ele>359.13</ele>
        <time>2022-06-09T09:12:07Z</time>
      </trkpt>
      <trkpt lat="47.67666" lon="5.06091">
        <ele>359.43</ele>
        <time>2022-06-09T09:12:09Z</time>
      </trkpt>
      <trkpt lat="47.67669" lon="5.06093">
        <ele>359.29</ele>
        <time>2022-06-09T09:12:11Z</time>
      </trkpt>
      <trkpt lat="47.67671" lon="5.06096">
        <ele>358.73</ele>
        <time>2022-06-09T09:12:13Z</time>
      </trkpt>
      <trkpt lat="47.67674" lon="5.06098">
        <ele>358.35</ele>
        <time>2022-06-09T09:12:16Z</time>
      </trkpt>
      <trkpt lat="47.67677" lon="5.061">
        <ele>357.93</ele>
        <time>2022-06-09T09:12:17Z</time>
      </trkpt>
      <trkpt lat="47.67679" lon="5.06102">
        <ele>357.49</ele>
        <time>2022-06-09T09:12:19Z</time>
      </trkpt>
      <trkpt lat="47.67682" lon="5.06105">
        <ele>356.79</ele>
        <time>2022-06-09T09:12:24Z</time>
      </trkpt>
      <trkpt lat="47.67684" lon="5.06108">
        <ele>356.08</ele>
        <time>2022-06-09T09:12:27Z</time>
      </trkpt>
      <trkpt lat="47.67687" lon="5.06109">
        <ele>355.76</ele>
        <time>2022-06-09T09:12:29Z</time>
      </trkpt>
      <trkpt lat="47.6769" lon="5.0611">
        <ele>355.43</ele>
        <time>2022-06-09T09:12:31Z</time>
      </trkpt>
      <trkpt lat="47.67692" lon="5.06111">
        <ele>355.12</ele>
        <time>2022-06-09T09:12:33Z</time>
      </trkpt>
      <trkpt lat="47.67695" lon="5.06111">
        <ele>355.13</ele>
        <time>2022-06-09T09:12:35Z</time>
      </trkpt>
      <trkpt lat="47.67698" lon="5.06111">
        <ele>355.67</ele>
        <time>2022-06-09T09:12:36Z</time>
      </trkpt>
      <trkpt lat="47.67701" lon="5.06111">
        <ele>356.21</ele>
        <time>2022-06-09T09:12:38Z</time>
      </trkpt>
      <trkpt lat="47.67705" lon="5.06112">
        <ele>356.75</ele>
        <time>2022-06-09T09:12:41Z</time>
      </trkpt>
      <trkpt lat="47.67708" lon="5.06113">
        <ele>357.1</ele>
        <time>2022-06-09T09:12:44Z</time>
      </trkpt>
      <trkpt lat="47.6771" lon="5.06115">
        <ele>357.08</ele>
        <time>2022-06-09T09:12:49Z</time>
      </trkpt>
      <trkpt lat="47.67713" lon="5.06117">
        <ele>357.21</ele>
        <time>2022-06-09T09:12:52Z</time>
      </trkpt>
      <trkpt lat="47.67716" lon="5.06119">
        <ele>357.3</ele>
        <time>2022-06-09T09:12:54Z</time>
      </trkpt>
      <trkpt lat="47.67719" lon="5.06121">
        <ele>357.37</ele>
        <time>2022-06-09T09:12:56Z</time>
      </trkpt>
      <trkpt lat="47.67722" lon="5.06122">
        <ele>357.61</ele>
        <time>2022-06-09T09:12:58Z</time>
      </trkpt>
      <trkpt lat="47.67725" lon="5.06123">
        <ele>357.89</ele>
        <time>2022-06-09T09:13:00Z</time>
      </trkpt>
      <trkpt lat="47.67727" lon="5.06124">
        <ele>358</ele>
        <time>2022-06-09T09:13:01Z</time>
      </trkpt>
      <trkpt lat="47.6773" lon="5.06126">
        <ele>358.03</ele>
        <time>2022-06-09T09:13:05Z</time>
      </trkpt>
      <trkpt lat="47.67733" lon="5.06126">
        <ele>358.52</ele>
        <time>2022-06-09T09:13:08Z</time>
      </trkpt>
      <trkpt lat="47.67736" lon="5.06126">
        <ele>359</ele>
        <time>2022-06-09T09:13:10Z</time>
      </trkpt>
      <trkpt lat="47.67741" lon="5.06126">
        <ele>359.8</ele>
        <time>2022-06-09T09:13:13Z</time>
      </trkpt>
      <trkpt lat="47.67744" lon="5.06126">
        <ele>360.28</ele>
        <time>2022-06-09T09:13:16Z</time>
      </trkpt>
      <trkpt lat="47.67747" lon="5.06128">
        <ele>360.27</ele>
        <time>2022-06-09T09:13:18Z</time>
      </trkpt>
      <trkpt lat="47.6775" lon="5.06131">
        <ele>359.99</ele>
        <time>2022-06-09T09:13:22Z</time>
      </trkpt>
      <trkpt lat="47.67752" lon="5.06133">
        <ele>359.62</ele>
        <time>2022-06-09T09:13:24Z</time>
      </trkpt>
      <trkpt lat="47.67755" lon="5.06136">
        <ele>358.98</ele>
        <time>2022-06-09T09:13:31Z</time>
      </trkpt>
      <trkpt lat="47.67757" lon="5.06139">
        <ele>358.22</ele>
        <time>2022-06-09T09:13:37Z</time>
      </trkpt>
      <trkpt lat="47.67759" lon="5.06142">
        <ele>357.54</ele>
        <time>2022-06-09T09:14:36Z</time>
      </trkpt>
      <trkpt lat="47.67762" lon="5.0614">
        <ele>358.15</ele>
        <time>2022-06-09T09:16:05Z</time>
      </trkpt>
      <trkpt lat="47.67765" lon="5.06141">
        <ele>358.01</ele>
        <time>2022-06-09T09:16:08Z</time>
      </trkpt>
      <trkpt lat="47.67768" lon="5.06141">
        <ele>358.12</ele>
        <time>2022-06-09T09:16:11Z</time>
      </trkpt>
      <trkpt lat="47.67771" lon="5.06141">
        <ele>358.22</ele>
        <time>2022-06-09T09:16:17Z</time>
      </trkpt>
      <trkpt lat="47.67774" lon="5.06141">
        <ele>358.33</ele>
        <time>2022-06-09T09:16:21Z</time>
      </trkpt>
      <trkpt lat="47.67776" lon="5.06141">
        <ele>358.4</ele>
        <time>2022-06-09T09:16:25Z</time>
      </trkpt>
      <trkpt lat="47.67779" lon="5.06141">
        <ele>358.47</ele>
        <time>2022-06-09T09:16:28Z</time>
      </trkpt>
      <trkpt lat="47.67783" lon="5.06142">
        <ele>358.24</ele>
        <time>2022-06-09T09:16:32Z</time>
      </trkpt>
      <trkpt lat="47.67785" lon="5.06143">
        <ele>358</ele>
        <time>2022-06-09T09:16:34Z</time>
      </trkpt>
      <trkpt lat="47.67788" lon="5.06144">
        <ele>357.78</ele>
        <time>2022-06-09T09:16:37Z</time>
      </trkpt>
      <trkpt lat="47.67791" lon="5.06145">
        <ele>357.56</ele>
        <time>2022-06-09T09:16:41Z</time>
      </trkpt>
      <trkpt lat="47.67793" lon="5.06148">
        <ele>356.88</ele>
        <time>2022-06-09T09:16:46Z</time>
      </trkpt>
      <trkpt lat="47.67795" lon="5.06151">
        <ele>356.22</ele>
        <time>2022-06-09T09:16:48Z</time>
      </trkpt>
      <trkpt lat="47.67797" lon="5.06154">
        <ele>355.57</ele>
        <time>2022-06-09T09:16:51Z</time>
      </trkpt>
      <trkpt lat="47.67799" lon="5.06157">
        <ele>354.93</ele>
        <time>2022-06-09T09:16:55Z</time>
      </trkpt>
      <trkpt lat="47.67802" lon="5.06159">
        <ele>354.56</ele>
        <time>2022-06-09T09:17:02Z</time>
      </trkpt>
      <trkpt lat="47.67804" lon="5.06162">
        <ele>353.96</ele>
        <time>2022-06-09T09:17:06Z</time>
      </trkpt>
      <trkpt lat="47.67806" lon="5.06165">
        <ele>353.33</ele>
        <time>2022-06-09T09:17:08Z</time>
      </trkpt>
      <trkpt lat="47.67808" lon="5.06168">
        <ele>352.49</ele>
        <time>2022-06-09T09:17:11Z</time>
      </trkpt>
      <trkpt lat="47.6781" lon="5.06171">
        <ele>351.59</ele>
        <time>2022-06-09T09:17:13Z</time>
      </trkpt>
      <trkpt lat="47.67812" lon="5.06175">
        <ele>350.44</ele>
        <time>2022-06-09T09:17:14Z</time>
      </trkpt>
      <trkpt lat="47.67813" lon="5.06178">
        <ele>349.61</ele>
        <time>2022-06-09T09:17:17Z</time>
      </trkpt>
      <trkpt lat="47.67815" lon="5.06182">
        <ele>348.46</ele>
        <time>2022-06-09T09:17:19Z</time>
      </trkpt>
      <trkpt lat="47.67815" lon="5.06186">
        <ele>347.45</ele>
        <time>2022-06-09T09:17:22Z</time>
      </trkpt>
      <trkpt lat="47.67816" lon="5.06191">
        <ele>346.12</ele>
        <time>2022-06-09T09:17:24Z</time>
      </trkpt>
      <trkpt lat="47.67817" lon="5.06195">
        <ele>345.08</ele>
        <time>2022-06-09T09:17:26Z</time>
      </trkpt>
      <trkpt lat="47.67818" lon="5.06199">
        <ele>344.28</ele>
        <time>2022-06-09T09:17:30Z</time>
      </trkpt>
      <trkpt lat="47.67819" lon="5.06203">
        <ele>343.49</ele>
        <time>2022-06-09T09:17:32Z</time>
      </trkpt>
      <trkpt lat="47.6782" lon="5.06207">
        <ele>342.7</ele>
        <time>2022-06-09T09:17:35Z</time>
      </trkpt>
      <trkpt lat="47.67822" lon="5.06211">
        <ele>341.84</ele>
        <time>2022-06-09T09:17:37Z</time>
      </trkpt>
      <trkpt lat="47.67823" lon="5.06215">
        <ele>341.04</ele>
        <time>2022-06-09T09:17:40Z</time>
      </trkpt>
      <trkpt lat="47.67824" lon="5.06219">
        <ele>340.25</ele>
        <time>2022-06-09T09:17:44Z</time>
      </trkpt>
      <trkpt lat="47.67824" lon="5.06223">
        <ele>339.62</ele>
        <time>2022-06-09T09:17:47Z</time>
      </trkpt>
      <trkpt lat="47.67824" lon="5.06228">
        <ele>339.26</ele>
        <time>2022-06-09T09:17:50Z</time>
      </trkpt>
      <trkpt lat="47.67824" lon="5.06232">
        <ele>338.97</ele>
        <time>2022-06-09T09:17:53Z</time>
      </trkpt>
      <trkpt lat="47.67824" lon="5.06236">
        <ele>338.68</ele>
        <time>2022-06-09T09:17:56Z</time>
      </trkpt>
      <trkpt lat="47.67824" lon="5.06241">
        <ele>338.32</ele>
        <time>2022-06-09T09:17:57Z</time>
      </trkpt>
      <trkpt lat="47.67824" lon="5.06246">
        <ele>337.96</ele>
        <time>2022-06-09T09:17:59Z</time>
      </trkpt>
      <trkpt lat="47.67825" lon="5.06251">
        <ele>337.59</ele>
        <time>2022-06-09T09:18:00Z</time>
      </trkpt>
      <trkpt lat="47.67825" lon="5.06255">
        <ele>337.53</ele>
        <time>2022-06-09T09:18:02Z</time>
      </trkpt>
      <trkpt lat="47.67826" lon="5.0626">
        <ele>337.36</ele>
        <time>2022-06-09T09:18:04Z</time>
      </trkpt>
      <trkpt lat="47.67827" lon="5.06264">
        <ele>337.18</ele>
        <time>2022-06-09T09:18:08Z</time>
      </trkpt>
      <trkpt lat="47.67828" lon="5.06269">
        <ele>336.96</ele>
        <time>2022-06-09T09:18:11Z</time>
      </trkpt>
      <trkpt lat="47.67828" lon="5.06274">
        <ele>336.85</ele>
        <time>2022-06-09T09:18:14Z</time>
      </trkpt>
      <trkpt lat="47.67827" lon="5.06279">
        <ele>336.91</ele>
        <time>2022-06-09T09:18:18Z</time>
      </trkpt>
      <trkpt lat="47.67827" lon="5.06283">
        <ele>336.89</ele>
        <time>2022-06-09T09:18:22Z</time>
      </trkpt>
      <trkpt lat="47.67829" lon="5.06286">
        <ele>336.69</ele>
        <time>2022-06-09T09:18:25Z</time>
      </trkpt>
      <trkpt lat="47.6783" lon="5.0629">
        <ele>336.66</ele>
        <time>2022-06-09T09:18:29Z</time>
      </trkpt>
      <trkpt lat="47.67833" lon="5.06295">
        <ele>336.63</ele>
        <time>2022-06-09T09:18:31Z</time>
      </trkpt>
      <trkpt lat="47.67836" lon="5.06298">
        <ele>336.85</ele>
        <time>2022-06-09T09:18:33Z</time>
      </trkpt>
      <trkpt lat="47.67838" lon="5.063">
        <ele>337</ele>
        <time>2022-06-09T09:18:34Z</time>
      </trkpt>
      <trkpt lat="47.6784" lon="5.06302">
        <ele>337.14</ele>
        <time>2022-06-09T09:18:37Z</time>
      </trkpt>
      <trkpt lat="47.67843" lon="5.06305">
        <ele>337.33</ele>
        <time>2022-06-09T09:18:40Z</time>
      </trkpt>
      <trkpt lat="47.67845" lon="5.06308">
        <ele>337.51</ele>
        <time>2022-06-09T09:18:42Z</time>
      </trkpt>
      <trkpt lat="47.67846" lon="5.06313">
        <ele>337.72</ele>
        <time>2022-06-09T09:18:45Z</time>
      </trkpt>
      <trkpt lat="47.67847" lon="5.06317">
        <ele>337.9</ele>
        <time>2022-06-09T09:18:48Z</time>
      </trkpt>
      <trkpt lat="47.6785" lon="5.0632">
        <ele>338.12</ele>
        <time>2022-06-09T09:18:51Z</time>
      </trkpt>
      <trkpt lat="47.67852" lon="5.06323">
        <ele>338.3</ele>
        <time>2022-06-09T09:18:53Z</time>
      </trkpt>
      <trkpt lat="47.67856" lon="5.06324">
        <ele>338.48</ele>
        <time>2022-06-09T09:18:56Z</time>
      </trkpt>
      <trkpt lat="47.67859" lon="5.06327">
        <ele>338.7</ele>
        <time>2022-06-09T09:18:58Z</time>
      </trkpt>
      <trkpt lat="47.6786" lon="5.06331">
        <ele>338.88</ele>
        <time>2022-06-09T09:19:01Z</time>
      </trkpt>
      <trkpt lat="47.67863" lon="5.06334">
        <ele>338.94</ele>
        <time>2022-06-09T09:19:03Z</time>
      </trkpt>
      <trkpt lat="47.67865" lon="5.06338">
        <ele>338.91</ele>
        <time>2022-06-09T09:19:06Z</time>
      </trkpt>
      <trkpt lat="47.67867" lon="5.06341">
        <ele>338.91</ele>
        <time>2022-06-09T09:19:09Z</time>
      </trkpt>
      <trkpt lat="47.67868" lon="5.06344">
        <ele>338.94</ele>
        <time>2022-06-09T09:19:13Z</time>
      </trkpt>
      <trkpt lat="47.6787" lon="5.06348">
        <ele>339.02</ele>
        <time>2022-06-09T09:19:16Z</time>
      </trkpt>
      <trkpt lat="47.67871" lon="5.06352">
        <ele>339.12</ele>
        <time>2022-06-09T09:19:18Z</time>
      </trkpt>
      <trkpt lat="47.67872" lon="5.06356">
        <ele>339.25</ele>
        <time>2022-06-09T09:19:22Z</time>
      </trkpt>
      <trkpt lat="47.67873" lon="5.0636">
        <ele>339.39</ele>
        <time>2022-06-09T09:19:25Z</time>
      </trkpt>
      <trkpt lat="47.67875" lon="5.06364">
        <ele>339.97</ele>
        <time>2022-06-09T09:19:27Z</time>
      </trkpt>
      <trkpt lat="47.67876" lon="5.06368">
        <ele>340.64</ele>
        <time>2022-06-09T09:19:30Z</time>
      </trkpt>
      <trkpt lat="47.67878" lon="5.06372">
        <ele>341.33</ele>
        <time>2022-06-09T09:19:32Z</time>
      </trkpt>
      <trkpt lat="47.67879" lon="5.06376">
        <ele>341.98</ele>
        <time>2022-06-09T09:19:33Z</time>
      </trkpt>
      <trkpt lat="47.6788" lon="5.0638">
        <ele>342.62</ele>
        <time>2022-06-09T09:19:37Z</time>
      </trkpt>
      <trkpt lat="47.67881" lon="5.06384">
        <ele>343.25</ele>
        <time>2022-06-09T09:19:40Z</time>
      </trkpt>
      <trkpt lat="47.67882" lon="5.06388">
        <ele>343.86</ele>
        <time>2022-06-09T09:19:42Z</time>
      </trkpt>
      <trkpt lat="47.67883" lon="5.06392">
        <ele>344.2</ele>
        <time>2022-06-09T09:19:44Z</time>
      </trkpt>
      <trkpt lat="47.67884" lon="5.06397">
        <ele>344.53</ele>
        <time>2022-06-09T09:19:47Z</time>
      </trkpt>
      <trkpt lat="47.67884" lon="5.06401">
        <ele>344.8</ele>
        <time>2022-06-09T09:19:53Z</time>
      </trkpt>
      <trkpt lat="47.67885" lon="5.06406">
        <ele>345.15</ele>
        <time>2022-06-09T09:20:00Z</time>
      </trkpt>
      <trkpt lat="47.67886" lon="5.0641">
        <ele>345.44</ele>
        <time>2022-06-09T09:20:02Z</time>
      </trkpt>
      <trkpt lat="47.67888" lon="5.06414">
        <ele>345.78</ele>
        <time>2022-06-09T09:20:07Z</time>
      </trkpt>
      <trkpt lat="47.67889" lon="5.06418">
        <ele>346.1</ele>
        <time>2022-06-09T09:20:09Z</time>
      </trkpt>
      <trkpt lat="47.67891" lon="5.06421">
        <ele>346.45</ele>
        <time>2022-06-09T09:20:12Z</time>
      </trkpt>
      <trkpt lat="47.67892" lon="5.06426">
        <ele>346.86</ele>
        <time>2022-06-09T09:20:14Z</time>
      </trkpt>
      <trkpt lat="47.67894" lon="5.06431">
        <ele>347.31</ele>
        <time>2022-06-09T09:20:17Z</time>
      </trkpt>
      <trkpt lat="47.67895" lon="5.06435">
        <ele>347.61</ele>
        <time>2022-06-09T09:20:20Z</time>
      </trkpt>
      <trkpt lat="47.67895" lon="5.06439">
        <ele>347.87</ele>
        <time>2022-06-09T09:20:22Z</time>
      </trkpt>
      <trkpt lat="47.67896" lon="5.06444">
        <ele>348.23</ele>
        <time>2022-06-09T09:20:24Z</time>
      </trkpt>
      <trkpt lat="47.67896" lon="5.06448">
        <ele>348.45</ele>
        <time>2022-06-09T09:20:27Z</time>
      </trkpt>
      <trkpt lat="47.67897" lon="5.06453">
        <ele>348.73</ele>
        <time>2022-06-09T09:20:30Z</time>
      </trkpt>
      <trkpt lat="47.67898" lon="5.06457">
        <ele>348.94</ele>
        <time>2022-06-09T09:20:32Z</time>
      </trkpt>
      <trkpt lat="47.67898" lon="5.06461">
        <ele>349.13</ele>
        <time>2022-06-09T09:20:35Z</time>
      </trkpt>
      <trkpt lat="47.67899" lon="5.06466">
        <ele>349.35</ele>
        <time>2022-06-09T09:20:38Z</time>
      </trkpt>
      <trkpt lat="47.67901" lon="5.06471">
        <ele>349.51</ele>
        <time>2022-06-09T09:20:41Z</time>
      </trkpt>
      <trkpt lat="47.67901" lon="5.06475">
        <ele>349.69</ele>
        <time>2022-06-09T09:20:43Z</time>
      </trkpt>
      <trkpt lat="47.67902" lon="5.06479">
        <ele>349.87</ele>
        <time>2022-06-09T09:20:48Z</time>
      </trkpt>
      <trkpt lat="47.67904" lon="5.06483">
        <ele>350.09</ele>
        <time>2022-06-09T09:20:52Z</time>
      </trkpt>
      <trkpt lat="47.67906" lon="5.06487">
        <ele>350.37</ele>
        <time>2022-06-09T09:20:56Z</time>
      </trkpt>
      <trkpt lat="47.67907" lon="5.0649">
        <ele>350.6</ele>
        <time>2022-06-09T09:20:59Z</time>
      </trkpt>
      <trkpt lat="47.67909" lon="5.06494">
        <ele>350.98</ele>
        <time>2022-06-09T09:21:02Z</time>
      </trkpt>
      <trkpt lat="47.67909" lon="5.06498">
        <ele>351.29</ele>
        <time>2022-06-09T09:21:09Z</time>
      </trkpt>
      <trkpt lat="47.67911" lon="5.06503">
        <ele>352.2</ele>
        <time>2022-06-09T09:21:15Z</time>
      </trkpt>
      <trkpt lat="47.67912" lon="5.06506">
        <ele>352.89</ele>
        <time>2022-06-09T09:21:20Z</time>
      </trkpt>
      <trkpt lat="47.67913" lon="5.06511">
        <ele>354.01</ele>
        <time>2022-06-09T09:21:26Z</time>
      </trkpt>
      <trkpt lat="47.67914" lon="5.06515">
        <ele>354.94</ele>
        <time>2022-06-09T09:21:30Z</time>
      </trkpt>
      <trkpt lat="47.67915" lon="5.06519">
        <ele>355.9</ele>
        <time>2022-06-09T09:21:35Z</time>
      </trkpt>
      <trkpt lat="47.67915" lon="5.06523">
        <ele>356.75</ele>
        <time>2022-06-09T09:21:41Z</time>
      </trkpt>
      <trkpt lat="47.67915" lon="5.06528">
        <ele>357.83</ele>
        <time>2022-06-09T09:21:46Z</time>
      </trkpt>
      <trkpt lat="47.67914" lon="5.06532">
        <ele>358.98</ele>
        <time>2022-06-09T09:21:51Z</time>
      </trkpt>
      <trkpt lat="47.67914" lon="5.06536">
        <ele>360.28</ele>
        <time>2022-06-09T09:22:04Z</time>
      </trkpt>
      <trkpt lat="47.67911" lon="5.06534">
        <ele>359.2</ele>
        <time>2022-06-09T09:22:58Z</time>
      </trkpt>
      <trkpt lat="47.67913" lon="5.0653">
        <ele>358.19</ele>
        <time>2022-06-09T09:33:16Z</time>
      </trkpt>
      <trkpt lat="47.67916" lon="5.06528">
        <ele>357.98</ele>
        <time>2022-06-09T09:33:29Z</time>
      </trkpt>
      <trkpt lat="47.67919" lon="5.06528">
        <ele>358.24</ele>
        <time>2022-06-09T09:33:32Z</time>
      </trkpt>
      <trkpt lat="47.67922" lon="5.06527">
        <ele>358.21</ele>
        <time>2022-06-09T09:33:35Z</time>
      </trkpt>
      <trkpt lat="47.67926" lon="5.06527">
        <ele>358.49</ele>
        <time>2022-06-09T09:33:38Z</time>
      </trkpt>
      <trkpt lat="47.67929" lon="5.06527">
        <ele>358.71</ele>
        <time>2022-06-09T09:33:41Z</time>
      </trkpt>
      <trkpt lat="47.67932" lon="5.06526">
        <ele>358.68</ele>
        <time>2022-06-09T09:33:44Z</time>
      </trkpt>
      <trkpt lat="47.67935" lon="5.06526">
        <ele>358.89</ele>
        <time>2022-06-09T09:33:46Z</time>
      </trkpt>
      <trkpt lat="47.67938" lon="5.06526">
        <ele>359.1</ele>
        <time>2022-06-09T09:33:49Z</time>
      </trkpt>
      <trkpt lat="47.67941" lon="5.06525">
        <ele>359.06</ele>
        <time>2022-06-09T09:33:52Z</time>
      </trkpt>
      <trkpt lat="47.67944" lon="5.06524">
        <ele>359.02</ele>
        <time>2022-06-09T09:33:54Z</time>
      </trkpt>
      <trkpt lat="47.67947" lon="5.06523">
        <ele>358.64</ele>
        <time>2022-06-09T09:33:57Z</time>
      </trkpt>
      <trkpt lat="47.67951" lon="5.06523">
        <ele>358.41</ele>
        <time>2022-06-09T09:34:01Z</time>
      </trkpt>
      <trkpt lat="47.67954" lon="5.06524">
        <ele>358.45</ele>
        <time>2022-06-09T09:34:03Z</time>
      </trkpt>
      <trkpt lat="47.67957" lon="5.06524">
        <ele>358.27</ele>
        <time>2022-06-09T09:34:06Z</time>
      </trkpt>
      <trkpt lat="47.6796" lon="5.06524">
        <ele>358.08</ele>
        <time>2022-06-09T09:34:09Z</time>
      </trkpt>
      <trkpt lat="47.67962" lon="5.06523">
        <ele>357.75</ele>
        <time>2022-06-09T09:34:13Z</time>
      </trkpt>
      <trkpt lat="47.67965" lon="5.06522">
        <ele>357.37</ele>
        <time>2022-06-09T09:34:16Z</time>
      </trkpt>
      <trkpt lat="47.67969" lon="5.0652">
        <ele>356.77</ele>
        <time>2022-06-09T09:34:19Z</time>
      </trkpt>
      <trkpt lat="47.67971" lon="5.06518">
        <ele>356.3</ele>
        <time>2022-06-09T09:34:21Z</time>
      </trkpt>
      <trkpt lat="47.67974" lon="5.06518">
        <ele>356.45</ele>
        <time>2022-06-09T09:34:24Z</time>
      </trkpt>
      <trkpt lat="47.67977" lon="5.06517">
        <ele>356.61</ele>
        <time>2022-06-09T09:34:26Z</time>
      </trkpt>
      <trkpt lat="47.6798" lon="5.06517">
        <ele>356.96</ele>
        <time>2022-06-09T09:34:30Z</time>
      </trkpt>
      <trkpt lat="47.67983" lon="5.06515">
        <ele>356.9</ele>
        <time>2022-06-09T09:34:32Z</time>
      </trkpt>
      <trkpt lat="47.67987" lon="5.06513">
        <ele>356.9</ele>
        <time>2022-06-09T09:34:35Z</time>
      </trkpt>
      <trkpt lat="47.67989" lon="5.06512">
        <ele>356.89</ele>
        <time>2022-06-09T09:34:37Z</time>
      </trkpt>
      <trkpt lat="47.67993" lon="5.06511">
        <ele>357.07</ele>
        <time>2022-06-09T09:34:40Z</time>
      </trkpt>
      <trkpt lat="47.67996" lon="5.0651">
        <ele>357.13</ele>
        <time>2022-06-09T09:34:41Z</time>
      </trkpt>
      <trkpt lat="47.68" lon="5.06509">
        <ele>357.27</ele>
        <time>2022-06-09T09:34:45Z</time>
      </trkpt>
      <trkpt lat="47.68003" lon="5.06509">
        <ele>357.52</ele>
        <time>2022-06-09T09:34:46Z</time>
      </trkpt>
      <trkpt lat="47.68008" lon="5.06512">
        <ele>358.72</ele>
        <time>2022-06-09T09:34:48Z</time>
      </trkpt>
      <trkpt lat="47.68013" lon="5.06516">
        <ele>360.24</ele>
        <time>2022-06-09T09:34:51Z</time>
      </trkpt>
      <trkpt lat="47.68015" lon="5.06517">
        <ele>360.69</ele>
        <time>2022-06-09T09:34:52Z</time>
      </trkpt>
      <trkpt lat="47.68019" lon="5.06519">
        <ele>361.62</ele>
        <time>2022-06-09T09:34:56Z</time>
      </trkpt>
      <trkpt lat="47.68021" lon="5.0652">
        <ele>362.1</ele>
        <time>2022-06-09T09:34:58Z</time>
      </trkpt>
      <trkpt lat="47.68024" lon="5.0652">
        <ele>362.39</ele>
        <time>2022-06-09T09:35:21Z</time>
      </trkpt>
      <trkpt lat="47.68027" lon="5.06519">
        <ele>362.4</ele>
        <time>2022-06-09T09:35:40Z</time>
      </trkpt>
      <trkpt lat="47.68025" lon="5.06517">
        <ele>361.63</ele>
        <time>2022-06-09T09:35:54Z</time>
      </trkpt>
    </trkseg>
  </trk>
</gpx>